[[{"header":{"parameterUnit":"m.s-1","parameterCategory":1,"la1":30.6,"la2":29.2853,"lo1":-89.7004,"lo2":-87.6739,"dy":0.0162,"dx":0.0183,"nx":112,"ny":82,"refTime":"2023-02-24T06:00:00:Z","depth":0,"parameterNumber":2,"parameterNumberName":"U-component_of_WINDS"},"data":[0.0,0.0,0.0,0.0,0.0,0.0,0.0,0.0,0.0,0.0,0.0,0.0,0.0,0.0,0.0,0.0,0.0,0.0,0.0,0.0,0.0,0.0,0.0,0.0,0.0,0.0,0.0,0.0,0.0,0.0,0.0,0.0,0.0,0.0,0.0,0.0,0.0,0.0,0.0,0.0,0.0,0.0,0.0,0.0,0.0,0.0,0.0,0.0,0.0,0.0,0.0,0.0,0.0,0.0,0.0,0.0,0.0,0.0,0.0,0.0,0.0,0.0,0.0,0.0,0.0,0.0,0.0,0.0,0.0,0.0,0.0,0.0,0.0,0.0,0.0,0.0,0.0,0.0,0.0,0.0,0.0,0.0,0.0,0.0,0.0,0.0,0.0,0.0,0.0,0.0,0.0,-0.957,-1.0599,-1.1257,-1.1324,-1.1612,-1.1245,-1.0058,0.0,0.0,0.0,0.0,0.0,0.0,0.0,0.0,0.0,0.0,0.0,0.0,0.0,0.0,0.0,0.0,0.0,0.0,0.0,0.0,0.0,0.0,0.0,0.0,0.0,0.0,0.0,0.0,0.0,0.0,0.0,0.0,0.0,0.0,0.0,0.0,0.0,0.0,0.0,0.0,0.0,0.0,0.0,0.0,0.0,0.0,0.0,0.0,0.0,0.0,0.0,0.0,0.0,0.0,0.0,0.0,0.0,0.0,0.0,0.0,0.0,0.0,0.0,0.0,0.0,0.0,0.0,0.0,0.0,0.0,0.0,0.0,0.0,0.0,0.0,0.0,0.0,0.0,0.0,0.0,0.0,0.0,0.0,0.0,0.0,0.0,0.0,0.0,0.0,0.0,0.0,0.0,0.0,0.0,0.0,0.0,0.0,0.0,0.0,0.0,0.0,0.0,0.0,0.0,-0.9581,-0.9509,-0.96,-0.9804,-1.0122,-0.9916,-0.9632,-0.9427,0.0,0.0,0.0,0.0,0.0,0.0,0.0,0.0,0.0,0.0,0.0,0.0,0.0,0.0,0.0,0.0,0.0,0.0,0.0,0.0,0.0,0.0,0.0,0.0,0.0,0.0,0.0,0.0,0.0,0.0,0.0,0.0,0.0,0.0,0.0,0.0,0.0,0.0,0.0,0.0,0.0,0.0,0.0,0.0,0.0,0.0,0.0,0.0,0.0,0.0,0.0,0.0,0.0,0.0,0.0,0.0,0.0,0.0,0.0,0.0,0.0,0.0,0.0,0.0,0.0,0.0,0.0,0.0,0.0,0.0,0.0,0.0,0.0,0.0,0.0,0.0,0.0,0.0,0.0,0.0,0.0,0.0,0.0,0.0,0.0,0.0,0.0,0.0,0.0,0.0,0.0,0.0,0.0,0.0,0.0,0.0,0.0,0.0,0.0,0.0,0.0,0.0,0.0,-0.9349,-0.9594,-0.9119,-0.9342,-0.9528,-0.9584,-0.9381,-0.916,-0.8866,-0.9039,0.0,0.0,0.0,0.0,0.0,0.0,0.0,0.0,0.0,0.0,0.0,0.0,0.0,0.0,0.0,0.0,0.0,0.0,0.0,0.0,0.0,0.0,0.0,0.0,0.0,0.0,0.0,0.0,0.0,0.0,0.0,0.0,0.0,0.0,0.0,0.0,0.0,0.0,0.0,0.0,0.0,0.0,0.0,0.0,0.0,0.0,0.0,0.0,0.0,0.0,0.0,0.0,0.0,0.0,0.0,0.0,0.0,0.0,0.0,0.0,0.0,0.0,0.0,0.0,0.0,0.0,0.0,0.0,0.0,0.0,0.0,0.0,0.0,0.0,0.0,0.0,0.0,0.0,0.0,0.0,0.0,0.0,0.0,0.0,0.0,0.0,0.0,0.0,0.0,0.0,0.0,0.0,0.0,0.0,0.0,0.0,0.0,0.0,0.0,0.0,0.0,0.0,-0.9123,-0.919,-0.8586,-0.8789,-0.8897,-0.8677,-0.8654,-0.8492,-0.8074,-0.8019,0.0,0.0,0.0,0.0,0.0,0.0,0.0,0.0,0.0,0.0,0.0,0.0,0.0,0.0,0.0,0.0,0.0,0.0,0.0,0.0,0.0,0.0,0.0,0.0,0.0,0.0,0.0,0.0,0.0,0.0,0.0,0.0,0.0,0.0,0.0,0.0,0.0,0.0,0.0,0.0,0.0,0.0,0.0,0.0,0.0,0.0,0.0,0.0,0.0,0.0,0.0,0.0,0.0,0.0,0.0,0.0,0.0,0.0,0.0,0.0,0.0,0.0,0.0,0.0,0.0,0.0,0.0,0.0,0.0,0.0,0.0,0.0,0.0,0.0,0.0,0.0,0.0,0.0,0.0,0.0,0.0,0.0,0.0,0.0,0.0,0.0,0.0,0.0,0.0,0.0,0.0,0.0,0.0,0.0,0.0,0.0,0.0,0.0,0.0,0.0,0.0,0.0,-0.8299,-0.8017,-0.7961,-0.7268,-0.6826,-0.6813,-0.6806,-0.6766,-0.6733,-0.6949,0.0,0.0,0.0,0.0,0.0,0.0,0.0,0.0,0.0,0.0,0.0,0.0,0.0,0.0,0.0,0.0,0.0,0.0,0.0,0.0,0.0,0.0,0.0,0.0,0.0,0.0,0.0,0.0,0.0,0.0,0.0,0.0,0.0,0.0,0.0,0.0,0.0,0.0,0.0,0.0,0.0,0.0,0.0,0.0,0.0,0.0,0.0,0.0,0.0,0.0,0.0,0.0,0.0,0.0,0.0,0.0,0.0,0.0,0.0,0.0,0.0,0.0,0.0,0.0,0.0,0.0,0.0,0.0,0.0,0.0,0.0,0.0,0.0,0.0,0.0,0.0,0.0,0.0,0.0,0.0,0.0,0.0,0.0,0.0,0.0,0.0,0.0,0.0,0.0,0.0,0.0,0.0,0.0,0.0,0.0,0.0,0.0,0.0,0.0,0.0,0.0,0.0,-0.7958,-0.7893,0.0,-0.6936,-0.6787,-0.6607,-0.6587,-0.6667,-0.6847,0.0,0.0,0.0,0.0,0.0,0.0,0.0,0.0,0.0,0.0,0.0,0.0,0.0,0.0,0.0,0.0,0.0,0.0,0.0,0.0,0.0,0.0,0.0,0.0,0.0,0.0,0.0,0.0,0.0,0.0,0.0,0.0,0.0,0.0,0.0,0.0,0.0,0.0,0.0,0.0,0.0,0.0,0.0,0.0,0.0,0.0,0.0,0.0,0.0,0.0,0.0,0.0,0.0,0.0,0.0,0.0,0.0,0.0,0.0,0.0,0.0,0.0,0.0,0.0,0.0,0.0,0.0,0.0,0.0,0.0,0.0,0.0,0.0,0.0,0.0,0.0,0.0,0.0,0.0,0.0,0.0,0.0,0.0,0.0,0.0,0.0,0.0,0.0,0.0,0.0,0.0,0.0,0.0,0.0,0.0,0.0,0.0,0.0,0.0,0.0,0.0,0.0,-0.7076,-0.7502,-0.7603,0.0,-0.682,-0.6807,-0.6607,-0.6587,-0.6673,-0.6874,0.0,0.0,0.0,0.0,0.0,0.0,0.0,0.0,0.0,0.0,0.0,0.0,0.0,0.0,0.0,0.0,0.0,0.0,0.0,0.0,0.0,0.0,0.0,0.0,0.0,0.0,0.0,0.0,0.0,0.0,0.0,0.0,0.0,0.0,0.0,0.0,0.0,0.0,0.0,0.0,0.0,0.0,0.0,0.0,0.0,0.0,0.0,0.0,0.0,0.0,0.0,0.0,0.0,0.0,0.0,0.0,0.0,0.0,0.0,0.0,0.0,0.0,0.0,0.0,0.0,0.0,0.0,0.0,0.0,0.0,0.0,0.0,0.0,0.0,0.0,0.0,0.0,0.0,0.0,0.0,0.0,0.0,0.0,0.0,0.0,0.0,0.0,0.0,0.0,0.0,0.0,0.0,0.0,0.0,0.0,0.0,0.0,0.0,0.0,0.0,0.0,0.0,-0.7061,-0.6979,-0.6979,-0.6979,-0.676,-0.6587,-0.6587,-0.6587,-0.6587,0.0,0.0,0.0,0.0,0.0,0.0,0.0,0.0,0.0,0.0,0.0,0.0,0.0,0.0,0.0,0.0,0.0,0.0,0.0,0.0,0.0,0.0,0.0,0.0,0.0,0.0,0.0,0.0,0.0,0.0,0.0,0.0,0.0,0.0,0.0,0.0,0.0,0.0,0.0,0.0,0.0,0.0,0.0,0.0,0.0,0.0,0.0,0.0,0.0,0.0,0.0,0.0,0.0,0.0,0.0,0.0,0.0,0.0,0.0,0.0,0.0,0.0,0.0,0.0,0.0,0.0,0.0,0.0,0.0,0.0,0.0,0.0,0.0,0.0,0.0,0.0,0.0,0.0,0.0,0.0,0.0,0.0,0.0,0.0,0.0,0.0,0.0,0.0,0.0,0.0,0.0,0.0,0.0,0.0,0.0,0.0,0.0,0.0,0.0,0.0,0.0,0.0,0.0,-0.7034,-0.6979,-0.6941,-0.674,-0.664,-0.6587,-0.6587,-0.6587,-0.6673,-0.688,0.0,0.0,0.0,0.0,0.0,0.0,0.0,0.0,0.0,0.0,0.0,0.0,0.0,0.0,0.0,0.0,0.0,0.0,0.0,0.0,0.0,0.0,0.0,0.0,0.0,0.0,0.0,0.0,0.0,0.0,0.0,0.0,0.0,0.0,0.0,0.0,0.0,0.0,0.0,0.0,0.0,0.0,0.0,0.0,0.0,0.0,0.0,0.0,0.0,0.0,0.0,0.0,0.0,0.0,0.0,0.0,0.0,0.0,0.0,0.0,0.0,0.0,0.0,0.0,0.0,0.0,0.0,0.0,0.0,0.0,0.0,0.0,0.0,0.0,0.0,0.0,0.0,0.0,0.0,0.0,0.0,0.0,0.0,0.0,0.0,0.0,0.0,0.0,0.0,0.0,0.0,0.0,0.0,0.0,0.0,0.0,0.0,0.0,0.0,0.0,0.0,0.0,-0.7012,-0.6979,-0.6954,-0.678,-0.676,-0.676,-0.676,-0.676,-0.684,-0.7014,0.0,0.0,0.0,0.0,0.0,0.0,0.0,0.0,0.0,0.0,0.0,0.0,0.0,0.0,0.0,0.0,0.0,0.0,0.0,0.0,0.0,0.0,0.0,0.0,0.0,0.0,0.0,0.0,0.0,0.0,0.0,0.0,0.0,0.0,0.0,0.0,0.0,0.0,0.0,0.0,0.0,0.0,0.0,0.0,0.0,0.0,0.0,0.0,0.0,0.0,0.0,0.0,0.0,0.0,0.0,0.0,0.0,0.0,0.0,0.0,0.0,0.0,0.0,0.0,0.0,0.0,0.0,0.0,0.0,0.0,0.0,0.0,0.0,0.0,0.0,0.0,0.0,0.0,0.0,0.0,0.0,0.0,0.0,0.0,0.0,0.0,0.0,0.0,0.0,0.0,0.0,0.0,0.0,0.0,0.0,0.0,0.0,0.0,0.0,0.0,0.0,0.0,-0.7058,-0.6979,-0.6979,-0.6979,-0.6979,-0.6979,-0.6979,-0.6979,-0.6979,-0.6979,0.0,0.0,0.0,0.0,0.0,0.0,0.0,0.0,0.0,0.0,0.0,0.0,0.0,0.0,0.0,0.0,0.0,0.0,0.0,0.0,0.0,0.0,0.0,0.0,0.0,0.0,0.0,0.0,0.0,0.0,0.0,0.0,0.0,0.0,0.0,0.0,0.0,0.0,0.0,0.0,0.0,0.0,0.0,0.0,0.0,0.0,0.0,0.0,0.0,0.0,0.0,0.0,0.0,0.0,0.0,0.0,0.0,0.0,0.0,0.0,-1.6446,0.0,0.0,0.0,0.0,0.0,0.0,0.0,0.0,0.0,0.0,0.0,0.0,0.0,0.0,0.0,0.0,0.0,0.0,0.0,0.0,0.0,0.0,0.0,0.0,0.0,0.0,0.0,0.0,0.0,0.0,0.0,0.0,0.0,0.0,0.0,0.0,0.0,0.0,0.0,0.0,0.0,-0.7068,-0.6979,-0.6979,-0.6979,-0.6979,-0.6979,-0.6979,-0.6979,-0.6979,-0.6979,0.0,0.0,0.0,0.0,0.0,0.0,0.0,0.0,0.0,0.0,0.0,0.0,0.0,0.0,0.0,0.0,0.0,0.0,0.0,0.0,0.0,0.0,0.0,0.0,0.0,0.0,0.0,0.0,0.0,0.0,0.0,0.0,0.0,0.0,0.0,0.0,0.0,0.0,0.0,0.0,0.0,0.0,0.0,0.0,0.0,0.0,0.0,0.0,0.0,0.0,0.0,0.0,0.0,0.0,0.0,0.0,0.0,0.0,0.0,0.0,0.0,-1.6522,0.0,0.0,0.0,0.0,0.0,0.0,0.0,0.0,0.0,0.0,0.0,0.0,0.0,0.0,0.0,0.0,0.0,0.0,0.0,0.0,0.0,0.0,0.0,0.0,0.0,0.0,0.0,0.0,0.0,0.0,0.0,0.0,0.0,0.0,0.0,0.0,0.0,0.0,0.0,0.0,-0.7255,-0.7108,-0.6979,-0.6979,-0.6979,-0.6979,-0.6979,-0.6979,-0.6979,-0.6979,-0.6979,0.0,0.0,0.0,0.0,0.0,0.0,0.0,0.0,0.0,0.0,0.0,0.0,0.0,0.0,0.0,0.0,0.0,0.0,0.0,0.0,0.0,0.0,0.0,0.0,0.0,0.0,0.0,0.0,0.0,0.0,0.0,0.0,0.0,0.0,0.0,0.0,0.0,0.0,0.0,0.0,0.0,0.0,0.0,0.0,0.0,0.0,0.0,0.0,0.0,0.0,0.0,0.0,0.0,-1.6522,-1.6522,-1.6522,-1.6522,-1.6522,-1.6466,-1.638,-1.6324,-1.6324,0.0,0.0,0.0,0.0,0.0,0.0,0.0,0.0,0.0,0.0,0.0,0.0,0.0,0.0,0.0,0.0,0.0,0.0,0.0,0.0,0.0,0.0,0.0,0.0,0.0,-0.8804,-0.8804,0.0,0.0,0.0,0.0,0.0,0.0,0.0,0.0,0.0,0.0,0.0,0.0,-0.7446,-0.7174,-0.6979,-0.6979,-0.6979,-0.6979,-0.6979,-0.6979,-0.6979,-0.6979,-0.6979,-0.7111,0.0,0.0,0.0,0.0,0.0,0.0,0.0,0.0,0.0,0.0,0.0,0.0,0.0,0.0,0.0,0.0,0.0,0.0,0.0,0.0,0.0,0.0,0.0,0.0,0.0,0.0,0.0,0.0,0.0,0.0,0.0,0.0,-1.6951,-1.7271,0.0,0.0,0.0,0.0,0.0,0.0,0.0,0.0,0.0,0.0,0.0,0.0,0.0,0.0,-1.6522,-1.6446,-1.6446,-1.6522,-1.6522,-1.6522,-1.6522,-1.6522,-1.6522,-1.6466,-1.5964,0.0,-1.5676,-1.5152,0.0,0.0,0.0,0.0,0.0,0.0,0.0,0.0,0.0,0.0,0.0,0.0,0.0,0.0,0.0,0.0,0.0,0.0,0.0,0.0,0.0,0.0,-0.8804,-0.8804,-0.8804,-0.8804,0.0,-0.8804,-0.8804,-0.8804,0.0,0.0,0.0,0.0,0.0,0.0,0.0,0.0,-0.7148,-0.7047,-0.6979,-0.6979,-0.6979,-0.6979,-0.6979,-0.6979,-0.6979,-0.6979,-0.6979,-0.6847,-0.6582,-0.6672,0.0,0.0,0.0,0.0,0.0,0.0,0.0,0.0,0.0,0.0,0.0,0.0,0.0,0.0,0.0,0.0,0.0,0.0,0.0,0.0,0.0,0.0,0.0,0.0,0.0,0.0,0.0,0.0,0.0,-1.7229,-1.6909,-1.6879,-1.6637,-1.6595,0.0,0.0,0.0,0.0,0.0,0.0,0.0,0.0,0.0,-1.6522,-1.622,-1.6208,-1.6522,-1.6208,-1.6208,-1.6522,-1.6522,-1.6337,-1.6008,-1.6008,-1.5832,-1.5466,-1.5197,-1.4915,-1.4584,-1.4652,-1.4329,-1.3768,0.0,0.0,0.0,0.0,-1.2881,-1.2881,-1.2881,-1.2881,0.0,0.0,0.0,0.0,0.0,0.0,0.0,0.0,0.0,0.0,0.0,0.0,0.0,-0.8804,-0.8804,-0.8804,-0.8804,-0.8804,-0.8804,0.0,-0.8804,-0.8804,-0.8804,0.0,0.0,0.0,0.0,0.0,-0.7503,-0.7381,-0.7268,-0.7268,-0.7121,-0.6979,-0.6979,-0.6979,-0.6979,-0.6979,-0.6732,-0.6501,-0.6395,-0.5991,-0.5675,0.0,0.0,0.0,0.0,0.0,0.0,0.0,0.0,0.0,0.0,0.0,0.0,0.0,0.0,0.0,0.0,0.0,0.0,0.0,0.0,0.0,0.0,0.0,0.0,0.0,0.0,0.0,0.0,-1.7271,-1.6951,-1.6552,-1.6522,-1.6522,0.0,0.0,0.0,0.0,0.0,0.0,-1.6522,-1.6522,-1.6522,-1.6522,-1.612,-1.6107,-1.6522,-1.6107,-1.612,-1.6522,-1.6522,-1.6238,-1.582,-1.582,-1.5499,-1.4926,-1.4744,-1.4376,-1.3815,-1.4283,-1.4097,-1.3552,-1.3552,-1.3286,-1.2881,-1.2881,-1.2881,-1.29,-1.3008,-1.2969,-1.29,-1.3008,0.0,-1.1466,-1.1166,0.0,0.0,0.0,0.0,-0.8804,-0.8804,-0.8804,-0.8804,-0.8804,-0.8804,-0.8804,-0.8804,-0.8804,-0.8804,0.0,-0.8804,-0.8804,-0.8804,0.0,0.0,0.0,0.0,-0.7756,-0.7862,-0.7729,-0.7582,-0.7582,-0.7388,-0.7211,-0.7211,-0.7211,-0.7161,-0.698,-0.6586,-0.6254,-0.607,-0.5336,-0.4954,-0.4971,0.0,0.0,0.0,0.0,0.0,0.0,0.0,0.0,0.0,0.0,0.0,0.0,0.0,0.0,0.0,0.0,0.0,0.0,0.0,0.0,0.0,0.0,0.0,0.0,0.0,0.0,0.0,0.0,0.0,-1.6522,-1.6522,0.0,0.0,0.0,0.0,-1.6522,-1.6522,-1.6522,-1.6522,-1.6522,-1.6522,-1.6522,-1.6497,-1.6497,-1.6522,-1.6497,-1.6497,-1.6522,-1.6522,-1.6466,-1.6466,-1.6466,-1.6151,-1.5543,-1.4971,-1.4376,-1.3815,-1.3815,-1.3505,-1.2978,-1.2978,-1.2929,-1.2881,-1.2881,-1.2881,-1.2939,-1.334,-1.3213,-1.2949,-1.335,-1.23,-1.061,-0.9361,-0.891,0.0,0.0,-0.8804,-0.8804,-0.8804,-0.8804,-0.8804,-0.8804,-0.8804,-0.8804,-0.8804,-0.8804,-0.8804,0.0,-0.8804,-0.8804,-0.8804,0.0,-0.8671,-0.8417,-0.835,-0.823,-0.7915,-0.7868,-0.7855,-0.7855,-0.7848,-0.7835,-0.7835,-0.7835,-0.7538,-0.6842,-0.6788,-0.6271,-0.5229,-0.5095,-0.4926,-0.4556,-0.4512,0.0,0.0,0.0,0.0,0.0,0.0,0.0,0.0,0.0,0.0,0.0,0.0,0.0,0.0,0.0,0.0,0.0,0.0,0.0,0.0,0.0,0.0,0.0,0.0,0.0,0.0,0.0,0.0,-1.6522,-1.6522,0.0,0.0,-1.6522,-1.6522,-1.6522,-1.6522,-1.6522,-1.6522,-1.6522,-1.6522,-1.6522,-1.6522,-1.6522,-1.6522,-1.6522,-1.6522,-1.6522,-1.6095,-1.5732,-1.5344,-1.496,-1.4422,-1.3836,-1.3658,-1.343,-1.3238,-1.3238,-1.3104,-1.2881,-1.2881,-1.2881,-1.291,-1.3184,-1.3281,-1.3311,-1.3457,-1.3093,-1.2485,-1.1473,-1.0672,-0.9969,-0.9061,-0.8804,-0.8804,-0.8804,-0.8804,-0.8804,-0.8804,-0.8804,-0.8804,-0.8804,-0.8804,-0.8804,-0.8804,-0.8804,-0.8804,-0.8804,-0.8804,-0.8804,-0.8804,-0.8651,-0.849,-0.839,-0.8012,-0.7665,-0.7517,-0.7095,-0.6989,-0.7455,-0.734,-0.7379,-0.7882,-0.7882,-0.7583,-0.6829,-0.6497,-0.5918,-0.5159,-0.4703,-0.4524,-0.4515,-0.4519,-0.4519,0.0,0.0,0.0,0.0,0.0,0.0,0.0,0.0,0.0,0.0,0.0,0.0,0.0,0.0,0.0,0.0,0.0,0.0,0.0,0.0,0.0,0.0,0.0,0.0,0.0,0.0,-1.6522,-1.6522,-1.6522,-1.6522,-1.6522,-1.6522,-1.6522,-1.6522,-1.6522,-1.6522,-1.6522,-1.6522,-1.6522,-1.6522,-1.6522,-1.6522,-1.6522,-1.6522,-1.6522,-1.6466,-1.5908,-1.541,-1.4971,-1.4376,-1.3779,-1.319,-1.319,-1.3104,-1.2891,-1.3037,-1.3096,-1.3076,-1.2939,-1.2881,-1.291,-1.3193,-1.3389,-1.3455,-1.324,-1.2798,-1.2016,-1.0314,-0.9814,-0.9666,-0.9008,-0.8804,-0.8804,-0.8804,-0.8804,-0.8831,-0.8925,-0.8951,-0.8978,-0.9078,-0.9025,-0.8951,-0.8951,-0.8878,-0.8804,-0.8804,-0.8804,-0.8804,-0.8804,-0.8651,-0.8466,-0.8204,-0.7735,-0.7367,-0.7108,-0.6624,-0.6514,-0.6998,-0.6844,-0.6945,-0.7418,-0.7467,-0.7156,-0.6428,-0.6036,-0.5542,-0.4937,-0.4527,-0.4365,-0.4515,-0.4519,-0.4519,-0.4519,0.0,0.0,0.0,0.0,0.0,0.0,0.0,0.0,0.0,0.0,0.0,0.0,0.0,0.0,0.0,0.0,0.0,0.0,0.0,0.0,0.0,0.0,0.0,-1.7271,-1.685,-1.6534,-1.6522,-1.6534,-1.6534,-1.6522,-1.6522,-1.6522,-1.6522,-1.6522,-1.6522,-1.6522,-1.6522,-1.6522,-1.6522,-1.6522,-1.6522,-1.6522,-1.6466,-1.6466,-1.6466,-1.5832,-1.5555,-1.5522,-1.496,-1.4373,-1.3821,-1.3821,-1.346,-1.2949,-1.3359,-1.3525,-1.3486,-1.3076,-1.292,-1.292,-1.293,-1.3193,-1.3372,-1.2733,-1.2199,-1.1636,-1.0226,-0.9769,-0.9681,-0.9022,-0.8831,-0.8831,-0.8831,-0.8831,-0.8898,-0.913,-0.9196,-0.9325,-0.9613,-0.9459,-0.9196,-0.9196,-0.9031,-0.8831,-0.8831,-0.8831,-0.8831,-0.8811,-0.8804,-0.854,-0.783,-0.7723,0.0,-0.6696,-0.6588,-0.6588,-0.6588,-0.6588,-0.6588,-0.6588,-0.6588,-0.6312,-0.5542,-0.5487,-0.5218,-0.4515,-0.4519,-0.4519,-0.4519,-0.4519,-0.4519,-0.4519,0.0,0.0,0.0,0.0,0.0,0.0,0.0,0.0,0.0,0.0,0.0,0.0,0.0,0.0,0.0,0.0,0.0,0.0,0.0,0.0,0.0,0.0,-1.7146,-1.6752,-1.6961,-1.6986,-1.6572,-1.6886,-1.6974,-1.6559,-1.6522,-1.6522,-1.6522,-1.6522,-1.6522,-1.6522,-1.6522,-1.6522,-1.6522,-1.6522,-1.6522,-1.6522,-1.6051,-1.5864,-1.582,-1.5081,-1.4725,-1.4736,-1.4417,-1.4174,-1.4029,-1.4029,-1.3935,-1.3799,-1.3916,-1.3965,-1.3902,-1.3828,-1.3789,-1.3828,-1.415,-1.38,-1.3094,-1.2436,-1.1382,-1.0204,-0.9365,-0.9205,-0.933,-0.9173,-0.9272,-0.9446,-0.9446,-0.9446,-0.9459,-0.9539,-0.9559,-0.9586,-0.9666,-0.9619,-0.9559,-0.9559,-0.9499,-0.9446,-0.9446,-0.9446,-0.9305,-0.8878,-0.8804,-0.8752,-0.8533,-0.8049,0.0,-0.6696,-0.6145,-0.5819,-0.5819,-0.5819,-0.6036,-0.6534,-0.6588,-0.6312,-0.5542,-0.5487,-0.5218,-0.4515,-0.4519,-0.4519,-0.4519,-0.4519,-0.4519,0.0,0.0,0.0,0.0,0.0,0.0,0.0,0.0,0.0,0.0,0.0,0.0,0.0,0.0,0.0,0.0,0.0,0.0,0.0,0.0,0.0,0.0,-1.7496,-1.7329,-1.7232,-1.7099,-1.6986,-1.6886,-1.6961,-1.6886,-1.6547,-1.6522,-1.6522,-1.6522,-1.6522,-1.6522,-1.6522,-1.6522,-1.6522,-1.6522,-1.6522,-1.6449,-1.6418,-1.608,-1.5856,-1.5776,-1.5055,-1.4704,-1.4664,-1.4268,-1.4077,0.0,-1.4077,-1.4077,-1.4097,-1.4326,-1.4404,0.0,0.0,0.0,0.0,0.0,-1.3942,-1.2781,-1.2442,-1.1263,-0.9868,-0.9315,-0.9285,-0.9426,-0.9426,-0.9546,-0.9686,-0.9686,-0.9686,-0.9713,-0.9833,-0.9866,-0.99,-1.002,-0.9953,-0.9866,-0.9866,-0.9773,-0.9686,-0.9686,0.0,0.0,-0.8769,-0.8841,-0.8837,-0.8387,-0.7723,-0.6966,-0.6253,-0.5492,-0.5058,-0.5058,-0.5058,-0.5273,-0.5664,-0.5719,0.0,0.0,0.0,-0.4893,-0.4519,-0.4519,0.0,0.0,0.0,-0.4519,0.0,0.0,0.0,0.0,-0.4519,-0.4519,0.0,0.0,0.0,0.0,0.0,0.0,0.0,0.0,0.0,0.0,0.0,0.0,0.0,0.0,0.0,0.0,-1.7811,-1.7689,-1.8304,-1.7426,-1.6898,-1.7413,-1.7024,-1.6685,-1.6622,-1.6559,-1.6522,-1.6522,-1.6522,-1.6522,-1.6522,0.0,0.0,0.0,0.0,-1.6458,-1.6232,-1.6256,-1.6118,-1.5824,-1.5299,-1.5059,-1.5059,-1.4526,-1.4223,-1.4223,-1.4223,-1.4223,-1.4253,-1.4697,-1.4853,-1.4814,-1.4424,-1.4223,-1.4326,-1.4707,-1.3844,-1.2422,-1.2539,0.0,0.0,-0.9766,-0.9706,-0.9733,-0.9733,-0.976,-0.978,-0.978,-0.978,-0.9846,-1.01,-1.0167,-1.0234,-1.0557,-1.0354,-1.0167,-1.0167,-0.996,-0.978,-0.978,-0.978,-0.9525,-0.8705,-0.8953,-0.8909,-0.7859,-0.7166,-0.6505,-0.571,-0.5058,-0.457,-0.4519,0.0,0.0,-0.4519,-0.4519,-0.4519,-0.4519,-0.4519,-0.4519,-0.4519,-0.4519,-0.4519,-0.4519,-0.4519,-0.4519,-0.4519,-0.4519,-0.4519,-0.4519,-0.4519,-0.4519,0.0,0.0,0.0,0.0,0.0,0.0,0.0,0.0,0.0,0.0,0.0,0.0,0.0,0.0,0.0,-1.8172,-1.8088,-1.838,-1.9359,-1.8555,-1.7915,-1.8028,-1.794,-1.7702,-1.7262,-1.6798,-1.6522,-1.6522,-1.6522,-1.6522,-1.6522,-1.6522,0.0,-1.6522,-1.6974,-1.6757,-1.5754,-1.6074,-1.5725,-1.4687,0.0,0.0,-1.4889,-1.5066,-1.5166,-1.5166,-1.5166,-1.5166,-1.5176,-1.5254,-1.5293,-1.5283,-1.5195,-1.5166,-1.5176,-1.5254,-1.4139,-1.2597,-1.2589,-1.1356,-0.976,-0.9699,-0.984,-1.0033,-1.0033,-1.02,0.0,-1.0456,-1.0456,-1.0463,-1.0461,-1.0474,-1.0488,-1.0611,-1.0577,-1.0474,-1.0474,-1.0434,-1.0456,-1.0456,-1.0456,-1.0314,-0.9825,-0.9669,-0.9201,-0.8058,-0.7856,-0.7511,-0.65,-0.5764,-0.5109,-0.457,-0.4519,-0.4519,-0.4519,-0.4519,-0.4519,-0.4519,-0.4519,-0.4519,-0.4519,-0.4519,-0.4519,-0.4519,-0.4519,-0.4519,-0.4519,-0.4519,-0.4519,-0.4519,-0.4519,-0.4519,0.0,0.0,0.0,0.0,0.0,0.0,0.0,0.0,0.0,0.0,0.0,-1.9333,0.0,0.0,-1.9185,-1.9396,-1.9196,-1.9296,-2.0112,-1.9522,-1.8907,-1.8643,-1.8129,-1.7689,-1.7413,-1.6861,-1.6522,-1.6522,-1.6522,-1.6522,-1.6522,-1.6798,-1.6948,-1.6948,-1.7501,-1.7286,-1.6224,-1.639,-1.5964,-1.4912,-1.4834,-1.4893,-1.5098,-1.5098,-1.5215,-1.541,-1.541,-1.541,-1.541,-1.541,-1.541,-1.5352,-1.4932,-1.4805,-1.4805,-1.4805,-1.3723,-1.2198,-1.2198,-1.1315,-1.012,-1.012,-1.0321,-1.0555,-1.0555,-1.0762,-1.0995,-1.0995,-1.0995,-1.0995,-1.0995,-1.0995,-1.0955,-1.0815,-1.0775,-1.0735,-1.0658,-1.0624,-1.0624,-1.0624,-1.0681,-1.0553,-0.9819,-1.0086,-0.9823,-0.8357,-0.7841,-0.7274,-0.6318,-0.5499,-0.4897,-0.4519,-0.4519,-0.4519,-0.4519,-0.4519,-0.4519,-0.4519,-0.4519,-0.4519,-0.4519,-0.4519,-0.4519,-0.4519,-0.4519,-0.4519,-0.4519,-0.4519,-0.4556,-0.4575,-0.4575,-0.4575,0.0,0.0,0.0,0.0,0.0,0.0,0.0,0.0,-2.0042,-2.0638,-2.0508,-2.0342,-2.0584,-2.0489,-2.0476,-2.0813,-2.0338,-2.0175,-2.074,-2.015,-1.9497,-1.9033,-1.8154,-1.7539,-1.7539,-1.6923,-1.6522,-1.6522,-1.6522,-1.6572,-1.6685,-1.7137,-1.7438,-1.7539,-1.7925,-1.7688,-1.6696,-1.6738,-1.6274,-1.5283,-1.5029,-1.5078,-1.54,-1.5059,-1.5088,-1.541,-1.541,-1.541,-1.542,-1.5498,-1.5488,-1.5362,-1.4781,-1.4336,-1.3974,-1.3974,-1.3094,-1.1862,-1.1862,-1.1417,-1.0728,-1.0728,-1.0882,-1.1076,-1.1076,-1.1243,-1.1423,-1.1423,-1.1423,-1.1423,-1.1423,-1.1423,-1.1356,-1.1062,-1.1035,-1.0995,-1.0708,-1.0688,-1.0728,-1.0728,-1.0868,-1.0732,-0.9841,-1.0366,-1.0379,-0.8711,-0.7735,-0.6952,-0.6125,-0.514,-0.4553,-0.4522,-0.4519,-0.4519,-0.4519,-0.4519,-0.4519,-0.4519,-0.4519,-0.4519,-0.4519,-0.4519,-0.4519,-0.4519,-0.4519,-0.4519,-0.4519,-0.4519,-0.4541,-0.4691,-0.4691,-0.4707,-1.8176,-1.773,-1.8107,-1.8657,-1.9256,-1.9854,0.0,0.0,-2.0614,-2.0852,-2.1294,-2.1368,-2.0274,-2.093,-2.1576,-2.1458,-2.0928,-2.0819,-2.1317,-2.0075,-1.9046,-1.8983,-1.848,-1.8116,-1.8116,-1.7137,-1.6522,-1.6522,-1.6522,-1.6735,-1.7262,-1.735,-1.7601,-1.8103,-1.8007,-1.7404,-1.6266,-1.6428,-1.5951,-1.4863,-1.5186,-1.5371,-1.541,-1.5361,-1.5371,-1.541,-1.541,-1.541,-1.5439,-1.583,-1.5762,-1.5449,-1.577,-1.4772,-1.313,-1.313,-1.2703,-1.2134,-1.2134,-1.1751,-1.1329,-1.1329,-1.1349,-1.1376,-1.1376,-1.1403,-1.1423,-1.1423,-1.1423,-1.1423,-1.1423,-1.1423,-1.1356,-1.1062,-1.1189,-1.1296,-1.1009,-1.1149,-1.1329,-1.1329,-1.1149,-1.1062,-1.1154,-1.0863,-1.0223,-0.8924,-0.8115,-0.7466,-0.7021,-0.5645,-0.4613,-0.4532,-0.4519,-0.4519,-0.4519,-0.4519,-0.4519,-0.4519,-0.4519,-0.4519,-0.4519,-0.4519,-0.4519,-0.4519,-0.4519,-0.4519,-0.4519,-0.4519,-0.4541,-0.4691,-0.4691,-0.4762,-1.8838,0.0,0.0,0.0,-2.0079,-2.0468,-2.1141,-2.1291,-2.1431,-2.1869,-2.2167,-2.2164,-2.1623,-2.1925,-2.2097,0.0,-2.1029,-2.0806,-2.0978,-1.9861,-1.8983,-1.8983,-1.8254,-1.7852,-1.8179,-1.7488,-1.7149,-1.7476,-1.7501,-1.7601,-1.7852,-1.8166,-1.8442,-1.8681,-1.8452,-1.7921,-1.7028,-1.6674,-1.6058,-1.5146,-1.5078,-1.5176,-1.54,-1.5156,-1.5176,-1.541,-1.541,-1.5557,-1.5781,-1.5713,-1.5723,-1.5722,-1.4666,-1.3882,-1.3252,-1.3252,-1.2528,-1.1521,-1.1703,-1.1587,-1.1423,-1.1423,-1.1543,-1.1683,-1.1683,-1.1804,-1.1937,-1.1937,-1.1937,-1.1937,-1.1937,-1.1937,-1.1864,-1.157,-1.1597,-1.1603,-1.1309,-1.1336,-1.1423,-1.1423,-1.147,-1.1483,-1.143,-1.1223,-1.0824,-1.02,-0.9182,-0.8232,-0.755,-0.6307,-0.5232,-0.4659,-0.457,-0.4556,-0.4585,-0.457,-0.4519,-0.4519,-0.4519,-0.4519,-0.4519,-0.4519,-0.4519,-0.4519,-0.4519,-0.4519,-0.4519,-0.4551,-0.4674,-0.4826,-0.4908,-0.503,-1.8961,0.0,0.0,-2.0212,-2.0842,-2.138,-2.1859,-2.2099,-2.2353,-2.2832,-2.2936,-2.2848,-2.2428,-2.2338,0.0,-2.1373,-2.079,-2.0426,-2.0426,-1.9497,-1.8695,-1.8593,-1.7727,-1.7363,-1.7928,-1.7476,-1.7375,-1.794,-1.7978,-1.8116,-1.8417,-1.8819,-1.9046,-1.9233,-1.8694,-1.8124,-1.7633,-1.6779,-1.6113,-1.5586,-1.5283,-1.5303,-1.5576,-1.5156,-1.5264,-1.5771,-1.5644,-1.584,-1.623,-1.6035,-1.6074,-1.6098,-1.4453,-1.3735,-1.3574,-1.3421,-1.235,-1.1156,-1.1443,-1.155,-1.1563,-1.1643,-1.1817,-1.1991,-1.1991,-1.2138,-1.2305,-1.2305,-1.2305,-1.2305,-1.2305,-1.2305,-1.2231,-1.1937,-1.1931,-1.1904,-1.161,-1.161,-1.1663,-1.1663,-1.1777,-1.183,-1.169,-1.153,-1.1356,-1.1142,-1.0219,-0.922,-0.8196,-0.6868,-0.5822,-0.5147,-0.4759,-0.4555,-0.4623,-0.458,-0.4519,-0.4519,-0.4519,-0.4519,-0.4519,-0.4519,-0.4519,-0.4519,-0.4519,-0.4519,-0.4519,-0.4616,-0.4769,-0.4921,-0.5064,-0.5189,0.0,0.0,-1.9278,-1.9647,-2.1186,-2.2622,-2.2679,-2.3116,-2.355,-2.3565,-2.3565,-2.3201,-2.196,-2.1724,-2.151,-2.0843,-2.0213,-1.9823,-1.9823,-1.8907,-1.8028,-1.7501,-1.6911,-1.6773,0.0,-1.6886,-1.6785,-1.7363,-1.74,-1.7877,-1.8895,-1.897,-1.9258,-1.9761,-1.8382,-1.7633,-1.7578,-1.6629,-1.6105,-1.6105,-1.6086,-1.6086,-1.6086,-1.5586,-1.5869,-1.667,-1.623,-1.6299,-1.6748,-1.7158,-1.708,-1.6612,-1.6046,-1.5089,-1.3983,-1.3317,-1.2346,-1.1456,-1.175,-1.1857,-1.1904,-1.2184,-1.2278,-1.2285,-1.2285,-1.2291,-1.2305,-1.2305,-1.2305,-1.2305,-1.2305,-1.2305,-1.2231,-1.1937,-1.2084,-1.2204,-1.1917,-1.2078,-1.2278,-1.2278,-1.2058,-1.1957,-1.2231,-1.1804,-1.1423,-1.1416,-1.1156,-1.0432,-0.9124,-0.7365,-0.6142,-0.5953,-0.5197,-0.4626,-0.4536,-0.4522,-0.4519,-0.4519,-0.4519,-0.4519,-0.4519,-0.4519,-0.4519,-0.4519,-0.4519,-0.4519,-0.4519,-0.4616,-0.4769,-0.4921,-0.5064,-0.5131,0.0,0.0,-2.0257,-2.1864,-2.2488,-2.2906,-2.3774,-2.3774,-2.349,-2.3071,-2.2637,-2.1928,-2.0599,-2.0074,-1.9632,-1.8986,-1.9128,-1.9158,-1.8794,-1.843,-1.8003,-1.7451,-1.7212,0.0,0.0,0.0,0.0,-1.8405,-1.848,-1.8781,-1.9497,-1.9547,-1.9623,-1.9798,-1.8666,-1.8069,-1.8069,-1.7052,-1.6514,-1.6504,-1.6211,-1.5908,-1.5635,-1.5781,-1.6006,-1.6299,-1.6445,-1.6758,-1.7129,-1.6689,-1.6768,-1.698,-1.5027,-1.4313,-1.415,-1.2557,-1.1716,-1.147,-1.1764,-1.187,-1.1884,-1.1984,-1.2144,-1.2305,-1.2305,-1.2305,-1.2305,-1.2305,-1.2305,-1.2305,-1.2305,-1.2305,-1.2278,-1.2178,-1.2231,-1.2278,-1.2178,-1.2231,-1.2305,-1.2305,-1.2225,-1.2184,-1.2285,-1.1977,-1.159,-1.1196,-1.0895,-1.0301,-0.9162,-0.8421,-0.7852,-0.722,-0.6199,-0.5562,-0.5623,-0.4911,-0.4519,-0.4519,-0.4519,-0.4519,-0.4519,-0.4519,-0.4519,-0.4519,-0.4519,-0.4519,-0.4519,-0.4718,-0.4867,-0.4925,-0.5169,-0.5284,0.0,-2.0887,-2.1583,-2.2915,-2.3505,-2.3819,-2.4178,-2.3924,-2.343,-2.2802,-2.1769,-2.0748,-1.9926,-1.9101,-1.8357,-1.7866,-1.8093,-1.8223,-1.7652,-1.7777,-1.7777,-1.7426,-1.7551,0.0,0.0,0.0,0.0,-1.8908,-1.8983,-1.9246,-1.9773,-1.9999,-2.0012,-1.9811,-1.9016,-1.8494,-1.8315,-1.7389,-1.6963,-1.6963,-1.6514,-1.6152,-1.5889,-1.6006,-1.6152,-1.6318,-1.6611,-1.6894,-1.7119,-1.6709,-1.6875,-1.7203,-1.4919,-1.4336,-1.4506,-1.2494,-1.1677,-1.161,-1.1804,-1.1797,-1.175,-1.1957,-1.2151,-1.2305,-1.2305,-1.2305,-1.2305,-1.2305,-1.2305,-1.2305,-1.2305,-1.2305,-1.2305,-1.2305,-1.2305,-1.2305,-1.2305,-1.2305,-1.2305,-1.2305,-1.2305,-1.2305,-1.2305,-1.1971,-1.155,-1.1062,-1.0748,-1.0362,-0.9662,-0.9327,-0.885,-0.8253,-0.724,-0.6601,-0.6538,-0.5616,-0.4957,-0.4846,-0.4625,-0.4519,-0.4519,-0.4519,-0.4519,-0.4519,-0.4519,-0.4519,-0.4519,-0.4714,-0.4867,-0.4925,-0.5165,-0.525,-2.0975,-2.2186,-2.3234,-2.2881,-2.4178,-2.5211,-2.3894,-2.358,-2.337,-2.2753,-2.1036,-1.9708,0.0,0.0,-1.7763,-1.7383,-1.7312,-1.7157,-1.6602,-1.7061,-1.7438,0.0,0.0,0.0,0.0,0.0,0.0,-1.912,0.0,-1.9271,-1.9823,-2.0363,-2.0426,-1.9899,-1.9389,-1.8862,-1.8393,-1.7716,-1.7402,-1.7373,-1.6963,-1.6738,-1.668,-1.6279,-1.6328,-1.6665,-1.6758,-1.6777,-1.6826,-1.7227,-1.7393,-1.7309,-1.5783,-1.5217,-1.495,-1.3077,-1.2177,-1.187,-1.187,-1.1683,-1.1536,-1.2098,-1.2291,-1.2305,-1.2305,-1.2305,-1.2305,-1.2305,-1.2305,-1.2305,-1.2305,-1.2305,-1.2305,-1.2305,-1.2305,-1.2305,-1.2305,-1.2305,-1.2305,-1.2305,-1.2305,-1.2305,-1.2305,-1.1824,-1.1356,-1.1082,-1.0775,-1.0645,-1.0624,-0.9849,-0.9301,-0.9106,-0.8298,-0.7617,-0.7198,-0.6449,-0.5897,-0.555,-0.4952,-0.457,-0.4625,-0.4519,-0.4519,-0.457,-0.4515,-0.4519,-0.4519,-0.4623,-0.4772,-0.4911,-0.506,-0.5053,-2.3093,-2.4092,-2.4806,-2.425,-2.4507,-2.4657,-2.3789,-2.3236,-2.2592,-2.1455,-2.0393,-1.9549,0.0,0.0,0.0,-1.7211,-1.761,0.0,-1.7251,-1.7639,0.0,0.0,0.0,-1.956,-1.9999,-2.0413,0.0,0.0,-1.9723,-1.9447,-2.0401,-2.0643,-2.079,-2.1054,-2.0099,-1.9532,-1.9421,-1.8404,-1.7695,-1.7383,-1.7275,-1.6875,-1.624,-1.6465,-1.6621,-1.6748,-1.708,-1.7393,-1.7666,-1.7471,-1.7568,-1.7687,-1.6274,-1.5541,-1.4988,-1.361,-1.2565,-1.187,-1.187,-1.1824,-1.1784,-1.1931,-1.2124,-1.2305,-1.2305,-1.2305,-1.2305,-1.2305,-1.2305,-1.2305,-1.2305,-1.2305,-1.2305,-1.2305,-1.2305,-1.2305,-1.2305,-1.2305,-1.2305,-1.2305,-1.2305,-1.2305,-1.2305,-1.1997,-1.173,-1.1657,-1.1209,-1.0808,-1.0651,-1.0428,-1.0275,-1.0197,-0.9126,-0.8356,-0.823,-0.714,-0.6425,-0.6312,-0.5655,-0.5492,-0.6041,-0.5062,-0.4732,-0.5218,-0.4732,-0.4519,-0.4519,-0.4731,-0.4823,-0.4755,-0.5009,-0.5053,-2.4858,-2.569,-2.6083,-2.4897,-2.4582,-2.4373,-2.3415,-2.2473,-2.1605,-2.0872,-1.9929,0.0,0.0,0.0,0.0,0.0,0.0,0.0,-1.7093,-1.7689,-1.8493,0.0,-2.0062,0.0,-2.0991,-2.1305,-2.1493,0.0,-2.0413,-2.0125,-2.0978,-2.1029,-2.1167,-2.1481,-2.0961,-2.029,-1.9617,-1.8339,-1.7705,-1.7656,-1.708,-1.665,-1.6357,-1.6416,-1.6338,-1.6191,0.0,-1.7119,-1.7168,-1.7324,-1.7519,-1.7658,-1.66,-1.5809,-1.5067,-1.3892,-1.2906,-1.2058,-1.2058,-1.2058,-1.2058,-1.2058,-1.2171,-1.2305,-1.2305,-1.2305,-1.2305,-1.2305,-1.2305,-1.2305,-1.2305,-1.2305,-1.2305,-1.2305,-1.2305,-1.2305,-1.2305,-1.2305,-1.2305,-1.2305,-1.2305,-1.2265,-1.2131,-1.1977,-1.1824,-1.1697,-1.1283,-1.0935,-1.0768,-1.0641,-1.0571,-1.0381,-0.9698,-0.9166,-0.8864,-0.7891,-0.7242,-0.7079,-0.6416,-0.6145,-0.6588,-0.5823,-0.5605,-0.5982,-0.5605,-0.5281,-0.4948,-0.5083,-0.4995,-0.4694,-0.486,-0.4894,-2.6292,-2.7004,-2.724,-2.5228,-2.4657,-2.4253,-2.2862,-2.1605,-2.0692,-2.0602,0.0,0.0,-1.957,0.0,-1.8529,-1.7655,0.0,-1.7258,-1.6893,-1.7622,-1.8656,-1.9874,-2.0891,-2.1543,-2.1694,-2.1707,-2.1707,-2.1707,-2.1192,-2.1091,-2.1568,-2.1594,-2.1575,-2.1524,-2.1656,-2.0939,-1.9204,-1.8011,-1.7539,-1.7832,-1.6748,-1.6377,-1.6631,-1.6299,-1.5947,-1.5625,0.0,0.0,-1.6439,-1.7148,-1.7471,-1.7434,-1.6999,-1.6219,-1.5305,-1.4243,-1.331,-1.2445,-1.2372,-1.2305,-1.2305,-1.2305,-1.2305,-1.2305,-1.2305,-1.2305,-1.2305,-1.2305,-1.2305,-1.2305,-1.2305,-1.2305,-1.2305,-1.2305,-1.2305,-1.2305,-1.2305,-1.2305,-1.2305,-1.2305,-1.2305,-1.2225,-1.1971,-1.1924,-1.1837,-1.1577,-1.1263,-1.1049,-1.1049,-1.0762,-1.0448,-1.0147,-1.008,-0.9833,-0.923,-0.8639,-0.8129,-0.7842,-0.7128,-0.6804,-0.6912,-0.6696,-0.6642,-0.675,-0.6673,-0.6356,-0.5686,-0.5711,-0.5466,-0.4865,-0.4861,-0.4793,-2.7031,-2.7962,-2.8468,-2.5951,-2.4982,-2.4104,-2.2293,-2.1261,0.0,0.0,0.0,-1.9555,-1.966,0.0,0.0,-1.8734,0.0,0.0,0.0,0.0,0.0,0.0,0.0,0.0,0.0,0.0,0.0,0.0,0.0,0.0,-2.2171,-2.2171,-2.208,-2.1849,-2.1209,-2.0134,-1.8732,-1.7851,-1.7236,-1.6953,-1.709,-1.6816,-1.6191,-1.6484,-1.6572,-1.6451,0.0,0.0,-1.7686,-1.7842,-1.79,-1.791,-1.7765,-1.7148,-1.621,-1.5305,-1.4307,-1.3382,-1.2592,-1.2305,-1.2305,-1.2305,-1.2305,-1.2305,-1.2305,-1.2305,-1.2305,-1.2305,-1.2305,-1.2305,-1.2305,-1.2305,-1.2305,-1.2305,-1.2305,-1.2305,-1.2305,-1.2305,-1.2305,-1.2305,-1.2305,-1.2285,-1.2238,-1.2225,-1.2204,-1.2158,-1.169,-1.1349,-1.1349,-1.0889,-1.0448,-1.0147,-0.99,-0.9619,-0.9216,-0.891,-0.8698,-0.8593,-0.7937,-0.7777,-0.8374,-0.7235,-0.6912,-0.7509,-0.7157,-0.6972,-0.6803,-0.6914,-0.6585,-0.578,-0.5661,-0.5243,-2.8125,-2.9001,-2.934,-2.7005,-2.547,-2.4109,-2.2446,0.0,0.0,0.0,0.0,-1.969,-1.969,0.0,0.0,0.0,0.0,0.0,0.0,0.0,0.0,0.0,0.0,0.0,0.0,0.0,0.0,0.0,0.0,0.0,-2.2736,-2.2736,-2.267,-2.2494,-2.129,-2.0287,-1.9661,-1.8182,-1.7393,-1.7393,-1.7158,-1.6943,-1.6748,-1.6738,-1.6665,-1.6685,-1.6973,0.0,-1.7705,-1.792,-1.8008,-1.8008,-1.8008,-1.7432,-1.6567,-1.607,-1.5296,-1.445,-1.3954,-1.3448,-1.3025,-1.3025,-1.2739,-1.2305,-1.2305,-1.2305,-1.2305,-1.2305,-1.2305,-1.2305,-1.2305,-1.2305,-1.2305,-1.2305,-1.2305,-1.2305,-1.2305,-1.2305,-1.2305,-1.2305,-1.2305,-1.2305,-1.2305,-1.2305,-1.2305,-1.2305,-1.1804,-1.1423,-1.1423,-1.0922,-1.045,-0.994,-0.9766,-0.9499,-0.9051,-0.8884,-0.8804,-0.8804,-0.848,-0.8427,-0.8804,-0.8103,-0.7883,-0.8268,-0.8063,-0.7796,-0.7411,-0.7466,-0.7069,-0.6304,-0.6244,-0.5972,-2.8721,-2.9468,-2.9633,-2.7712,-2.5758,-2.3911,-2.249,-2.0904,0.0,0.0,0.0,-1.969,-1.969,0.0,0.0,0.0,0.0,0.0,0.0,0.0,0.0,0.0,0.0,0.0,0.0,0.0,0.0,0.0,0.0,0.0,-2.3078,-2.3078,-2.3078,-2.3078,-2.1374,-2.0434,-2.0434,-1.8335,-1.7412,-1.7734,-1.7148,-1.7002,-1.7236,-1.6982,-1.6875,-1.6894,-1.7236,0.0,0.0,-1.7871,-1.8008,-1.8008,-1.8008,-1.7569,-1.6853,-1.6636,-1.614,-1.5438,-1.5234,-1.4522,-1.3673,-1.3673,-1.3098,-1.2305,-1.2305,-1.2305,-1.2305,-1.2305,-1.2305,-1.2305,-1.2305,-1.2351,-1.2412,-1.2478,-1.2398,-1.2338,-1.2472,-1.2445,-1.2398,-1.2398,-1.2398,-1.2378,-1.2311,-1.2305,-1.2305,-1.2305,-1.1857,-1.1496,-1.143,-1.0975,-1.0428,-0.984,-0.9719,-0.9472,-0.8945,-0.8844,-0.8804,-0.8804,-0.8804,-0.8804,-0.8804,-0.8804,-0.8804,-0.8804,-0.8871,-0.8624,-0.8021,-0.8021,-0.7643,-0.6931,-0.6885,-0.675,-2.7923,-2.8615,-2.8959,-2.7487,-2.5317,-2.3142,-2.1724,0.0,0.0,0.0,-1.969,-1.969,-1.969,-2.0198,0.0,0.0,0.0,0.0,0.0,0.0,0.0,0.0,0.0,0.0,0.0,0.0,0.0,0.0,0.0,0.0,0.0,-2.3078,-2.3078,-2.3078,-2.1084,-1.9969,-1.9969,-1.7862,-1.6753,-1.6792,-1.7168,-1.7139,-1.6807,-1.7158,-1.7324,-1.7324,0.0,0.0,0.0,-1.7988,-1.8008,-1.8008,-1.8008,-1.794,-1.7794,-1.6922,-1.6567,-1.6358,-1.5517,-1.4522,-1.3673,-1.3673,-1.3098,-1.2305,-1.2305,-1.2305,-1.2305,-1.2305,-1.2305,-1.2305,-1.2305,-1.2505,-1.2856,-1.306,-1.2705,-1.2452,-1.3006,-1.2906,-1.2782,-1.2782,-1.2782,-1.2694,-1.2351,-1.2305,-1.2305,-1.2305,-1.2031,-1.173,-1.1456,-1.1149,-1.0728,-1.014,-0.984,-0.9552,-0.917,-0.8958,-0.8804,-0.8804,-0.8804,-0.8804,-0.8804,-0.8804,-0.8804,-0.8804,-0.901,-0.9143,-0.9088,-0.9088,-0.8694,-0.807,-0.7726,-0.7235,-2.7029,-2.8087,-2.8712,-2.7222,-2.5579,-2.3974,-2.2488,0.0,0.0,-2.0054,-1.9874,-1.969,-1.969,-1.9914,-2.0004,0.0,0.0,0.0,0.0,0.0,0.0,0.0,0.0,0.0,0.0,0.0,0.0,0.0,0.0,0.0,0.0,-2.3078,-2.3078,-2.3078,-2.1786,-2.0715,-1.9913,-1.8828,-1.7875,-1.7129,-1.7559,-1.7666,-1.751,-1.7686,-1.7764,-1.7764,0.0,0.0,0.0,-1.8281,-1.8242,-1.8057,-1.8584,-1.8613,-1.8348,-1.8228,-1.8019,-1.7722,-1.7361,-1.6484,-1.5438,-1.5438,-1.4799,-1.381,-1.2659,-1.2305,-1.2305,-1.2305,-1.2305,-1.2345,-1.2525,-1.2799,-1.3013,-1.2946,-1.2746,-1.2585,-1.2652,-1.2565,-1.2478,-1.2478,-1.2478,-1.2445,-1.2325,-1.2305,-1.2305,-1.2305,-1.2058,-1.1764,-1.1463,-1.1176,-1.0835,-1.0428,-1.012,-0.9753,-0.9223,-0.9077,-0.8991,-0.8818,-0.8804,-0.8804,-0.8804,-0.8804,-0.8804,-0.8804,-0.8918,-0.8978,-0.8978,-0.8978,-0.8816,-0.854,-0.8425,-0.8209,-2.5896,-2.6996,-2.7672,-2.637,-2.5163,-2.3968,0.0,0.0,0.0,-2.0348,-2.0054,-1.9839,-1.9711,-1.9854,-1.9989,0.0,0.0,0.0,0.0,0.0,0.0,0.0,0.0,0.0,0.0,0.0,0.0,0.0,0.0,0.0,0.0,-2.3078,-2.3078,-2.3078,-2.2165,-2.1287,-2.0511,-1.9565,-1.8689,-1.7955,-1.7996,-1.8008,-1.8008,-1.8008,-1.8008,-1.8008,0.0,0.0,0.0,-1.833,-1.835,-1.8242,-1.8721,-1.8877,-1.8848,-1.9023,-1.8896,-1.8562,-1.8562,-1.7694,-1.6636,-1.6636,-1.593,-1.495,-1.3593,-1.2945,-1.2666,-1.2378,-1.2365,-1.2525,-1.2906,-1.3113,-1.32,-1.3153,-1.3091,-1.2872,-1.2839,-1.2692,-1.2572,-1.2572,-1.2498,-1.2405,-1.2318,-1.2305,-1.2305,-1.2305,-1.2131,-1.1891,-1.1597,-1.1303,-1.1009,-1.0722,-1.0428,-1.0047,-0.9489,-0.9283,-0.9097,-0.8945,-0.8851,-0.8844,-0.8931,-0.8851,-0.8844,-0.8931,-0.8851,-0.8804,-0.8804,-0.8804,-0.8804,-0.8804,-0.8804,-0.8804,-2.4523,-2.5067,-2.5456,-2.4726,-2.3625,-2.2549,0.0,0.0,-2.0862,-2.0382,-2.0314,-2.0193,-1.9782,-2.0243,-2.0707,0.0,0.0,0.0,0.0,0.0,0.0,0.0,0.0,0.0,0.0,0.0,0.0,0.0,0.0,0.0,0.0,-2.3078,-2.3078,-2.3078,-2.1861,-2.1403,-2.1865,-1.972,-1.8837,-1.9299,-1.8395,-1.8008,-1.8008,-1.8008,-1.8008,0.0,0.0,0.0,0.0,-1.8018,-1.8262,-1.8594,-1.8184,-1.8535,-1.9228,-1.8799,-1.8572,-1.8562,-1.8562,-1.7694,-1.6636,-1.6636,-1.593,-1.5234,-1.5163,-1.445,-1.3455,-1.2592,-1.2512,-1.2956,-1.348,-1.3427,-1.3353,-1.3941,-1.3627,-1.3367,-1.3941,-1.3614,-1.32,-1.32,-1.2953,-1.2721,-1.2351,-1.2305,-1.2305,-1.2305,-1.2298,-1.2191,-1.1904,-1.1603,-1.1309,-1.1015,-1.0728,-1.0434,-1.0134,-0.9515,-0.9183,-0.9183,-0.8965,-0.8938,-0.9163,-0.8958,-0.8938,-0.9176,-0.8958,-0.8804,-0.8804,-0.8804,-0.8804,-0.8804,-0.8804,-0.8804,-2.3748,-2.4272,-2.4661,-2.3917,-2.3456,-2.2996,-2.2245,0.0,-2.1275,-2.0862,-2.0516,-2.0193,-1.9782,-1.9869,-2.0004,-2.0004,0.0,0.0,0.0,0.0,0.0,0.0,0.0,0.0,0.0,0.0,0.0,0.0,0.0,0.0,0.0,-2.3078,-2.3078,-2.3078,-2.271,-2.2152,-2.1403,-2.0443,-1.9565,-1.8826,-1.8255,-1.8008,-1.8008,-1.8008,0.0,0.0,0.0,0.0,0.0,-1.832,-1.8516,-1.8682,-1.9131,-1.9473,-1.9697,-1.9561,-1.9512,-1.9424,-1.8838,-1.8325,-1.7942,-1.7665,-1.7364,-1.701,-1.6358,-1.5508,-1.4522,-1.352,-1.386,-1.436,-1.35,-1.3581,-1.3912,-1.4313,-1.3805,-1.3304,-1.3753,-1.3168,-1.2585,-1.2585,-1.2512,-1.2412,-1.2318,-1.2305,-1.2519,-1.3164,-1.2985,-1.2946,-1.3361,-1.3022,-1.2683,-1.2406,-1.2274,-1.1652,-1.0201,-0.9766,-0.9459,-0.9196,-0.9097,-0.909,-0.9183,-0.9345,-0.9352,-0.919,-0.9097,-0.9005,-0.8804,-0.8804,-0.8804,-0.8804,-0.8804,-0.8804,0.0,-2.3325,-2.3562,-2.3105,-2.2987,0.0,0.0,0.0,0.0,-2.1134,-2.0764,-2.0398,-1.9818,-1.969,-1.9854,0.0,0.0,0.0,0.0,0.0,0.0,0.0,0.0,0.0,0.0,0.0,0.0,0.0,0.0,0.0,0.0,0.0,-2.2865,-2.3065,-2.3078,-2.2722,-2.1945,-2.1389,-2.0687,-1.9816,-1.8899,-1.8462,-1.8462,-1.8144,0.0,0.0,0.0,0.0,0.0,-1.8467,-1.873,-1.8936,-1.9473,-1.9873,-2.0137,-1.9971,-1.9912,-1.9834,-1.9307,-1.9014,-1.8838,-1.8574,-1.8496,-1.8387,-1.7567,-1.6431,-1.5347,-1.5028,-1.5419,-1.5746,-1.4968,-1.5012,-1.5337,-1.5339,-1.4982,-1.4535,-1.459,-1.4007,-1.3557,-1.3557,-1.3455,-1.3375,-1.3375,-1.3375,-1.3593,-1.4171,-1.4064,-1.401,-1.4195,-1.3909,-1.3548,-1.3186,-1.3091,-1.2493,-1.1314,-1.0656,-1.0212,-1.0023,-0.9629,-0.9459,-0.9508,-0.9646,-0.9646,-0.9515,-0.9296,-0.9097,-0.8971,-0.8858,-0.8804,-0.8804,-0.8804,-0.8804,0.0,0.0,0.0,0.0,0.0,0.0,0.0,0.0,0.0,0.0,0.0,0.0,0.0,0.0,0.0,0.0,0.0,0.0,0.0,0.0,0.0,0.0,0.0,0.0,0.0,0.0,0.0,0.0,0.0,0.0,0.0,0.0,-2.2485,-2.294,-2.299,-2.3027,-2.3078,-2.2322,-2.1877,-2.1877,-2.0204,-1.9365,-1.9365,-1.8529,0.0,0.0,0.0,0.0,0.0,-1.8467,-1.8896,-1.9287,-1.9316,-1.9844,-2.0508,-2.0078,-1.9932,-1.9951,-1.9893,-1.9639,-1.9316,-1.9268,-1.9268,-1.9209,-1.8809,-1.7442,-1.6203,-1.6782,-1.7008,-1.7046,-1.721,-1.7317,-1.7235,-1.683,-1.6731,-1.6546,-1.616,-1.5815,-1.5585,-1.5585,-1.5386,-1.5234,-1.5234,-1.5234,-1.5226,-1.5263,-1.5246,-1.5096,-1.4653,-1.4363,-1.4005,-1.36,-1.333,-1.3183,-1.3183,-1.2067,-1.139,-1.139,-1.0486,-1.001,-1.0282,-0.9991,-0.9978,-1.0167,-0.9539,-0.9183,-0.9183,-0.8945,-0.8818,-0.8838,-0.8818,-0.8804,0.0,0.0,0.0,0.0,0.0,0.0,0.0,0.0,0.0,0.0,0.0,0.0,0.0,0.0,0.0,0.0,0.0,0.0,0.0,0.0,0.0,0.0,0.0,0.0,0.0,0.0,0.0,0.0,0.0,0.0,0.0,0.0,-2.1744,-2.187,-2.2284,-2.2711,-2.3125,-2.2322,-2.1877,-2.1877,-2.0782,-2.0268,-2.0268,-2.0074,0.0,0.0,0.0,0.0,-1.8047,-1.8467,-1.8896,-1.9316,-1.9639,-2.0098,-2.0508,-2.0078,-2.0127,-2.0322,-1.9658,-1.958,-1.9658,-1.9004,-1.9014,-1.9268,-1.916,-1.9053,-1.8742,-1.7863,-1.8035,-1.8276,-1.7271,-1.7119,-1.7338,-1.7464,-1.6902,-1.633,-1.641,-1.5845,-1.5287,-1.5287,-1.5221,-1.5234,-1.5234,-1.5234,-1.5345,-1.5676,-1.5446,-1.5391,-1.571,-1.536,-1.5059,-1.4956,-1.4862,-1.4815,-1.4815,-1.326,-1.2289,-1.2289,-1.2041,-1.1982,-1.2003,-1.1579,-1.1224,-1.1048,-0.9811,-0.9183,-0.9183,-0.8945,-0.8925,-0.9077,-0.8911,-0.8804,0.0,0.0,0.0,0.0,0.0,0.0,0.0,0.0,0.0,0.0,0.0,0.0,0.0,0.0,0.0,0.0,0.0,0.0,0.0,0.0,0.0,0.0,0.0,0.0,0.0,0.0,0.0,0.0,0.0,0.0,0.0,0.0,-2.123,-2.1481,-2.1531,-2.1945,-2.2749,-2.2578,-2.2445,-2.2445,-2.1616,-2.1175,-2.1175,-2.0782,0.0,0.0,0.0,0.0,-1.9229,-1.9412,-1.9697,-1.9887,-1.9885,-2.0059,-2.0215,-1.9785,-1.9893,-2.0195,-1.9736,-1.9853,-2.0068,-1.9209,-1.9355,-1.9795,-1.9404,-1.9717,-2.008,-1.9317,-1.9418,-1.9496,-1.852,-1.8351,-1.8446,-1.8453,-1.7989,-1.7586,-1.7549,-1.7138,-1.6722,-1.6542,-1.6507,-1.6507,-1.6507,-1.6363,-1.631,-1.657,-1.6188,-1.5977,-1.6113,-1.5859,-1.5635,-1.543,-1.541,-1.541,-1.541,-1.4492,-1.3722,-1.3371,-1.3017,-1.2779,-1.2779,-1.2469,-1.1964,-1.112,-1.0322,-0.9577,-0.9038,-0.9018,-0.9018,-0.9038,-0.8878,-0.8804,0.0,0.0,0.0,0.0,0.0,0.0,0.0,0.0,0.0,0.0,0.0,0.0,0.0,0.0,0.0,0.0,0.0,0.0,0.0,0.0,0.0,0.0,0.0,0.0,0.0,0.0,0.0,0.0,0.0,0.0,0.0,0.0,0.0,-2.1217,-2.092,-2.1117,-2.2046,-2.2686,-2.299,-2.3078,-2.2384,-2.2063,-2.2063,-2.129,-2.091,0.0,0.0,0.0,-2.0593,-2.0694,-2.0699,-2.0681,-2.0356,-2.0103,-1.9989,-1.9624,-1.9659,-1.9824,-1.9893,-2.0195,-2.0439,-1.9639,-1.9922,-2.04,-1.9551,-1.9844,-2.0469,-2.0469,-2.0508,-2.0478,-2.0107,-2.0019,-1.9902,-1.9482,-1.9385,-1.9248,-1.874,-1.8562,-1.8516,-1.8086,-1.8008,-1.7988,-1.793,-1.7617,-1.7334,-1.7197,-1.6865,-1.6465,-1.6016,-1.5957,-1.582,-1.5449,-1.541,-1.541,-1.541,-1.541,-1.5108,-1.4451,-1.3726,-1.3304,-1.3191,-1.3191,-1.2568,-1.1161,-1.1039,-1.0438,-0.9375,-0.9378,-0.9296,-0.9092,-0.8904,-0.8804,-2.2712,0.0,0.0,0.0,0.0,0.0,0.0,0.0,0.0,0.0,0.0,0.0,0.0,0.0,0.0,0.0,0.0,0.0,0.0,0.0,0.0,0.0,0.0,0.0,0.0,0.0,0.0,0.0,0.0,0.0,0.0,0.0,0.0,-2.0062,-2.0451,-2.0806,-2.097,-2.1933,-2.2673,-2.3078,-2.2944,-2.2944,-2.2884,-2.275,-2.231,0.0,0.0,-2.1302,-2.0635,-2.0997,-2.1084,-2.1129,-2.1487,-2.1122,-2.0493,-2.042,-1.9949,-1.9434,-1.9785,-2.0195,-2.0478,-1.998,-2.0156,-2.04,-1.9551,-1.9629,-2.0019,-2.0019,-2.0283,-2.0547,-2.0478,-2.0469,-2.0361,-1.9922,-1.9814,-1.96,-1.8809,-1.8562,-1.8516,-1.8086,-1.8008,-1.79,-1.7539,-1.7422,-1.7129,-1.6439,-1.6211,-1.6006,-1.5566,-1.5508,-1.5488,-1.542,-1.541,-1.541,-1.541,-1.541,-1.5352,-1.5235,-1.5108,-1.4756,-1.4025,-1.4025,-1.3466,-1.234,-1.2332,-1.2216,-1.1995,-1.0831,-1.0427,-1.0572,-0.9349,-0.8804,-2.3189,-2.2908,0.0,0.0,0.0,0.0,0.0,0.0,0.0,0.0,0.0,0.0,0.0,0.0,0.0,0.0,0.0,0.0,0.0,0.0,0.0,0.0,0.0,0.0,0.0,0.0,0.0,0.0,0.0,0.0,0.0,0.0,0.0,0.0,-2.0062,-2.0351,-2.0718,-2.1167,-2.1845,-2.2686,-2.2686,-2.2849,-2.3078,-2.3078,-2.2884,-2.2567,0.0,-2.231,-2.1963,-2.1899,-2.1901,-2.1858,-2.1632,-2.1316,-2.0906,-2.0906,-2.0861,-2.0765,-2.0904,-2.1523,-2.2072,-2.1281,-2.1534,-2.187,-2.0545,-2.0721,-2.1157,-1.9925,-1.9883,-2.0215,-2.0215,-2.0049,-1.9883,-1.9912,-1.9561,-1.918,-1.9023,-1.8799,-1.8516,-1.8086,-1.8008,-1.7949,-1.7754,-1.7529,-1.7168,-1.6523,-1.6221,-1.5908,-1.5469,-1.541,-1.541,-1.541,-1.541,-1.541,-1.541,-1.541,-1.541,-1.541,-1.541,-1.5225,-1.4874,-1.4657,-1.4105,-1.3292,-1.3168,-1.29,-1.2354,-1.1866,-1.1511,-1.1224,-1.0171,-0.9578,-2.3544,-2.3141,0.0,0.0,0.0,0.0,0.0,0.0,0.0,0.0,0.0,0.0,0.0,0.0,0.0,0.0,0.0,0.0,0.0,0.0,0.0,0.0,0.0,0.0,0.0,0.0,0.0,0.0,0.0,0.0,0.0,0.0,0.0,0.0,-1.9736,-2.0012,-2.0451,-2.0464,-2.1091,-2.2309,-2.2309,-2.2598,-2.3078,-2.3078,-2.3078,-2.3078,-2.3078,-2.3078,-2.3103,-2.2747,-2.2651,-2.2587,-2.1922,-2.1533,-2.1337,-2.1139,-2.1386,-2.1799,-2.1731,-2.238,-2.2994,-2.2358,-2.2581,-2.2911,-2.1663,-2.1778,-2.2033,-2.039,-2.007,-2.0136,-1.9811,-1.9531,-1.9365,-1.9697,-1.9268,-1.8857,-1.9082,-1.8867,-1.8516,-1.8086,-1.8008,-1.7978,-1.7881,-1.751,-1.708,-1.6641,-1.6191,-1.5791,-1.5459,-1.541,-1.541,-1.541,-1.541,-1.541,-1.541,-1.541,-1.541,-1.541,-1.541,-1.541,-1.541,-1.5107,-1.4696,-1.4174,-1.4059,-1.3618,-1.2854,-1.2892,-1.2581,-1.1993,-1.1126,-1.0539,-2.3305,-2.2972,0.0,0.0,0.0,0.0,0.0,0.0,0.0,0.0,0.0,0.0,0.0,0.0,0.0,0.0,0.0,0.0,0.0,0.0,0.0,0.0,0.0,0.0,0.0,0.0,0.0,0.0,0.0,0.0,0.0,0.0,0.0,0.0,0.0,-1.9823,-1.9861,-1.9861,-2.069,-2.2309,-2.2309,-2.2598,-2.3078,-2.3078,-2.3078,-2.3078,-2.3078,-2.3078,-2.3078,-2.3055,-2.3067,-2.3067,-2.3007,-2.2494,-2.1737,-2.0967,-2.0872,-2.1286,-2.123,-2.1575,-2.2087,-2.2536,-2.2332,-2.2098,-2.2629,-2.2056,-2.1364,-2.1718,-2.1461,-2.0845,-1.9643,-1.9307,-1.9297,-1.9326,-1.9287,-1.9141,-1.8769,-1.8592,-1.8516,-1.8086,-1.8008,-1.7881,-1.75,-1.707,-1.6631,-1.6182,-1.5732,-1.5449,-1.542,-1.541,-1.541,-1.541,-1.541,-1.541,-1.541,-1.541,-1.541,-1.541,-1.541,-1.541,-1.541,-1.5381,-1.5303,-1.5313,-1.5303,-1.5235,-1.5139,-1.4201,-1.3714,-1.3584,-1.2124,-1.1403,-2.3876,-2.3414,0.0,0.0,0.0,0.0,0.0,0.0,0.0,0.0,0.0,0.0,0.0,0.0,0.0,0.0,0.0,0.0,0.0,0.0,0.0,0.0,0.0,0.0,0.0,0.0,0.0,0.0,0.0,0.0,0.0,0.0,0.0,0.0,0.0,-1.9472,-1.9798,-1.9798,-2.03,-2.1292,-2.1292,-2.1581,-2.2121,-2.2472,-2.2623,-2.2636,-2.2987,-2.3078,-2.3053,-2.2761,-2.2623,-2.2623,-2.2623,-2.2446,-2.2174,-2.2128,-2.2525,-2.2871,-2.2522,-2.2979,-2.3688,-2.3568,-2.3604,-2.3622,-2.2948,-2.284,-2.2691,-2.1502,-2.1396,-2.1506,-2.1021,-2.0732,-2.0583,-2.0881,-2.0509,-2.0115,-2.0211,-2.002,-1.9831,-1.966,-1.9628,-1.9564,-1.9393,-1.877,-1.8189,-1.7728,-1.7096,-1.6543,-1.6269,-1.5986,-1.582,-1.582,-1.5566,-1.541,-1.541,-1.541,-1.541,-1.541,-1.541,-1.541,-1.541,-1.541,-1.541,-1.541,-1.541,-1.541,-1.541,-1.5013,-1.4687,-1.4364,-1.3113,-1.2474,-2.3917,-2.3459,0.0,0.0,0.0,0.0,0.0,0.0,0.0,0.0,0.0,0.0,0.0,0.0,0.0,0.0,0.0,0.0,0.0,0.0,0.0,0.0,0.0,0.0,0.0,0.0,0.0,0.0,0.0,0.0,0.0,0.0,0.0,0.0,0.0,-1.9108,-1.9798,-1.9635,-1.9836,-2.0441,-2.0441,-2.0778,-2.1506,-2.1882,-2.2046,-2.2071,-2.2447,-2.2611,-2.2585,-2.2209,-2.2046,-2.2046,-2.2046,-2.2159,-2.2359,-2.2736,-2.3238,-2.3665,-2.3215,-2.3578,-2.4255,-2.4067,-2.413,-2.4154,-2.3518,-2.354,-2.3418,-2.2048,-2.1945,-2.2294,-2.2278,-2.1672,-2.1096,-2.1442,-2.1006,-2.068,-2.0939,-2.0826,-2.059,-2.059,-2.059,-2.059,-2.059,-2.0008,-1.9351,-1.9082,-1.8427,-1.7861,-1.7554,-1.7287,-1.698,-1.6538,-1.5841,-1.541,-1.541,-1.541,-1.541,-1.541,-1.541,-1.541,-1.541,-1.541,-1.541,-1.541,-1.541,-1.541,-1.541,-1.541,-1.5264,-1.4971,-1.409,-1.3617,-2.33,0.0,0.0,0.0,0.0,0.0,0.0,0.0,0.0,0.0,0.0,0.0,0.0,0.0,0.0,0.0,0.0,0.0,0.0,0.0,0.0,0.0,0.0,0.0,0.0,0.0,0.0,0.0,0.0,0.0,0.0,0.0,0.0,0.0,0.0,0.0,-1.9773,-1.9284,-1.9284,-1.9786,-1.9786,-2.0376,-2.1468,-2.1481,-2.1481,-2.1481,-2.1493,-2.1493,-2.1493,-2.1481,-2.1481,-2.1468,-2.1481,-2.182,-2.2297,-2.2309,-2.2661,-2.3078,-2.3078,-2.3078,-2.3226,-2.3803,-2.3602,-2.3278,-2.4469,-2.4029,-2.319,-2.3828,-2.3577,-2.3078,-2.3078,-2.1865,-2.0655,-2.0655,-2.0655,-2.0655,-2.0655,-2.0655,-2.0655,-2.0655,-2.0655,-2.0655,-2.0655,-2.0239,-1.9913,-1.9913,-1.9569,-1.9324,-1.9313,-1.9313,-1.8814,-1.7557,-1.6242,-1.541,-1.541,-1.541,-1.541,-1.541,-1.541,-1.541,-1.541,-1.541,-1.541,-1.541,-1.541,-1.541,-1.541,-1.541,-1.541,-1.54,-1.498,-1.4785,-2.3917,0.0,0.0,0.0,0.0,0.0,0.0,0.0,0.0,0.0,0.0,0.0,0.0,0.0,0.0,0.0,0.0,0.0,0.0,0.0,0.0,0.0,0.0,0.0,0.0,0.0,0.0,0.0,0.0,0.0,0.0,0.0,0.0,0.0,0.0,0.0,-1.8668,-1.853,-1.853,-1.8681,-1.8681,-1.9246,-2.0313,-2.0727,-2.097,-2.0983,-2.133,-2.1493,-2.1455,-2.1066,-2.0677,-2.0376,-2.1179,-2.1594,-2.1832,-2.2611,-2.2927,-2.3078,-2.3078,-2.3078,-2.3103,-2.3339,-2.3276,-2.3128,-2.3466,-2.3341,-2.3115,-2.3339,-2.3263,-2.3078,-2.3078,-2.275,-2.2372,-2.2372,-2.2372,-2.2372,-2.2372,-2.2372,-2.2372,-2.2372,-2.2372,-2.2372,-2.2372,-2.1796,-2.1331,-2.1331,-2.0694,-2.0093,-1.9733,-1.9385,-1.8932,-1.8267,-1.7429,-1.6968,-1.6968,-1.6968,-1.6968,-1.6968,-1.6482,-1.5921,-1.541,-1.541,-1.541,-1.541,-1.541,-1.541,-1.541,-1.541,-1.541,-1.54,-1.498,-1.4941,0.0,0.0,0.0,0.0,0.0,0.0,0.0,0.0,0.0,0.0,0.0,0.0,0.0,0.0,0.0,0.0,0.0,0.0,0.0,0.0,0.0,0.0,0.0,0.0,0.0,0.0,0.0,0.0,0.0,0.0,0.0,0.0,0.0,0.0,0.0,0.0,-1.8508,-1.8494,-1.8494,-1.8508,-1.8508,-1.8968,-1.9787,-1.9952,-2.0125,-2.0338,-2.0677,-2.0815,-2.079,-2.0464,-2.0112,-1.9874,-2.0552,-2.1091,-2.1543,-2.1995,-2.2435,-2.2811,-2.2811,-2.2811,-2.2849,-2.3002,-2.3078,-2.3078,-2.3078,-2.2975,-2.2862,-2.3015,-2.2975,-2.2862,-2.3015,-2.3078,-2.3078,-2.3078,-2.3078,-2.3078,-2.3078,-2.3078,-2.3078,-2.3078,-2.3078,-2.3078,-2.3078,-2.2702,-2.2384,-2.2384,-2.1928,-2.1487,-2.1242,-2.0261,-1.9529,-1.9298,-1.8272,-1.7578,-1.7578,-1.7578,-1.7578,-1.7578,-1.7191,-1.6754,-1.6301,-1.569,-1.541,-1.541,-1.541,-1.541,-1.541,-1.541,-1.541,-1.54,-1.5146,-1.5176,0.0,0.0,0.0,0.0,0.0,0.0,0.0,0.0,0.0,0.0,0.0,0.0,0.0,0.0,0.0,0.0,0.0,0.0,0.0,0.0,0.0,0.0,0.0,0.0,0.0,0.0,0.0,0.0,0.0,0.0,0.0,0.0,0.0,0.0,0.0,0.0,-1.8909,-1.8872,-1.8872,0.0,-1.8922,-1.9179,-1.9651,-1.9215,-1.9309,-1.9798,-1.9748,-1.9736,-1.9723,-1.9673,-1.9685,-1.9736,-1.9786,-2.0464,-2.1355,-2.0903,-2.138,-2.2234,-2.2234,-2.2234,-2.2322,-2.2824,-2.2927,-2.2927,-2.2927,-2.2636,-2.2347,-2.2849,-2.2623,-2.2347,-2.2862,-2.2927,-2.3,-2.305,-2.304,-2.3078,-2.3078,-2.3078,-2.3078,-2.3078,-2.3078,-2.309,-2.314,-2.3115,-2.3078,-2.3078,-2.3078,-2.3078,-2.3078,-2.1602,-2.0541,-2.0493,-1.8948,-1.7843,-1.7797,-1.7786,-1.7786,-1.7786,-1.7743,-1.7688,-1.7688,-1.6358,-1.5584,-1.5526,-1.5526,-1.5468,-1.541,-1.541,-1.541,-1.541,-1.541,-1.541,0.0,0.0,0.0,0.0,0.0,0.0,0.0,0.0,0.0,0.0,0.0,0.0,0.0,0.0,0.0,0.0,0.0,0.0,0.0,0.0,0.0,0.0,0.0,0.0,0.0,0.0,0.0,0.0,0.0,0.0,0.0,0.0,0.0,0.0,0.0,-1.8584,-1.829,-1.8274,-1.8288,0.0,-1.829,-1.8367,-1.8529,-1.8859,-1.9309,-1.9773,-1.9371,-1.9196,-1.9158,-1.8731,-1.8807,-1.9233,-1.9648,-2.0225,-2.0932,-2.1192,-2.1455,-2.1669,-2.1669,-2.1669,-2.1681,-2.1807,-2.1845,-2.1845,-2.1845,-2.1757,-2.1694,-2.1807,-2.1757,-2.1694,-2.1807,-2.1845,-2.1945,-2.2385,-2.2824,-2.3078,-2.3078,-2.3078,-2.3078,-2.3078,-2.3078,-2.3215,-2.3728,-2.3439,-2.3078,-2.3078,-2.3078,-2.3078,-2.3078,-2.2359,-2.1728,-2.1294,-2.0538,-1.9851,-1.9356,-1.9307,-1.9307,-1.9307,-1.8768,-1.8436,-1.8436,-1.7622,-1.6856,-1.6255,-1.6265,-1.5979,-1.541,-1.541,-1.541,-1.541,-1.541,-1.541,0.0,0.0,0.0,0.0,0.0,0.0,0.0,0.0,0.0,0.0,0.0,0.0,0.0,0.0,0.0,0.0,0.0,0.0,0.0,0.0,0.0,0.0,0.0,0.0,0.0,0.0,0.0,0.0,0.0,0.0,0.0,0.0,0.0,0.0,-1.9281,-1.9043,-1.8496,-1.8727,-1.8727,-1.8496,-1.8496,-1.8504,-1.8567,-1.8858,-1.9477,-2.0237,-1.9365,-1.899,-1.899,-1.9059,-1.9227,-1.9584,-2.0398,-2.1075,-2.1615,-2.1628,-2.176,-2.2009,-2.2009,-2.181,-2.1648,-2.223,-2.2213,-2.1953,-2.1953,-2.1761,-2.1565,-2.1516,-2.1305,-2.1154,-2.1418,-2.1681,-2.1958,-2.2246,-2.2535,-2.2811,-2.3015,-2.3078,-2.3078,-2.3078,-2.3078,-2.3226,-2.3527,-2.3339,-2.3078,-2.3078,-2.3078,-2.3037,-2.2774,-2.2485,-2.1995,-2.1179,-2.0894,-2.0439,-1.9849,-1.9798,-1.9798,-1.9798,-1.9423,-1.9202,-1.9202,-1.8886,-1.8124,-1.7034,-1.7034,-1.6866,-1.6461,-1.6083,-1.5921,-1.5921,-1.5584,-1.541,0.0,0.0,0.0,0.0,0.0,0.0,0.0,0.0,0.0,0.0,0.0,0.0,0.0,0.0,0.0,0.0,0.0,0.0,0.0,0.0,0.0,0.0,0.0,0.0,0.0,0.0,0.0,0.0,0.0,0.0,0.0,0.0,-1.969,-1.969,-1.969,-1.9479,-1.9043,-1.9479,-1.9479,-1.9043,-1.893,-1.9016,-1.9196,-1.906,-1.9584,-2.057,-1.9476,-1.8967,-1.9038,-1.9455,-1.9727,-1.992,-2.0986,-2.1779,-2.2242,-2.1862,-2.2042,-2.2435,-2.2435,-2.2088,-2.1779,-2.276,-2.2717,-2.226,-2.226,-2.1981,-2.16,-2.1529,-2.1217,-2.0974,-2.1434,-2.1839,-2.2247,-2.228,-2.2331,-2.245,-2.3,-2.3078,-2.3078,-2.3078,-2.3153,-2.319,-2.309,-2.3165,-2.3251,-2.309,-2.3078,-2.2937,-2.2385,-2.2397,-2.1995,-2.079,-2.0806,-2.0539,-1.9861,-1.9798,-1.9798,-1.9798,-1.9798,-1.9798,-1.9798,-1.9798,-1.9202,-1.8015,-1.7841,-1.7743,-1.7578,-1.6978,-1.6708,-1.6652,-1.6083,-1.569,0.0,0.0,0.0,0.0,0.0,0.0,0.0,0.0,0.0,0.0,0.0,0.0,0.0,0.0,0.0,0.0,0.0,0.0,0.0,0.0,0.0,0.0,0.0,0.0,0.0,0.0,0.0,0.0,0.0,0.0,0.0,-1.969,-1.969,-1.969,-1.969,-1.969,-1.9603,-1.9639,-1.9639,-1.9603,-1.9132,-1.9444,-2.0433,-1.9368,-1.9263,-1.9908,-1.9234,-1.8918,-1.8877,-1.8522,-1.8604,-1.9138,-1.9858,-2.0536,-2.1098,-2.1545,-2.1752,-2.1821,-2.1821,-2.1773,-2.1691,-2.187,-2.1849,-2.1801,-2.1801,-2.1746,-2.1691,-2.1691,-2.1601,-2.1561,-2.1642,-2.1724,-2.1903,-2.2285,-2.2372,-2.2519,-2.3031,-2.3078,-2.3078,-2.3078,-2.354,-2.3715,-2.3165,-2.3552,-2.3715,-2.3153,-2.3078,-2.2937,-2.2385,-2.2736,-2.2422,-2.084,-2.1091,-2.0953,-1.9899,-1.9798,-1.9798,-1.9798,-1.9798,-1.9798,-1.9798,-1.9798,-1.9695,-1.9527,-1.8874,-1.8232,-1.7578,-1.7523,-1.7468,-1.7468,-1.7357,-1.6968,0.0,0.0,0.0,0.0,0.0,0.0,0.0,0.0,0.0,0.0,0.0,0.0,0.0,0.0,0.0,0.0,0.0,0.0,0.0,0.0,0.0,0.0,0.0,0.0,0.0,0.0,0.0,0.0,0.0,0.0,-1.9711,-1.969,-1.969,-1.969,-1.969,-1.969,-1.969,-1.969,-1.969,-1.969,-1.9442,-1.9642,-2.0124,-1.959,-1.9695,-2.0261,-1.9308,-1.8906,-1.8906,-1.9044,-1.9242,-1.9553,-2.0508,-2.1281,-2.1888,-2.2149,-2.2452,-2.2741,-2.2741,-2.256,-2.2346,-2.2651,-2.2515,-2.2253,-2.2253,-2.2253,-2.2193,-2.1805,-2.1697,-2.1697,-2.1697,-2.1959,-2.2275,-2.2471,-2.2746,-2.3111,-2.3692,-2.3463,-2.3078,-2.3078,-2.3339,-2.3439,-2.3175,-2.3339,-2.3427,-2.3115,-2.3078,-2.2937,-2.2385,-2.2799,-2.2498,-2.0894,-2.1154,-2.1029,-1.9899,-1.9798,-1.9798,-1.9798,-1.9798,-1.9798,-1.9798,-1.9798,-1.9798,-1.9798,-1.9475,-1.915,-1.8821,-1.8447,-1.8232,-1.8232,-1.7797,-1.7413,0.0,0.0,0.0,0.0,0.0,0.0,0.0,0.0,0.0,0.0,0.0,0.0,0.0,0.0,0.0,0.0,0.0,0.0,0.0,0.0,0.0,0.0,0.0,0.0,0.0,0.0,0.0,0.0,0.0,0.0,-1.9874,-1.9747,-1.969,-1.969,-1.969,-1.969,-1.969,-1.969,-1.969,-1.969,-1.969,-1.969,-1.969,-1.969,-1.9974,-2.0385,-1.9501,-1.9095,-1.9124,-1.9633,-1.9837,-1.9948,-2.1015,-2.1844,-2.2484,-2.2664,-2.2966,-2.3385,-2.355,-2.3186,-2.2805,-2.3405,-2.329,-2.2934,-2.2934,-2.2934,-2.2815,-2.2317,-2.2179,-2.2179,-2.2179,-2.2531,-2.2845,-2.2804,-2.3256,-2.3816,-2.4321,-2.39,-2.3424,-2.3424,-2.3245,-2.3078,-2.3078,-2.3078,-2.3078,-2.3078,-2.2952,-2.2774,-2.2359,-2.2548,-2.2184,-2.0869,-2.1041,-2.0878,-1.9886,-1.9798,-1.9798,-1.9798,-1.9798,-1.9798,-1.9798,-1.9798,-1.9798,-1.9798,-1.9798,-1.9798,-1.9798,-1.9254,-1.8992,-1.8992,-1.8447,-1.807,0.0,0.0,0.0,0.0,0.0,0.0,0.0,0.0,0.0,0.0,0.0,0.0,0.0,0.0,0.0,0.0,0.0,0.0,0.0,0.0,0.0,0.0,0.0,0.0,0.0,0.0,0.0,0.0,0.0,0.0,-2.028,-1.9909,-1.969,-1.969,-1.969,-1.969,-1.969,-1.969,-1.969,-1.969,-1.969,-1.969,-1.969,-1.969,-1.9705,-1.9735,-1.9705,-1.9639,-1.9639,-1.9683,-1.9698,-1.9773,-2.0498,-2.1171,-2.1814,-2.2484,-2.2739,-2.2843,-2.3385,-2.3206,-2.2817,-2.34,-2.3595,-2.3551,-2.3551,-2.3551,-2.3551,-2.3508,-2.3508,-2.3508,-2.3508,-2.3523,-2.3526,-2.3486,-2.396,-2.444,-2.4426,-2.4294,-2.4234,-2.4234,-2.359,-2.3078,-2.3078,-2.3078,-2.3078,-2.3078,-2.2686,-2.2347,-2.2309,-2.1882,-2.1343,-2.0781,-2.0743,-2.0464,-1.9849,-1.9798,-1.9798,-1.9798,-1.9798,-1.9798,-1.9798,-1.9798,-1.9798,-1.9798,-1.9798,-1.9798,-1.9798,-1.9747,-1.9747,-1.9747,-1.9695,-1.9319,0.0,0.0,0.0,0.0,0.0,0.0,0.0,0.0,0.0,0.0,0.0,0.0,0.0,0.0,0.0,0.0,0.0,0.0,0.0,0.0,0.0,0.0,0.0,0.0,0.0,0.0,0.0,0.0,0.0,0.0,-2.0748,-2.033,-2.0089,-2.0089,-1.9839,-1.969,-1.969,-1.969,-1.969,-1.969,-1.969,-1.969,-1.969,-1.969,-1.969,-1.969,-1.969,-1.969,-1.969,-1.969,-1.969,-1.9705,-1.9959,-2.0722,-2.1724,-2.1964,-2.2308,-2.2813,-2.3385,-2.3191,-2.2787,-2.34,-2.3595,-2.3595,-2.3595,-2.3595,-2.3595,-2.3595,-2.3595,-2.3595,-2.3595,-2.3595,-2.3611,-2.357,-2.441,-2.5202,-2.5179,-2.5107,-2.5007,-2.5007,-2.4402,-2.391,-2.391,-2.3529,-2.3199,-2.3199,-2.3005,-2.2836,-2.2836,-2.2359,-2.1807,-2.1255,-2.0932,-2.063,-2.0376,-2.0012,-1.9962,-2.0326,-2.0012,-1.9798,-1.9798,-1.9798,-1.9798,-1.9798,-1.9798,-1.9798,-1.9798,-1.9798,-1.9798,-1.9798,-1.9798,-1.9895,0.0,0.0,0.0,0.0,0.0,0.0,0.0,0.0,0.0,0.0,0.0,0.0,0.0,0.0,0.0,0.0,0.0,0.0,0.0,0.0,0.0,0.0,0.0,0.0,0.0,0.0,0.0,0.0,0.0,0.0,-2.1213,-2.0781,-2.0449,-2.0299,-1.9909,-1.969,-1.969,-1.969,-1.969,-1.969,-1.969,-1.969,-1.969,-1.969,-1.969,-1.969,-1.969,-1.969,-1.969,-1.969,-1.969,-1.969,-1.969,-2.0378,-2.1395,-2.162,-2.1979,-2.2458,-2.331,-2.3191,-2.2787,-2.34,-2.3595,-2.3595,-2.3595,-2.3595,-2.3595,-2.3595,-2.3595,-2.3595,-2.3595,-2.3774,-2.3939,-2.3939,-2.4807,-2.5615,-2.5615,-2.5705,-2.5727,-2.5448,-2.4896,-2.4336,-2.4077,-2.3676,-2.3418,-2.3619,-2.3441,-2.3264,-2.3224,-2.2585,-2.1873,-2.131,-2.0702,-2.0376,-2.0376,-2.0024,-1.9962,-2.0351,-2.0012,-1.9798,-1.9798,-1.9798,-1.9798,-1.9798,-1.9798,-1.9798,-1.9798,-1.9798,-1.9899,-2.0087,-2.0087,-2.0388,0.0,0.0,0.0,0.0,0.0,0.0,0.0,0.0,0.0,0.0,0.0,0.0,0.0,0.0,0.0,0.0,0.0,0.0,0.0,0.0,0.0,0.0,0.0,0.0,0.0,0.0,0.0,0.0,0.0,-2.1612,-2.1612,-2.1213,-2.0797,-2.0314,-1.9909,-1.9711,-1.969,-1.9726,-1.9726,-1.9711,-1.9726,-1.9726,-1.9711,-1.9711,-1.9711,-1.969,-1.9711,-1.9711,-1.9711,-1.9711,-1.969,-1.969,-1.969,-2.0109,-2.0797,-2.1455,-2.1695,-2.1874,-2.3161,-2.3191,-2.2787,-2.34,-2.3595,-2.3595,-2.3595,-2.3595,-2.3595,-2.3595,-2.3595,-2.3595,-2.3595,-2.4088,-2.4552,-2.4552,-2.5091,-2.5585,-2.5615,-2.6044,-2.6265,-2.5617,-2.4892,-2.421,-2.3578,-2.3417,-2.3623,-2.4254,-2.3934,-2.3535,-2.34,-2.2472,-2.1563,-2.0813,-2.019,-1.985,-1.9875,-1.9862,-1.985,-1.9875,-1.9862,-1.985,-1.985,-1.985,-1.985,-1.985,-1.9798,-1.9798,-1.9798,-1.9823,-2.0112,-2.0718,-2.0756,-2.1004,-2.5214,0.0,0.0,0.0,0.0,0.0,0.0,0.0,0.0,0.0,0.0,0.0,0.0,0.0,0.0,0.0,0.0,0.0,0.0,0.0,0.0,0.0,0.0,0.0,0.0,0.0,0.0,0.0,-2.218,-2.2106,-2.2106,-2.1385,-2.0797,-2.0314,-2.0177,-2.0,-1.969,-2.0345,-2.0465,-2.0158,-2.0465,-2.0465,-2.0124,-2.0124,-1.9965,-1.9726,-2.0,-2.0124,-2.0124,-1.9818,-1.969,-1.969,-1.969,-2.0109,-2.0797,-2.1455,-2.1695,-2.1874,-2.3161,-2.3191,-2.2787,-2.34,-2.3595,-2.3595,-2.3595,-2.3595,-2.3595,-2.3595,-2.3595,-2.3595,-2.3595,-2.3744,-2.3879,-2.3879,-2.4403,-2.5031,-2.551,-2.5741,-2.579,-2.5612,-2.5041,-2.4502,-2.4279,-2.3856,-2.356,-2.373,-2.3585,-2.3461,-2.3416,-2.2828,-2.2301,-2.2113,-2.1547,-2.1358,-2.1816,-2.1439,-2.1372,-2.183,-2.1426,-2.1183,-2.1183,-2.0782,-2.0497,-2.0497,-2.0055,-1.9798,-1.9798,-2.0225,-2.0567,-2.0743,-2.1481,-2.1945,0.0,0.0,0.0,0.0,0.0,0.0,0.0,-2.4559,0.0,0.0,0.0,0.0,0.0,0.0,0.0,0.0,0.0,0.0,0.0,0.0,0.0,0.0,0.0,0.0,0.0,0.0,0.0,0.0,-2.231,-2.231,-2.231,-2.1645,-2.1102,-2.083,-2.0682,-2.0499,-2.0243,-2.0731,-2.0862,-2.0583,-2.0862,-2.0862,-2.0583,-2.0583,-2.0465,-2.0243,-2.0499,-2.0583,-2.0583,-2.033,-2.0243,-2.0243,-2.0243,-2.0489,-2.0947,-2.1901,-2.2255,-2.2409,-2.3456,-2.3641,-2.3431,-2.344,-2.3541,-2.3595,-2.3595,-2.3595,-2.3595,-2.3595,-2.3595,-2.3595,-2.3595,-2.3819,-2.3954,-2.367,-2.4118,-2.4612,-2.4747,-2.4777,-2.4941,-2.5495,-2.5076,-2.4492,-2.4253,-2.3806,-2.3666,-2.3944,-2.3947,-2.3836,-2.3575,-2.3266,-2.2846,-2.2277,-2.1917,-2.1848,-2.2173,-2.1904,-2.1973,-2.2608,-2.2304,-2.2256,-2.2505,-2.1901,-2.1572,-2.1572,-2.0629,-2.0275,-2.0501,-2.0614,-2.0903,-2.138,-2.2246,-2.2661,0.0,0.0,0.0,0.0,0.0,0.0,-2.4855,-2.4682,-2.4493,0.0,0.0,0.0,0.0,0.0,0.0,0.0,0.0,0.0,0.0,0.0,0.0,0.0,0.0,0.0,0.0,0.0,-2.231,-2.231,-2.231,-2.231,-2.231,-2.1853,-2.1582,-2.1582,-2.1244,-2.1055,-2.0991,-2.1103,-2.1134,-2.1055,-2.1134,-2.1134,-2.1055,-2.1055,-2.1023,-2.0991,-2.1055,-2.1055,-2.1055,-2.1134,-2.1103,-2.0991,-2.0991,-2.0991,-2.1167,-2.2495,-2.2991,-2.3067,-2.385,-2.4216,-2.4269,-2.3584,-2.358,-2.3736,-2.3586,-2.3586,-2.3646,-2.3646,-2.3664,-2.3681,-2.3681,-2.4103,-2.4358,-2.3744,-2.4073,-2.4373,-2.3819,-2.3655,-2.3969,-2.5255,-2.4971,-2.4313,-2.3699,-2.3595,-2.3804,-2.4373,-2.4462,-2.4312,-2.3778,-2.3685,-2.3252,-2.2049,-2.1885,-2.1885,-2.1885,-2.2002,-2.2295,-2.2867,-2.2951,-2.3294,-2.389,-2.3237,-2.283,-2.283,-2.1572,-2.118,-2.168,-2.1134,-2.138,-2.2422,-2.2912,-2.3078,0.0,0.0,0.0,0.0,0.0,0.0,-2.4998,-2.4937,-2.4858,0.0,0.0,0.0,0.0,0.0,0.0,0.0,0.0,0.0,0.0,0.0,0.0,0.0,0.0,0.0,0.0,0.0,-2.231,-2.231,-2.231,-2.231,-2.231,-2.1853,-2.1582,-2.1582,-2.1521,-2.1337,-2.0991,-2.1691,-2.1869,-2.1491,-2.1869,-2.184,-2.1491,-2.1491,-2.1306,-2.1023,-2.1337,-2.1491,-2.1491,-2.1869,-2.1615,-2.0991,-2.0991,-2.0991,-2.1103,-2.1901,-2.2221,-2.2412,-2.3674,-2.4143,-2.4147,-2.3983,-2.4395,-2.4665,-2.3463,-2.3547,-2.4011,-2.4011,-2.4131,-2.4225,-2.4225,-2.4013,-2.3759,-2.3625,-2.3699,-2.3924,-2.4343,-2.3984,-2.3849,-2.4657,-2.4268,-2.3759,-2.3625,-2.3595,-2.364,-2.3789,-2.3804,-2.3746,-2.3614,-2.3614,-2.3511,-2.3275,-2.3216,-2.3216,-2.3216,-2.3717,-2.4101,-2.4218,-2.472,-2.5106,-2.5239,-2.463,-2.4269,-2.4269,-2.292,-2.2481,-2.3057,-2.2305,-2.2334,-2.2975,-2.3027,-2.3078,0.0,0.0,0.0,-2.5303,0.0,0.0,0.0,-2.501,-2.4962,0.0,0.0,0.0,0.0,0.0,0.0,0.0,0.0,0.0,0.0,0.0,0.0,0.0,0.0,0.0,0.0,0.0,-2.231,-2.231,-2.231,-2.231,-2.231,-2.2077,-2.1957,-2.1957,-2.1957,-2.184,-2.1661,-2.2077,-2.218,-2.1957,-2.218,-2.218,-2.1957,-2.1957,-2.184,-2.1661,-2.1869,-2.1957,-2.1974,-2.2209,-2.2049,-2.1661,-2.1661,-2.1661,-2.1744,-2.2452,-2.2684,-2.2783,-2.3523,-2.3831,-2.3835,-2.346,-2.369,-2.3957,-2.3235,-2.3506,-2.4084,-2.4084,-2.4426,-2.4776,-2.4776,-2.4592,-2.4307,-2.4074,-2.3991,-2.4013,-2.4088,-2.3849,-2.3699,-2.4044,-2.3834,-2.3595,-2.3595,-2.3595,-2.3595,-2.3595,-2.3595,-2.3595,-2.3595,-2.3595,-2.3595,-2.3595,-2.3595,-2.3595,-2.3595,-2.4223,-2.4716,-2.5091,-2.5734,-2.6243,-2.6572,-2.595,-2.5271,-2.4637,-2.42,-2.3987,-2.3974,-2.391,-2.3586,-2.3078,-2.3078,-2.3078,0.0,0.0,0.0,0.0,0.0,-2.5264,0.0,0.0,0.0,-2.491,0.0,0.0,0.0,0.0,0.0,0.0,0.0,0.0,0.0,0.0,0.0,0.0,0.0,0.0,0.0,0.0,-2.231,-2.231,-2.231,-2.231,-2.231,-2.231,-2.231,-2.231,-2.231,-2.231,-2.231,-2.231,-2.231,-2.231,-2.231,-2.231,-2.231,-2.231,-2.231,-2.231,-2.231,-2.231,-2.231,-2.231,-2.231,-2.231,-2.231,-2.231,-2.2378,-2.297,-2.319,-2.3207,-2.3342,-2.3505,-2.3522,-2.296,-2.2785,-2.2889,-2.3034,-2.3487,-2.3974,-2.3974,-2.4519,-2.5126,-2.5126,-2.5147,-2.5105,-2.4672,-2.4552,-2.443,-2.3991,-2.3921,-2.3921,-2.3921,-2.3837,-2.3709,-2.3595,-2.3595,-2.3595,-2.3595,-2.3595,-2.3595,-2.3595,-2.3595,-2.3595,-2.3595,-2.3595,-2.3595,-2.3595,-2.4223,-2.4911,-2.557,-2.6228,-2.6886,-2.7595,-2.7034,-2.6184,-2.5117,-2.5462,-2.5368,-2.4905,-2.5204,-2.4781,-2.3531,-2.3531,-2.3471,0.0,0.0,0.0,0.0,-2.5303,0.0,0.0,0.0,-2.5264,-2.5243,0.0,0.0,0.0,0.0,0.0,0.0,0.0,0.0,0.0,0.0,0.0,0.0,0.0,0.0,0.0,0.0,0.0,-2.231,-2.231,-2.231,-2.231,-2.231,-2.231,-2.231,-2.231,-2.231,-2.231,-2.231,-2.231,-2.231,-2.231,-2.231,-2.231,-2.231,-2.231,-2.231,-2.231,-2.231,-2.231,-2.231,-2.231,-2.231,-2.231,-2.231,-2.2327,-2.2395,-2.2429,-2.253,-2.3173,-2.3414,-2.3435,-2.3351,-2.2887,-2.2492,-2.316,-2.3412,-2.3479,-2.3479,-2.4149,-2.4868,-2.4868,-2.5001,-2.5182,-2.5144,-2.5105,-2.5105,-2.5012,-2.5028,-2.5028,-2.5028,-2.4617,-2.4158,-2.3681,-2.3595,-2.3595,-2.3595,-2.3595,-2.3595,-2.3595,-2.3595,-2.3595,-2.3595,-2.3595,-2.3595,-2.3595,-2.4223,-2.4911,-2.557,-2.6228,-2.6886,-2.7595,-2.7524,-2.7429,-2.7238,-2.6678,-2.6361,-2.6289,-2.57,-2.5287,-2.5119,-2.5119,-2.4781,0.0,0.0,0.0,0.0,0.0,0.0,0.0,0.0,-2.5303,0.0,0.0,0.0,0.0,0.0,0.0,0.0,0.0,0.0,0.0,0.0,0.0,0.0,0.0,0.0,0.0,0.0,0.0,0.0,0.0,-2.2537,-2.2537,-2.2388,-2.231,-2.231,-2.231,-2.231,-2.231,-2.231,-2.231,-2.231,-2.231,-2.231,-2.231,-2.231,-2.231,-2.231,-2.231,-2.231,-2.231,-2.231,-2.231,-2.231,-2.231,-2.231,-2.231,-2.231,-2.231,-2.2344,-2.2649,-2.2767,-2.2767,-2.2767,-2.2564,-2.2361,-2.2682,-2.3359,-2.4036,-2.4036,-2.494,-2.5882,-2.5882,-2.6012,-2.6016,-2.5726,-2.5652,-2.5577,-2.5259,-2.5221,-2.5221,-2.5221,-2.5028,-2.4776,-2.4592,-2.3991,-2.3595,-2.3595,-2.3595,-2.3595,-2.3595,-2.3595,-2.3595,-2.3595,-2.3595,-2.3595,-2.3595,-2.4223,-2.4911,-2.557,-2.6587,-2.729,-2.761,-2.7625,-2.7625,-2.7625,-2.7306,-2.7137,-2.7137,-2.6811,-2.6707,-2.6654,-2.5783,-2.5231,-2.533,0.0,0.0,0.0,0.0,0.0,0.0,0.0,0.0,0.0,0.0,0.0,0.0,0.0,0.0,0.0,0.0,0.0,0.0,0.0,0.0,0.0,0.0,0.0,0.0,0.0,0.0,0.0,-2.2848,-2.2797,-2.2695,-2.2527,-2.2388,-2.231,-2.231,-2.231,-2.231,-2.231,-2.231,-2.231,-2.231,-2.231,-2.231,-2.231,-2.231,-2.231,-2.231,-2.231,-2.231,-2.2388,-2.2377,-2.231,-2.2388,-2.236,-2.231,-2.231,-2.231,-2.231,-2.231,-2.231,-2.231,-2.231,-2.231,-2.231,-2.231,-2.319,-2.4188,-2.4188,-2.5253,-2.6404,-2.6404,-2.6539,-2.6607,-2.6262,-2.6191,-2.6068,-2.5709,-2.5598,-2.5598,-2.5598,-2.5524,-2.5411,-2.5411,-2.4657,-2.4032,-2.4032,-2.4032,-2.4032,-2.4032,-2.4032,-2.3991,-2.3837,-2.3837,-2.3752,-2.3595,-2.4059,-2.4702,-2.5555,-2.6677,-2.738,-2.761,-2.7625,-2.7625,-2.7625,-2.7625,-2.7625,-2.7625,-2.7625,-2.7625,-2.7575,-2.6481,-2.5892,0.0,0.0,0.0,-2.5322,0.0,0.0,0.0,0.0,-2.5303,0.0,0.0,0.0,0.0,0.0,0.0,0.0,0.0,0.0,0.0,0.0,0.0,0.0,0.0,0.0,0.0,0.0,0.0,-2.3189,-2.3189,-2.3045,-2.2721,-2.2695,-2.2563,-2.231,-2.231,-2.231,-2.231,-2.231,-2.231,-2.231,-2.231,-2.231,-2.231,-2.231,-2.231,-2.231,-2.231,-2.231,-2.2321,-2.2573,-2.2537,-2.2338,-2.2573,-2.2527,-2.231,-2.231,-2.231,-2.231,-2.231,-2.231,-2.231,-2.231,-2.231,-2.231,-2.231,-2.2835,-2.3427,-2.3427,-2.4509,-2.5642,-2.5642,-2.6167,-2.6691,-2.6691,-2.6691,-2.6657,-2.6657,-2.6657,-2.6657,-2.6657,-2.6297,-2.5961,-2.5961,-2.554,-2.5144,-2.5144,-2.5144,-2.5144,-2.5144,-2.5144,-2.4934,-2.443,-2.4389,-2.4142,-2.3638,-2.3625,-2.4208,-2.5525,-2.6243,-2.6901,-2.7595,-2.7625,-2.7625,-2.7625,-2.7625,-2.7625,-2.7625,-2.7625,-2.7625,-2.7625,-2.756,-2.7152,0.0,0.0,-2.5522,-2.5453,0.0,0.0,0.0,0.0,0.0,0.0,0.0,0.0,0.0,0.0,0.0,0.0,0.0,0.0,0.0,0.0,0.0,0.0,0.0,0.0,0.0,0.0,0.0,-2.3544,-2.3522,-2.3477,0.0,-2.2947,-2.2764,-2.2883,-2.2678,-2.2546,-2.2546,-2.2546,-2.2546,-2.2546,-2.2546,-2.2678,-2.2883,-2.2669,-2.2546,-2.2563,-2.2388,-2.2398,-2.2573,-2.2643,-2.2789,-2.2908,-2.3014,-2.2989,-2.2849,-2.2443,-2.231,-2.231,-2.231,-2.231,-2.231,-2.231,-2.231,-2.2395,-2.2885,-2.3528,-2.4222,-2.4712,-2.5575,-2.6336,-2.6336,-2.6505,-2.6691,-2.6691,-2.6691,-2.6691,-2.6691,-2.6691,-2.6691,-2.6691,-2.659,-2.647,-2.647,-2.6315,-2.598,-2.5297,-2.5221,-2.5221,-2.5221,-2.5221,-2.5144,-2.495,-2.4934,-2.4871,-2.4657,-2.474,-2.5144,-2.6061,-2.6451,-2.6886,-2.7595,-2.7625,-2.7625,-2.7625,-2.7625,-2.7625,-2.7625,-2.7625,-2.7625,-2.7625,-2.7625,-2.7473,-2.5547,-2.5564,0.0,-2.5526,-2.5493,0.0,-2.5447,0.0,0.0,0.0,0.0,0.0,0.0,0.0,0.0,0.0,0.0,0.0,0.0,0.0,0.0,0.0,0.0,0.0,0.0,0.0,-2.4113,-2.3896,-2.3876,-2.3816,0.0,0.0,-2.3093,-2.3189,-2.2996,-2.2873,-2.2873,-2.2873,-2.2873,-2.2873,-2.2873,-2.2996,-2.3189,-2.2972,-2.2873,-2.2873,-2.2695,-2.2721,-2.2898,-2.3021,-2.3117,-2.3212,-2.3346,-2.3282,-2.3159,-2.2634,-2.2388,-2.231,-2.231,-2.231,-2.231,-2.231,-2.231,-2.2395,-2.2868,-2.3511,-2.4255,-2.5,-2.5744,-2.637,-2.6623,-2.6691,-2.6623,-2.637,-2.6302,-2.6302,-2.6302,-2.6302,-2.6387,-2.664,-2.6691,-2.6691,-2.6691,-2.6691,-2.647,-2.5819,-2.5746,-2.5746,-2.5746,-2.5746,-2.5672,-2.5486,-2.5486,-2.5411,-2.5221,-2.5519,-2.602,-2.6667,-2.704,-2.7549,-2.8192,-2.8255,-2.8247,-2.8308,-2.8016,-2.7931,-2.7934,-2.7745,-2.7625,-2.7625,-2.7625,-2.7625]},{"header":{"parameterUnit":"m.s-1","parameterCategory":1,"la1":30.6,"la2":29.2853,"lo1":-89.7004,"lo2":-87.6739,"dy":0.0162,"dx":0.0183,"nx":112,"ny":82,"refTime":"2023-02-24T06:00:00:Z","depth":0,"parameterNumber":3,"parameterNumberName":"V-component_of_WINDS"},"data":[0.0,0.0,0.0,0.0,0.0,0.0,0.0,0.0,0.0,0.0,0.0,0.0,0.0,0.0,0.0,0.0,0.0,0.0,0.0,0.0,0.0,0.0,0.0,0.0,0.0,0.0,0.0,0.0,0.0,0.0,0.0,0.0,0.0,0.0,0.0,0.0,0.0,0.0,0.0,0.0,0.0,0.0,0.0,0.0,0.0,0.0,0.0,0.0,0.0,0.0,0.0,0.0,0.0,0.0,0.0,0.0,0.0,0.0,0.0,0.0,0.0,0.0,0.0,0.0,0.0,0.0,0.0,0.0,0.0,0.0,0.0,0.0,0.0,0.0,0.0,0.0,0.0,0.0,0.0,0.0,0.0,0.0,0.0,0.0,0.0,0.0,0.0,0.0,0.0,0.0,0.0,-1.6914,-1.8733,-1.9999,-2.0118,-2.0628,-2.0497,-1.9425,0.0,0.0,0.0,0.0,0.0,0.0,0.0,0.0,0.0,0.0,0.0,0.0,0.0,0.0,0.0,0.0,0.0,0.0,0.0,0.0,0.0,0.0,0.0,0.0,0.0,0.0,0.0,0.0,0.0,0.0,0.0,0.0,0.0,0.0,0.0,0.0,0.0,0.0,0.0,0.0,0.0,0.0,0.0,0.0,0.0,0.0,0.0,0.0,0.0,0.0,0.0,0.0,0.0,0.0,0.0,0.0,0.0,0.0,0.0,0.0,0.0,0.0,0.0,0.0,0.0,0.0,0.0,0.0,0.0,0.0,0.0,0.0,0.0,0.0,0.0,0.0,0.0,0.0,0.0,0.0,0.0,0.0,0.0,0.0,0.0,0.0,0.0,0.0,0.0,0.0,0.0,0.0,0.0,0.0,0.0,0.0,0.0,0.0,0.0,0.0,0.0,0.0,0.0,0.0,-1.702,-1.7883,-1.9046,-1.9991,-2.064,-2.0219,-1.9858,-1.9653,0.0,0.0,0.0,0.0,0.0,0.0,0.0,0.0,0.0,0.0,0.0,0.0,0.0,0.0,0.0,0.0,0.0,0.0,0.0,0.0,0.0,0.0,0.0,0.0,0.0,0.0,0.0,0.0,0.0,0.0,0.0,0.0,0.0,0.0,0.0,0.0,0.0,0.0,0.0,0.0,0.0,0.0,0.0,0.0,0.0,0.0,0.0,0.0,0.0,0.0,0.0,0.0,0.0,0.0,0.0,0.0,0.0,0.0,0.0,0.0,0.0,0.0,0.0,0.0,0.0,0.0,0.0,0.0,0.0,0.0,0.0,0.0,0.0,0.0,0.0,0.0,0.0,0.0,0.0,0.0,0.0,0.0,0.0,0.0,0.0,0.0,0.0,0.0,0.0,0.0,0.0,0.0,0.0,0.0,0.0,0.0,0.0,0.0,0.0,0.0,0.0,0.0,0.0,-1.8055,-1.8236,-1.8391,-1.9585,-2.0318,-2.0206,-1.9891,-1.9757,-1.9912,-1.9834,0.0,0.0,0.0,0.0,0.0,0.0,0.0,0.0,0.0,0.0,0.0,0.0,0.0,0.0,0.0,0.0,0.0,0.0,0.0,0.0,0.0,0.0,0.0,0.0,0.0,0.0,0.0,0.0,0.0,0.0,0.0,0.0,0.0,0.0,0.0,0.0,0.0,0.0,0.0,0.0,0.0,0.0,0.0,0.0,0.0,0.0,0.0,0.0,0.0,0.0,0.0,0.0,0.0,0.0,0.0,0.0,0.0,0.0,0.0,0.0,0.0,0.0,0.0,0.0,0.0,0.0,0.0,0.0,0.0,0.0,0.0,0.0,0.0,0.0,0.0,0.0,0.0,0.0,0.0,0.0,0.0,0.0,0.0,0.0,0.0,0.0,0.0,0.0,0.0,0.0,0.0,0.0,0.0,0.0,0.0,0.0,0.0,0.0,0.0,0.0,0.0,0.0,-1.9019,-1.916,-1.8731,-1.9626,-1.9984,-1.9376,-1.9323,-1.9415,-1.9614,-1.9847,0.0,0.0,0.0,0.0,0.0,0.0,0.0,0.0,0.0,0.0,0.0,0.0,0.0,0.0,0.0,0.0,0.0,0.0,0.0,0.0,0.0,0.0,0.0,0.0,0.0,0.0,0.0,0.0,0.0,0.0,0.0,0.0,0.0,0.0,0.0,0.0,0.0,0.0,0.0,0.0,0.0,0.0,0.0,0.0,0.0,0.0,0.0,0.0,0.0,0.0,0.0,0.0,0.0,0.0,0.0,0.0,0.0,0.0,0.0,0.0,0.0,0.0,0.0,0.0,0.0,0.0,0.0,0.0,0.0,0.0,0.0,0.0,0.0,0.0,0.0,0.0,0.0,0.0,0.0,0.0,0.0,0.0,0.0,0.0,0.0,0.0,0.0,0.0,0.0,0.0,0.0,0.0,0.0,0.0,0.0,0.0,0.0,0.0,0.0,0.0,0.0,0.0,-1.886,-1.9003,-1.8984,-1.857,-1.8258,-1.8221,-1.8203,-1.8218,-1.8251,-1.8962,0.0,0.0,0.0,0.0,0.0,0.0,0.0,0.0,0.0,0.0,0.0,0.0,0.0,0.0,0.0,0.0,0.0,0.0,0.0,0.0,0.0,0.0,0.0,0.0,0.0,0.0,0.0,0.0,0.0,0.0,0.0,0.0,0.0,0.0,0.0,0.0,0.0,0.0,0.0,0.0,0.0,0.0,0.0,0.0,0.0,0.0,0.0,0.0,0.0,0.0,0.0,0.0,0.0,0.0,0.0,0.0,0.0,0.0,0.0,0.0,0.0,0.0,0.0,0.0,0.0,0.0,0.0,0.0,0.0,0.0,0.0,0.0,0.0,0.0,0.0,0.0,0.0,0.0,0.0,0.0,0.0,0.0,0.0,0.0,0.0,0.0,0.0,0.0,0.0,0.0,0.0,0.0,0.0,0.0,0.0,0.0,0.0,0.0,0.0,0.0,0.0,0.0,-1.9451,-1.9414,0.0,-1.8675,-1.8647,-1.8151,-1.8096,-1.8317,-1.8812,0.0,0.0,0.0,0.0,0.0,0.0,0.0,0.0,0.0,0.0,0.0,0.0,0.0,0.0,0.0,0.0,0.0,0.0,0.0,0.0,0.0,0.0,0.0,0.0,0.0,0.0,0.0,0.0,0.0,0.0,0.0,0.0,0.0,0.0,0.0,0.0,0.0,0.0,0.0,0.0,0.0,0.0,0.0,0.0,0.0,0.0,0.0,0.0,0.0,0.0,0.0,0.0,0.0,0.0,0.0,0.0,0.0,0.0,0.0,0.0,0.0,0.0,0.0,0.0,0.0,0.0,0.0,0.0,0.0,0.0,0.0,0.0,0.0,0.0,0.0,0.0,0.0,0.0,0.0,0.0,0.0,0.0,0.0,0.0,0.0,0.0,0.0,0.0,0.0,0.0,0.0,0.0,0.0,0.0,0.0,0.0,0.0,0.0,0.0,0.0,0.0,0.0,-1.9311,-1.9673,-1.955,0.0,-1.8739,-1.8702,-1.8151,-1.8096,-1.8335,-1.8886,0.0,0.0,0.0,0.0,0.0,0.0,0.0,0.0,0.0,0.0,0.0,0.0,0.0,0.0,0.0,0.0,0.0,0.0,0.0,0.0,0.0,0.0,0.0,0.0,0.0,0.0,0.0,0.0,0.0,0.0,0.0,0.0,0.0,0.0,0.0,0.0,0.0,0.0,0.0,0.0,0.0,0.0,0.0,0.0,0.0,0.0,0.0,0.0,0.0,0.0,0.0,0.0,0.0,0.0,0.0,0.0,0.0,0.0,0.0,0.0,0.0,0.0,0.0,0.0,0.0,0.0,0.0,0.0,0.0,0.0,0.0,0.0,0.0,0.0,0.0,0.0,0.0,0.0,0.0,0.0,0.0,0.0,0.0,0.0,0.0,0.0,0.0,0.0,0.0,0.0,0.0,0.0,0.0,0.0,0.0,0.0,0.0,0.0,0.0,0.0,0.0,0.0,-1.9399,-1.9305,-1.9305,-1.9305,-1.8574,-1.8096,-1.8096,-1.8096,-1.8096,0.0,0.0,0.0,0.0,0.0,0.0,0.0,0.0,0.0,0.0,0.0,0.0,0.0,0.0,0.0,0.0,0.0,0.0,0.0,0.0,0.0,0.0,0.0,0.0,0.0,0.0,0.0,0.0,0.0,0.0,0.0,0.0,0.0,0.0,0.0,0.0,0.0,0.0,0.0,0.0,0.0,0.0,0.0,0.0,0.0,0.0,0.0,0.0,0.0,0.0,0.0,0.0,0.0,0.0,0.0,0.0,0.0,0.0,0.0,0.0,0.0,0.0,0.0,0.0,0.0,0.0,0.0,0.0,0.0,0.0,0.0,0.0,0.0,0.0,0.0,0.0,0.0,0.0,0.0,0.0,0.0,0.0,0.0,0.0,0.0,0.0,0.0,0.0,0.0,0.0,0.0,0.0,0.0,0.0,0.0,0.0,0.0,0.0,0.0,0.0,0.0,0.0,0.0,-1.9326,-1.9305,-1.9069,-1.8519,-1.8243,-1.8096,-1.8096,-1.8096,-1.8335,-1.8904,0.0,0.0,0.0,0.0,0.0,0.0,0.0,0.0,0.0,0.0,0.0,0.0,0.0,0.0,0.0,0.0,0.0,0.0,0.0,0.0,0.0,0.0,0.0,0.0,0.0,0.0,0.0,0.0,0.0,0.0,0.0,0.0,0.0,0.0,0.0,0.0,0.0,0.0,0.0,0.0,0.0,0.0,0.0,0.0,0.0,0.0,0.0,0.0,0.0,0.0,0.0,0.0,0.0,0.0,0.0,0.0,0.0,0.0,0.0,0.0,0.0,0.0,0.0,0.0,0.0,0.0,0.0,0.0,0.0,0.0,0.0,0.0,0.0,0.0,0.0,0.0,0.0,0.0,0.0,0.0,0.0,0.0,0.0,0.0,0.0,0.0,0.0,0.0,0.0,0.0,0.0,0.0,0.0,0.0,0.0,0.0,0.0,0.0,0.0,0.0,0.0,0.0,-1.9396,-1.9305,-1.9106,-1.8629,-1.8574,-1.8574,-1.8574,-1.8574,-1.8794,-1.9271,0.0,0.0,0.0,0.0,0.0,0.0,0.0,0.0,0.0,0.0,0.0,0.0,0.0,0.0,0.0,0.0,0.0,0.0,0.0,0.0,0.0,0.0,0.0,0.0,0.0,0.0,0.0,0.0,0.0,0.0,0.0,0.0,0.0,0.0,0.0,0.0,0.0,0.0,0.0,0.0,0.0,0.0,0.0,0.0,0.0,0.0,0.0,0.0,0.0,0.0,0.0,0.0,0.0,0.0,0.0,0.0,0.0,0.0,0.0,0.0,0.0,0.0,0.0,0.0,0.0,0.0,0.0,0.0,0.0,0.0,0.0,0.0,0.0,0.0,0.0,0.0,0.0,0.0,0.0,0.0,0.0,0.0,0.0,0.0,0.0,0.0,0.0,0.0,0.0,0.0,0.0,0.0,0.0,0.0,0.0,0.0,0.0,0.0,0.0,0.0,0.0,0.0,-1.9525,-1.9305,-1.9305,-1.9305,-1.9305,-1.9305,-1.9305,-1.9305,-1.9305,-1.9305,0.0,0.0,0.0,0.0,0.0,0.0,0.0,0.0,0.0,0.0,0.0,0.0,0.0,0.0,0.0,0.0,0.0,0.0,0.0,0.0,0.0,0.0,0.0,0.0,0.0,0.0,0.0,0.0,0.0,0.0,0.0,0.0,0.0,0.0,0.0,0.0,0.0,0.0,0.0,0.0,0.0,0.0,0.0,0.0,0.0,0.0,0.0,0.0,0.0,0.0,0.0,0.0,0.0,0.0,0.0,0.0,0.0,0.0,0.0,0.0,-1.96,0.0,0.0,0.0,0.0,0.0,0.0,0.0,0.0,0.0,0.0,0.0,0.0,0.0,0.0,0.0,0.0,0.0,0.0,0.0,0.0,0.0,0.0,0.0,0.0,0.0,0.0,0.0,0.0,0.0,0.0,0.0,0.0,0.0,0.0,0.0,0.0,0.0,0.0,0.0,0.0,0.0,-1.9418,-1.9305,-1.9305,-1.9305,-1.9305,-1.9305,-1.9305,-1.9305,-1.9305,-1.9305,0.0,0.0,0.0,0.0,0.0,0.0,0.0,0.0,0.0,0.0,0.0,0.0,0.0,0.0,0.0,0.0,0.0,0.0,0.0,0.0,0.0,0.0,0.0,0.0,0.0,0.0,0.0,0.0,0.0,0.0,0.0,0.0,0.0,0.0,0.0,0.0,0.0,0.0,0.0,0.0,0.0,0.0,0.0,0.0,0.0,0.0,0.0,0.0,0.0,0.0,0.0,0.0,0.0,0.0,0.0,0.0,0.0,0.0,0.0,0.0,0.0,-1.969,0.0,0.0,0.0,0.0,0.0,0.0,0.0,0.0,0.0,0.0,0.0,0.0,0.0,0.0,0.0,0.0,0.0,0.0,0.0,0.0,0.0,0.0,0.0,0.0,0.0,0.0,0.0,0.0,0.0,0.0,0.0,0.0,0.0,0.0,0.0,0.0,0.0,0.0,0.0,0.0,-1.9932,-1.9528,-1.9305,-1.9305,-1.9305,-1.9305,-1.9305,-1.9305,-1.9305,-1.9305,-1.9305,0.0,0.0,0.0,0.0,0.0,0.0,0.0,0.0,0.0,0.0,0.0,0.0,0.0,0.0,0.0,0.0,0.0,0.0,0.0,0.0,0.0,0.0,0.0,0.0,0.0,0.0,0.0,0.0,0.0,0.0,0.0,0.0,0.0,0.0,0.0,0.0,0.0,0.0,0.0,0.0,0.0,0.0,0.0,0.0,0.0,0.0,0.0,0.0,0.0,0.0,0.0,0.0,0.0,-1.969,-1.969,-1.969,-1.969,-1.969,-1.9711,-1.9782,-1.9803,-1.9803,0.0,0.0,0.0,0.0,0.0,0.0,0.0,0.0,0.0,0.0,0.0,0.0,0.0,0.0,0.0,0.0,0.0,0.0,0.0,0.0,0.0,0.0,0.0,0.0,0.0,-2.419,-2.419,0.0,0.0,0.0,0.0,0.0,0.0,0.0,0.0,0.0,0.0,0.0,0.0,-2.0319,-1.9711,-1.9305,-1.9305,-1.9305,-1.9305,-1.9305,-1.9305,-1.9305,-1.9305,-1.9305,-1.9672,0.0,0.0,0.0,0.0,0.0,0.0,0.0,0.0,0.0,0.0,0.0,0.0,0.0,0.0,0.0,0.0,0.0,0.0,0.0,0.0,0.0,0.0,0.0,0.0,0.0,0.0,0.0,0.0,0.0,0.0,0.0,0.0,-1.9244,-1.893,0.0,0.0,0.0,0.0,0.0,0.0,0.0,0.0,0.0,0.0,0.0,0.0,0.0,0.0,-1.969,-1.96,-1.96,-1.969,-1.969,-1.969,-1.969,-1.969,-1.969,-1.9711,-2.007,0.0,-2.0246,-2.0665,0.0,0.0,0.0,0.0,0.0,0.0,0.0,0.0,0.0,0.0,0.0,0.0,0.0,0.0,0.0,0.0,0.0,0.0,0.0,0.0,0.0,0.0,-2.419,-2.419,-2.419,-2.419,0.0,-2.419,-2.419,-2.419,0.0,0.0,0.0,0.0,0.0,0.0,0.0,0.0,-1.9638,-1.9363,-1.9305,-1.9305,-1.9305,-1.9305,-1.9305,-1.9305,-1.9305,-1.9305,-1.9305,-1.9745,-2.0718,-2.1488,0.0,0.0,0.0,0.0,0.0,0.0,0.0,0.0,0.0,0.0,0.0,0.0,0.0,0.0,0.0,0.0,0.0,0.0,0.0,0.0,0.0,0.0,0.0,0.0,0.0,0.0,0.0,0.0,0.0,-1.8968,-1.9281,-1.9332,-1.9566,-1.9603,0.0,0.0,0.0,0.0,0.0,0.0,0.0,0.0,0.0,-1.969,-1.9331,-1.9316,-1.969,-1.9316,-1.9316,-1.969,-1.969,-1.9818,-2.0035,-2.0035,-2.0174,-2.0431,-2.0632,-2.0813,-2.1023,-2.1023,-2.1244,-2.1612,0.0,0.0,0.0,0.0,-2.231,-2.231,-2.231,-2.231,0.0,0.0,0.0,0.0,0.0,0.0,0.0,0.0,0.0,0.0,0.0,0.0,0.0,-2.419,-2.419,-2.419,-2.419,-2.419,-2.419,0.0,-2.419,-2.419,-2.419,0.0,0.0,0.0,0.0,0.0,-2.0756,-2.028,-1.9968,-1.9968,-1.9565,-1.9305,-1.9305,-1.9305,-1.9305,-1.9305,-1.9413,-1.9861,-2.0756,-2.1789,-2.276,0.0,0.0,0.0,0.0,0.0,0.0,0.0,0.0,0.0,0.0,0.0,0.0,0.0,0.0,0.0,0.0,0.0,0.0,0.0,0.0,0.0,0.0,0.0,0.0,0.0,0.0,0.0,0.0,-1.893,-1.9244,-1.9639,-1.969,-1.969,0.0,0.0,0.0,0.0,0.0,0.0,-1.969,-1.969,-1.969,-1.969,-1.9211,-1.9196,-1.969,-1.9196,-1.9211,-1.969,-1.969,-1.9874,-2.0158,-2.0158,-2.0382,-2.0829,-2.0959,-2.1213,-2.1582,-2.1275,-2.1399,-2.1794,-2.1794,-2.2003,-2.231,-2.231,-2.231,-2.2344,-2.253,-2.2462,-2.2344,-2.253,0.0,-2.2873,-2.3021,0.0,0.0,0.0,0.0,-2.419,-2.419,-2.419,-2.419,-2.419,-2.419,-2.419,-2.419,-2.419,-2.419,0.0,-2.419,-2.419,-2.419,0.0,0.0,0.0,0.0,-2.1308,-2.1748,-2.1235,-2.0831,-2.0831,-2.0299,-1.9947,-1.9947,-1.9947,-1.9945,-1.9988,-2.0121,-2.0615,-2.1524,-2.2441,-2.3307,-2.4162,0.0,0.0,0.0,0.0,0.0,0.0,0.0,0.0,0.0,0.0,0.0,0.0,0.0,0.0,0.0,0.0,0.0,0.0,0.0,0.0,0.0,0.0,0.0,0.0,0.0,0.0,0.0,0.0,0.0,-1.969,-1.969,0.0,0.0,0.0,0.0,-1.969,-1.969,-1.969,-1.969,-1.969,-1.969,-1.969,-1.966,-1.966,-1.969,-1.966,-1.966,-1.969,-1.969,-1.9711,-1.9711,-1.9711,-1.9945,-2.0348,-2.0797,-2.1213,-2.1582,-2.1582,-2.1823,-2.2254,-2.2254,-2.2282,-2.231,-2.231,-2.231,-2.2412,-2.3105,-2.2885,-2.2429,-2.3122,-2.3256,-2.3282,-2.3917,-2.4151,0.0,0.0,-2.419,-2.419,-2.419,-2.419,-2.419,-2.419,-2.419,-2.419,-2.419,-2.419,-2.419,0.0,-2.419,-2.419,-2.419,0.0,-2.3823,-2.3125,-2.2942,-2.2611,-2.1894,-2.1766,-2.1729,-2.1729,-2.1711,-2.1674,-2.1674,-2.1674,-2.1738,-2.1865,-2.1861,-2.2421,-2.3587,-2.3717,-2.4211,-2.5197,-2.5264,0.0,0.0,0.0,0.0,0.0,0.0,0.0,0.0,0.0,0.0,0.0,0.0,0.0,0.0,0.0,0.0,0.0,0.0,0.0,0.0,0.0,0.0,0.0,0.0,0.0,0.0,0.0,0.0,-1.969,-1.969,0.0,0.0,-1.969,-1.969,-1.969,-1.969,-1.969,-1.969,-1.969,-1.969,-1.969,-1.969,-1.969,-1.969,-1.969,-1.969,-1.969,-1.9965,-2.0227,-2.0548,-2.0781,-2.1181,-2.1615,-2.1751,-2.1915,-2.2032,-2.2032,-2.2135,-2.231,-2.231,-2.231,-2.2361,-2.2835,-2.3004,-2.3054,-2.3308,-2.338,-2.3357,-2.3523,-2.3554,-2.3628,-2.4074,-2.419,-2.419,-2.419,-2.419,-2.419,-2.419,-2.419,-2.419,-2.419,-2.419,-2.419,-2.419,-2.419,-2.419,-2.419,-2.419,-2.419,-2.419,-2.3768,-2.3327,-2.3052,-2.3103,-2.3077,-2.2796,-2.285,-2.2862,-2.2776,-2.2259,-2.1895,-2.1803,-2.1803,-2.1867,-2.1992,-2.2112,-2.2678,-2.3763,-2.3917,-2.4408,-2.5284,-2.5303,-2.5303,0.0,0.0,0.0,0.0,0.0,0.0,0.0,0.0,0.0,0.0,0.0,0.0,0.0,0.0,0.0,0.0,0.0,0.0,0.0,0.0,0.0,0.0,0.0,0.0,0.0,0.0,-1.969,-1.969,-1.969,-1.969,-1.969,-1.969,-1.969,-1.969,-1.969,-1.969,-1.969,-1.969,-1.969,-1.969,-1.969,-1.969,-1.969,-1.969,-1.969,-1.9711,-2.0089,-2.0449,-2.0797,-2.1213,-2.1628,-2.2061,-2.2061,-2.2135,-2.2327,-2.2581,-2.2682,-2.2649,-2.2412,-2.231,-2.2361,-2.2852,-2.319,-2.3422,-2.3522,-2.3943,-2.4366,-2.3862,-2.3692,-2.3774,-2.4094,-2.419,-2.419,-2.419,-2.419,-2.4263,-2.452,-2.4593,-2.4667,-2.4942,-2.4795,-2.4593,-2.4593,-2.4392,-2.419,-2.419,-2.419,-2.419,-2.419,-2.3768,-2.3419,-2.3492,-2.363,-2.3726,-2.3805,-2.3884,-2.3894,-2.3817,-2.3293,-2.2895,-2.2829,-2.2813,-2.2871,-2.2985,-2.3132,-2.3536,-2.4268,-2.4428,-2.4755,-2.5284,-2.5303,-2.5303,-2.5303,0.0,0.0,0.0,0.0,0.0,0.0,0.0,0.0,0.0,0.0,0.0,0.0,0.0,0.0,0.0,0.0,0.0,0.0,0.0,0.0,0.0,0.0,0.0,-1.893,-1.9384,-1.9705,-1.969,-1.9705,-1.9705,-1.969,-1.969,-1.969,-1.969,-1.969,-1.969,-1.969,-1.969,-1.969,-1.969,-1.969,-1.969,-1.969,-1.9711,-1.9711,-1.9711,-2.0174,-2.0364,-2.0413,-2.0877,-2.1309,-2.1694,-2.1694,-2.1965,-2.2429,-2.3139,-2.3427,-2.3359,-2.2649,-2.2378,-2.2378,-2.2395,-2.2852,-2.3515,-2.3822,-2.4602,-2.524,-2.4091,-2.3732,-2.381,-2.413,-2.4263,-2.4263,-2.4263,-2.4263,-2.4447,-2.5256,-2.5439,-2.5621,-2.641,-2.5988,-2.5439,-2.5439,-2.4814,-2.4263,-2.4263,-2.4263,-2.4263,-2.4208,-2.419,-2.4284,-2.4461,-2.4495,0.0,-2.4775,-2.4804,-2.4804,-2.4804,-2.4804,-2.4804,-2.4804,-2.4804,-2.4855,-2.4998,-2.501,-2.5088,-2.5284,-2.5303,-2.5303,-2.5303,-2.5303,-2.5303,-2.5303,0.0,0.0,0.0,0.0,0.0,0.0,0.0,0.0,0.0,0.0,0.0,0.0,0.0,0.0,0.0,0.0,0.0,0.0,0.0,0.0,0.0,0.0,-1.9043,-1.9442,-2.0035,-2.0243,-1.975,-2.0124,-2.0228,-1.9735,-1.969,-1.969,-1.969,-1.969,-1.969,-1.969,-1.969,-1.969,-1.969,-1.969,-1.969,-1.969,-2.0,-2.0124,-2.0158,-2.1438,-2.2037,-2.2053,-2.3073,-2.3589,-2.3698,-2.3698,-2.3776,-2.39,-2.4103,-2.4188,-2.4201,-2.3951,-2.3883,-2.3951,-2.4509,-2.4641,-2.4626,-2.4943,-2.469,-2.4186,-2.4083,-2.4458,-2.4953,-2.5032,-2.5474,-2.5952,-2.5952,-2.5952,-2.5988,-2.6209,-2.6264,-2.6337,-2.6557,-2.6429,-2.6264,-2.6264,-2.6098,-2.5952,-2.5952,-2.5952,-2.5566,-2.4392,-2.419,-2.4209,-2.4266,-2.441,0.0,-2.4775,-2.4877,-2.4956,-2.4956,-2.4956,-2.4904,-2.4818,-2.4804,-2.4855,-2.4998,-2.501,-2.5088,-2.5284,-2.5303,-2.5303,-2.5303,-2.5303,-2.5303,0.0,0.0,0.0,0.0,0.0,0.0,0.0,0.0,0.0,0.0,0.0,0.0,0.0,0.0,0.0,0.0,0.0,0.0,0.0,0.0,0.0,0.0,-1.9517,-1.9847,-2.0445,-2.0378,-2.0243,-2.0124,-2.0213,-2.0124,-1.972,-1.969,-1.969,-1.969,-1.969,-1.969,-1.969,-1.969,-1.969,-1.969,-1.969,-1.9954,-2.0457,-2.0674,-2.1042,-2.1516,-2.2638,-2.3192,-2.3241,-2.4101,-2.4506,0.0,-2.4506,-2.4506,-2.454,-2.4814,-2.4949,0.0,0.0,0.0,0.0,0.0,-2.5678,-2.5775,-2.594,-2.575,-2.5375,-2.525,-2.5511,-2.5897,-2.5897,-2.6227,-2.6612,-2.6612,-2.6612,-2.6686,-2.7016,-2.7108,-2.72,-2.753,-2.7346,-2.7108,-2.7108,-2.6851,-2.6612,-2.6612,0.0,0.0,-2.5466,-2.4965,-2.4614,-2.4358,-2.4495,-2.47,-2.485,-2.503,-2.5141,-2.5141,-2.5141,-2.5077,-2.5031,-2.5019,0.0,0.0,0.0,-2.5173,-2.5303,-2.5303,0.0,0.0,0.0,-2.5303,0.0,0.0,0.0,0.0,-2.5303,-2.5303,0.0,0.0,0.0,0.0,0.0,0.0,0.0,0.0,0.0,0.0,0.0,0.0,0.0,0.0,0.0,0.0,-2.0489,-2.1081,-2.1814,-2.0767,-2.0139,-2.0752,-2.0288,-1.9884,-1.9809,-1.9735,-1.969,-1.969,-1.969,-1.969,-1.969,0.0,0.0,0.0,0.0,-2.0324,-2.1346,-2.1572,-2.2185,-2.3133,-2.3786,-2.41,-2.41,-2.4538,-2.476,-2.476,-2.476,-2.476,-2.4811,-2.5456,-2.5727,-2.5659,-2.4983,-2.476,-2.4814,-2.5473,-2.6174,-2.6792,-2.6737,0.0,0.0,-2.6833,-2.6667,-2.6741,-2.6741,-2.6814,-2.6869,-2.6869,-2.6869,-2.7053,-2.775,-2.7934,-2.8117,-2.881,-2.8448,-2.7934,-2.7934,-2.7365,-2.6869,-2.6869,-2.6869,-2.6898,-2.699,-2.6188,-2.5335,-2.4739,-2.4786,-2.4927,-2.4981,-2.5141,-2.5274,-2.5303,0.0,0.0,-2.5303,-2.5303,-2.5303,-2.5303,-2.5303,-2.5303,-2.5303,-2.5303,-2.5303,-2.5303,-2.5303,-2.5303,-2.5303,-2.5303,-2.5303,-2.5303,-2.5303,-2.5303,0.0,0.0,0.0,0.0,0.0,0.0,0.0,0.0,0.0,0.0,0.0,0.0,0.0,0.0,0.0,-2.1183,-2.1461,-2.1904,-2.3071,-2.2113,-2.135,-2.1485,-2.138,-2.1096,-2.0572,-2.0019,-1.969,-1.969,-1.969,-1.969,-1.969,-1.969,0.0,-1.969,-2.0228,-2.0509,-2.0531,-2.2023,-2.2774,-2.2833,0.0,0.0,-2.5277,-2.5965,-2.6268,-2.6268,-2.6268,-2.6268,-2.6285,-2.642,-2.6488,-2.6471,-2.6319,-2.6268,-2.6285,-2.642,-2.6592,-2.671,-2.6692,-2.6752,-2.6814,-2.6649,-2.7034,-2.7567,-2.7567,-2.8026,0.0,-2.8535,-2.8535,-2.8553,-2.8741,-2.8778,-2.8815,-2.8957,-2.8865,-2.8778,-2.8778,-2.8668,-2.8535,-2.8535,-2.8535,-2.8338,-2.7745,-2.693,-2.6164,-2.5557,-2.5497,-2.5356,-2.4908,-2.4968,-2.5111,-2.5274,-2.5303,-2.5303,-2.5303,-2.5303,-2.5303,-2.5303,-2.5303,-2.5303,-2.5303,-2.5303,-2.5303,-2.5303,-2.5303,-2.5303,-2.5303,-2.5303,-2.5303,-2.5303,-2.5303,-2.5303,0.0,0.0,0.0,0.0,0.0,0.0,0.0,0.0,0.0,0.0,0.0,-1.8187,0.0,0.0,-2.1307,-2.2912,-2.2877,-2.2996,-2.3969,-2.3266,-2.2532,-2.2218,-2.1605,-2.1081,-2.0752,-2.0094,-1.969,-1.969,-1.969,-1.969,-1.969,-2.0019,-2.0198,-2.0198,-2.0857,-2.1538,-2.2228,-2.3191,-2.4005,-2.4695,-2.5309,-2.5795,-2.615,-2.615,-2.6353,-2.6691,-2.6691,-2.6691,-2.6691,-2.6691,-2.6691,-2.6725,-2.6939,-2.6987,-2.6987,-2.6987,-2.7225,-2.7558,-2.7558,-2.7658,-2.7805,-2.7805,-2.8356,-2.8998,-2.8998,-2.9567,-3.021,-3.021,-3.021,-3.021,-3.021,-3.021,-3.0099,-2.9714,-2.9604,-2.9494,-2.9085,-2.8994,-2.8994,-2.8994,-2.9347,-2.9393,-2.8719,-2.8482,-2.7932,-2.6507,-2.6053,-2.5791,-2.5579,-2.5328,-2.5192,-2.5303,-2.5303,-2.5303,-2.5303,-2.5303,-2.5303,-2.5303,-2.5303,-2.5303,-2.5303,-2.5303,-2.5303,-2.5303,-2.5303,-2.5303,-2.5303,-2.5303,-2.5514,-2.5947,-2.5947,-2.5947,0.0,0.0,0.0,0.0,0.0,0.0,0.0,0.0,-1.6892,-1.7548,-1.8144,-1.9052,-2.0765,-2.1591,-2.2642,-2.4476,-2.4238,-2.4044,-2.4717,-2.4014,-2.3236,-2.2783,-2.1635,-2.0902,-2.0902,-2.0168,-1.969,-1.969,-1.969,-1.975,-1.9884,-2.0423,-2.0782,-2.0902,-2.1648,-2.264,-2.3955,-2.4354,-2.5179,-2.6471,-2.6031,-2.6116,-2.6674,-2.6082,-2.6133,-2.6691,-2.6691,-2.6691,-2.6708,-2.6843,-2.6826,-2.6742,-2.7223,-2.7393,-2.7426,-2.7426,-2.7922,-2.8637,-2.8637,-2.8985,-2.9475,-2.9475,-2.9898,-3.043,-3.043,-3.0889,-3.1384,-3.1384,-3.1384,-3.1384,-3.1384,-3.1384,-3.1201,-3.0393,-3.032,-3.021,-2.942,-2.9365,-2.9475,-2.9475,-2.9861,-3.0097,-2.9845,-2.9894,-2.931,-2.7419,-2.6756,-2.6405,-2.6268,-2.5841,-2.5495,-2.5322,-2.5303,-2.5303,-2.5303,-2.5303,-2.5303,-2.5303,-2.5303,-2.5303,-2.5303,-2.5303,-2.5303,-2.5303,-2.5303,-2.5303,-2.5303,-2.5303,-2.5755,-2.6601,-2.6601,-2.6697,-1.3328,-1.423,-1.5126,-1.5655,-1.6158,-1.666,0.0,0.0,-1.7606,-1.8611,-1.9258,-2.0014,-2.1364,-2.2543,-2.3753,-2.5235,-2.4941,-2.4701,-2.5405,-2.3924,-2.2798,-2.2724,-2.2024,-2.159,-2.159,-2.0423,-1.969,-1.969,-1.969,-1.9944,-2.0572,-2.0677,-2.0976,-2.1575,-2.2638,-2.3202,-2.3231,-2.4938,-2.5776,-2.5744,-2.6302,-2.6623,-2.6691,-2.6607,-2.6623,-2.6691,-2.6691,-2.6691,-2.6742,-2.7418,-2.73,-2.6759,-2.7453,-2.7782,-2.784,-2.784,-2.853,-2.9475,-2.9475,-3.0217,-3.1127,-3.1127,-3.1182,-3.1256,-3.1256,-3.1329,-3.1384,-3.1384,-3.1384,-3.1384,-3.1384,-3.1384,-3.1201,-3.0393,-3.0742,-3.1035,-3.0246,-3.0632,-3.1127,-3.1127,-3.0632,-3.0393,-3.1066,-3.005,-2.8868,-2.8089,-2.8069,-2.7622,-2.6204,-2.6275,-2.6159,-2.538,-2.5303,-2.5303,-2.5303,-2.5303,-2.5303,-2.5303,-2.5303,-2.5303,-2.5303,-2.5303,-2.5303,-2.5303,-2.5303,-2.5303,-2.5303,-2.5303,-2.5755,-2.6601,-2.6601,-2.7005,-1.3813,0.0,0.0,0.0,-1.6848,-1.7174,-1.7739,-1.7865,-1.8062,-1.8843,-1.9185,-1.9956,-2.1908,-2.2704,-2.3592,0.0,-2.5061,-2.4686,-2.5001,-2.367,-2.2724,-2.2724,-2.1754,-2.1276,-2.1665,-2.0842,-2.0438,-2.0827,-2.0857,-2.0976,-2.1276,-2.165,-2.1979,-2.2263,-2.3406,-2.4108,-2.4319,-2.5432,-2.6077,-2.6234,-2.6116,-2.6285,-2.6674,-2.6251,-2.6285,-2.6691,-2.6691,-2.6945,-2.7334,-2.7215,-2.7232,-2.7368,-2.7728,-2.815,-2.8581,-2.8581,-2.9161,-3.0013,-3.0487,-3.0991,-3.1384,-3.1384,-3.1715,-3.21,-3.21,-3.243,-3.2797,-3.2797,-3.2797,-3.2797,-3.2797,-3.2797,-3.2596,-3.1788,-3.1861,-3.188,-3.1072,-3.1146,-3.1384,-3.1384,-3.1513,-3.1549,-3.1403,-3.0834,-3.0147,-2.9414,-2.8683,-2.8015,-2.7457,-2.6787,-2.6301,-2.6091,-2.5591,-2.5514,-2.6005,-2.5591,-2.5303,-2.5303,-2.5303,-2.5303,-2.5303,-2.5303,-2.5303,-2.5303,-2.5303,-2.5303,-2.5303,-2.5813,-2.6505,-2.7371,-2.7832,-2.8525,-1.3776,0.0,0.0,-1.681,-1.7488,-1.794,-1.8342,-1.8543,-1.8756,-1.9158,-1.9246,-1.9861,-2.204,-2.2436,0.0,-2.5025,-2.4777,-2.4343,-2.4343,-2.3236,-2.2379,-2.2158,-2.1126,-2.0692,-2.1365,-2.0827,-2.0707,-2.138,-2.1425,-2.159,-2.1949,-2.2428,-2.2798,-2.2921,-2.4035,-2.4831,-2.5182,-2.6085,-2.6684,-2.6996,-2.6471,-2.6505,-2.6979,-2.6251,-2.6437,-2.7317,-2.7097,-2.7435,-2.8112,-2.7774,-2.7841,-2.8166,-2.8519,-2.8959,-2.9444,-2.9792,-3.0188,-3.065,-3.1439,-3.1733,-3.177,-3.199,-3.2467,-3.2944,-3.2944,-3.3348,-3.3807,-3.3807,-3.3807,-3.3807,-3.3807,-3.3807,-3.3605,-3.2797,-3.2779,-3.2706,-3.1898,-3.1898,-3.2045,-3.2045,-3.2357,-3.2504,-3.2118,-3.1678,-3.1201,-3.0613,-2.947,-2.8589,-2.8351,-2.7294,-2.6537,-2.6477,-2.5994,-2.5832,-2.6217,-2.5649,-2.5303,-2.5303,-2.5303,-2.5303,-2.5303,-2.5303,-2.5303,-2.5303,-2.5303,-2.5303,-2.5303,-2.6178,-2.7044,-2.7909,-2.8717,-2.9429,0.0,0.0,-1.5265,-1.6268,-1.7777,-1.8982,-1.8945,-1.9397,-1.9761,-1.9773,-1.9773,-2.0169,-2.1486,-2.1724,-2.2372,-2.4296,-2.4088,-2.3625,-2.3625,-2.2532,-2.1485,-2.0857,-2.0154,-1.9989,0.0,-2.0124,-2.0004,-2.0692,-2.0737,-2.1306,-2.2619,-2.2709,-2.2951,-2.355,-2.4617,-2.5182,-2.5221,-2.6872,-2.7755,-2.7755,-2.7722,-2.7722,-2.7722,-2.6996,-2.7486,-2.8873,-2.8112,-2.823,-2.9008,-2.9719,-2.9583,-2.9064,-3.0179,-3.0429,-3.033,-3.1564,-3.1746,-3.1476,-3.2284,-3.2577,-3.2706,-3.3476,-3.3733,-3.3752,-3.3752,-3.377,-3.3807,-3.3807,-3.3807,-3.3807,-3.3807,-3.3807,-3.3605,-3.2797,-3.3201,-3.3532,-3.2742,-3.3183,-3.3733,-3.3733,-3.3128,-3.2852,-3.3605,-3.243,-3.1384,-3.1366,-3.065,-2.9664,-2.8292,-2.773,-2.7146,-2.6308,-2.6427,-2.6236,-2.5399,-2.5322,-2.5303,-2.5303,-2.5303,-2.5303,-2.5303,-2.5303,-2.5303,-2.5303,-2.5303,-2.5303,-2.5303,-2.6178,-2.7044,-2.7909,-2.8717,-2.9102,0.0,0.0,-1.6041,-1.8184,-1.8869,-1.9221,-1.9949,-1.9949,-1.971,-1.9359,-1.8995,-1.8894,-1.9378,-1.9727,-2.033,-2.1459,-2.2396,-2.2832,-2.2398,-2.1964,-2.1455,-2.0797,-2.0513,0.0,0.0,0.0,0.0,-2.1934,-2.2024,-2.2383,-2.3236,-2.3295,-2.3385,-2.3595,-2.5111,-2.5926,-2.5926,-2.769,-2.8602,-2.8586,-2.8078,-2.7554,-2.708,-2.7334,-2.7723,-2.823,-2.8484,-2.9025,-2.9668,-2.8907,-2.9042,-2.9709,-2.9652,-3.0176,-3.1049,-3.1474,-3.1547,-3.1513,-3.232,-3.2614,-3.2651,-3.2926,-3.3366,-3.3807,-3.3807,-3.3807,-3.3807,-3.3807,-3.3807,-3.3807,-3.3807,-3.3807,-3.3733,-3.3458,-3.3605,-3.3733,-3.3458,-3.3605,-3.3807,-3.3807,-3.3587,-3.3476,-3.3752,-3.2908,-3.1843,-3.076,-2.9934,-2.9089,-2.8197,-2.7979,-2.784,-2.7667,-2.6852,-2.6453,-2.6739,-2.5866,-2.5303,-2.5303,-2.5303,-2.5303,-2.5303,-2.5303,-2.5303,-2.5303,-2.5303,-2.5303,-2.5303,-2.6755,-2.7601,-2.7928,-2.9313,-2.9967,0.0,-1.6028,-1.7168,-1.9058,-1.9723,-1.9987,-2.0288,-2.0075,-1.966,-1.9133,-1.8267,-1.772,-1.8179,-1.8205,-1.8517,-1.9497,-2.0631,-2.1243,-2.1036,-2.1186,-2.1186,-2.0767,-2.0917,0.0,0.0,0.0,0.0,-2.2634,-2.2724,-2.2936,-2.3565,-2.3834,-2.3849,-2.361,-2.5581,-2.6535,-2.6278,-2.8377,-2.9381,-2.9381,-2.8602,-2.7977,-2.752,-2.7723,-2.7977,-2.8264,-2.8772,-2.9262,-2.9651,-2.8941,-2.9228,-3.0099,-3.0252,-3.092,-3.1831,-3.2129,-3.2082,-3.1898,-3.243,-3.2412,-3.2284,-3.2852,-3.3385,-3.3807,-3.3807,-3.3807,-3.3807,-3.3807,-3.3807,-3.3807,-3.3807,-3.3807,-3.3807,-3.3807,-3.3807,-3.3807,-3.3807,-3.3807,-3.3807,-3.3807,-3.3807,-3.3807,-3.3807,-3.2889,-3.1733,-3.0393,-2.9531,-2.886,-2.8463,-2.8493,-2.8501,-2.8314,-2.75,-2.6977,-2.6973,-2.6142,-2.5499,-2.5222,-2.5264,-2.5303,-2.5303,-2.5303,-2.5303,-2.5303,-2.5303,-2.5303,-2.5303,-2.6736,-2.7601,-2.7928,-2.9294,-2.9775,-1.4687,-1.6643,-1.8481,-1.8946,-2.0288,-2.1154,-2.0049,-1.9786,-1.961,-1.9008,-1.7652,-1.6832,0.0,0.0,-1.7004,-1.856,-1.8893,-1.9139,-1.9698,-2.0333,-2.0782,0.0,0.0,0.0,0.0,0.0,0.0,-2.2787,0.0,-2.2966,-2.3625,-2.4268,-2.4343,-2.3714,-2.6083,-2.7064,-2.6391,-2.891,-3.0142,-3.0091,-2.9381,-2.8991,-2.889,-2.8197,-2.8281,-2.9011,-2.9025,-2.9059,-2.9144,-2.9837,-3.0125,-3.0285,-3.1829,-3.2449,-3.2616,-3.3411,-3.323,-3.2614,-3.2614,-3.21,-3.1696,-3.3238,-3.377,-3.3807,-3.3807,-3.3807,-3.3807,-3.3807,-3.3807,-3.3807,-3.3807,-3.3807,-3.3807,-3.3807,-3.3807,-3.3807,-3.3807,-3.3807,-3.3807,-3.3807,-3.3807,-3.3807,-3.3807,-3.2485,-3.1201,-3.0448,-2.9604,-2.9049,-2.8994,-2.9225,-2.9055,-2.8236,-2.824,-2.7702,-2.6177,-2.611,-2.5799,-2.5037,-2.5182,-2.5274,-2.5264,-2.5303,-2.5303,-2.5274,-2.5284,-2.5303,-2.5303,-2.6217,-2.7063,-2.7852,-2.8698,-2.8659,-1.602,-1.7746,-1.9294,-2.0079,-2.0564,-2.069,-1.9962,-1.9497,-1.8957,-1.8003,-1.7112,-1.6476,0.0,0.0,0.0,-1.759,-1.8803,0.0,-2.0378,-2.1021,0.0,0.0,0.0,-2.331,-2.3834,-2.4328,0.0,0.0,-2.3505,-2.3176,-2.4313,-2.4492,-2.4777,-2.5091,-2.7039,-2.8025,-2.7865,-2.9886,-3.0649,-3.0108,-2.9922,-2.9228,-2.8129,-2.8518,-2.8789,-2.9008,-2.9583,-3.0125,-3.0598,-3.026,-3.0429,-3.0946,-3.1096,-3.1687,-3.2512,-3.2457,-3.252,-3.2614,-3.2614,-3.2485,-3.2375,-3.2779,-3.3311,-3.3807,-3.3807,-3.3807,-3.3807,-3.3807,-3.3807,-3.3807,-3.3807,-3.3807,-3.3807,-3.3807,-3.3807,-3.3807,-3.3807,-3.3807,-3.3807,-3.3807,-3.3807,-3.3807,-3.3807,-3.2963,-3.2228,-3.2027,-3.0797,-2.9696,-2.9067,-2.9044,-2.9016,-2.8795,-2.788,-2.7121,-2.671,-2.5747,-2.5069,-2.4855,-2.4993,-2.503,-2.4923,-2.516,-2.5224,-2.5088,-2.5224,-2.5303,-2.5303,-2.6832,-2.7351,-2.6967,-2.8409,-2.8659,-1.7245,-1.8836,-2.0196,-2.0615,-2.0718,-2.0451,-1.9648,-1.8857,-1.8129,-1.7513,-1.6722,0.0,0.0,0.0,0.0,0.0,0.0,0.0,-2.0102,-2.1081,-2.2039,0.0,-2.3909,0.0,-2.5016,-2.539,-2.5615,0.0,-2.4328,-2.3984,-2.5001,-2.5061,-2.5226,-2.56,-2.7441,-2.871,-2.9221,-3.0222,-3.0666,-3.0581,-2.9583,-2.8839,-2.8332,-2.8433,-2.8298,-2.8044,0.0,-2.9651,-2.9736,-3.0006,-3.0345,-3.0738,-3.1057,-3.1707,-3.2497,-3.2529,-3.2764,-3.3128,-3.3128,-3.3128,-3.3128,-3.3128,-3.344,-3.3807,-3.3807,-3.3807,-3.3807,-3.3807,-3.3807,-3.3807,-3.3807,-3.3807,-3.3807,-3.3807,-3.3807,-3.3807,-3.3807,-3.3807,-3.3807,-3.3807,-3.3807,-3.3697,-3.333,-3.2908,-3.2485,-3.2137,-3.0999,-3.0044,-2.9586,-2.9237,-2.8847,-2.8521,-2.7769,-2.7002,-2.63,-2.5609,-2.5048,-2.4689,-2.4809,-2.4877,-2.4804,-2.4975,-2.5024,-2.4917,-2.5024,-2.5115,-2.5163,-2.6151,-2.6625,-2.6621,-2.7563,-2.7755,-1.7986,-1.962,-2.0902,-2.0612,-2.0598,-2.0351,-1.9183,-1.8129,-1.7363,-1.7287,0.0,0.0,-1.6421,0.0,-1.6107,-1.6975,0.0,-1.7871,-1.9605,-2.0908,-2.2233,-2.3684,-2.4896,-2.5674,-2.5854,-2.5869,-2.5869,-2.5869,-2.5255,-2.5136,-2.5704,-2.5734,-2.5826,-2.5995,-2.7719,-2.9087,-3.0145,-3.0124,-3.0378,-3.0886,-2.9008,-2.8366,-2.8805,-2.823,-2.7621,-2.7063,0.0,0.0,-2.833,-2.9702,-3.026,-3.0349,-3.1308,-3.2004,-3.2451,-3.2952,-3.3361,-3.3734,-3.3762,-3.3807,-3.3807,-3.3807,-3.3807,-3.3807,-3.3807,-3.3807,-3.3807,-3.3807,-3.3807,-3.3807,-3.3807,-3.3807,-3.3807,-3.3807,-3.3807,-3.3807,-3.3807,-3.3807,-3.3807,-3.3807,-3.3807,-3.3587,-3.2889,-3.2761,-3.2522,-3.1806,-3.0944,-3.0356,-3.0356,-2.9567,-2.8705,-2.7879,-2.7695,-2.7016,-2.5531,-2.5449,-2.5206,-2.4498,-2.4654,-2.4746,-2.4716,-2.4775,-2.479,-2.476,-2.4903,-2.5026,-2.5126,-2.5241,-2.5715,-2.657,-2.6551,-2.6504,-1.7221,-1.9039,-2.0494,-1.9823,-2.014,-2.0315,-1.8706,-1.784,0.0,0.0,0.0,-1.6409,-1.6497,0.0,0.0,-1.7167,0.0,0.0,0.0,0.0,0.0,0.0,0.0,0.0,0.0,0.0,0.0,0.0,0.0,0.0,-2.6422,-2.6422,-2.6904,-2.7965,-2.8794,-2.9295,-2.9403,-2.9856,-2.9854,-2.9364,-2.96,-2.9127,-2.8044,-2.8552,-2.8704,-2.8638,0.0,0.0,-3.0632,-3.0903,-3.1004,-3.1021,-3.124,-3.1582,-3.1986,-3.2451,-3.2903,-3.3332,-3.368,-3.3807,-3.3807,-3.3807,-3.3807,-3.3807,-3.3807,-3.3807,-3.3807,-3.3807,-3.3807,-3.3807,-3.3807,-3.3807,-3.3807,-3.3807,-3.3807,-3.3807,-3.3807,-3.3807,-3.3807,-3.3807,-3.3807,-3.3752,-3.3623,-3.3587,-3.3532,-3.3403,-3.2118,-3.1182,-3.1182,-2.9916,-2.8705,-2.7879,-2.72,-2.6429,-2.5495,-2.4816,-2.4394,-2.4266,-2.4426,-2.4478,-2.4321,-2.4623,-2.4716,-2.4561,-2.5377,-2.5793,-2.5838,-2.6496,-2.666,-2.6346,-2.6352,-2.606,-1.7574,-1.8924,-1.979,-1.9351,-1.9456,-1.9263,-1.7934,0.0,0.0,0.0,0.0,-1.6522,-1.6522,0.0,0.0,0.0,0.0,0.0,0.0,0.0,0.0,0.0,0.0,0.0,0.0,0.0,0.0,0.0,0.0,0.0,-2.7096,-2.7096,-2.7379,-2.8027,-2.8904,-2.938,-2.9286,-2.9815,-3.0125,-3.0125,-2.9719,-2.9347,-2.9008,-2.8991,-2.9011,-2.9045,-2.9397,0.0,-3.0666,-3.1038,-3.119,-3.119,-3.119,-3.1449,-3.1825,-3.2057,-3.2433,-3.284,-3.3075,-3.3284,-3.3494,-3.3494,-3.3625,-3.3807,-3.3807,-3.3807,-3.3807,-3.3807,-3.3807,-3.3807,-3.3807,-3.3807,-3.3807,-3.3807,-3.3807,-3.3807,-3.3807,-3.3807,-3.3807,-3.3807,-3.3807,-3.3807,-3.3807,-3.3807,-3.3807,-3.3807,-3.243,-3.1384,-3.1384,-3.0008,-2.8517,-2.731,-2.6833,-2.6098,-2.4869,-2.441,-2.419,-2.419,-2.4284,-2.4303,-2.419,-2.4393,-2.4444,-2.4358,-2.4817,-2.5107,-2.5223,-2.5614,-2.5706,-2.5522,-2.5517,-2.5361,-1.7687,-1.8593,-1.9061,-1.878,-1.8543,-1.8182,-1.7179,-1.6703,0.0,0.0,0.0,-1.6522,-1.6522,0.0,0.0,0.0,0.0,0.0,0.0,0.0,0.0,0.0,0.0,0.0,0.0,0.0,0.0,0.0,0.0,0.0,-2.7625,-2.7625,-2.7625,-2.7625,-2.8623,-2.9182,-2.9182,-2.9629,-3.0159,-3.0717,-2.9702,-2.9448,-2.9854,-2.9414,-2.9228,-2.9262,-2.9854,0.0,0.0,-3.0954,-3.119,-3.119,-3.119,-3.1372,-3.1696,-3.1789,-3.2022,-3.2366,-3.2484,-3.2809,-3.3214,-3.3214,-3.3465,-3.3807,-3.3807,-3.3807,-3.3807,-3.3807,-3.3807,-3.3807,-3.3807,-3.3935,-3.41,-3.4284,-3.4064,-3.3899,-3.4266,-3.4192,-3.4064,-3.4064,-3.4064,-3.4009,-3.3825,-3.3807,-3.3807,-3.3807,-3.2577,-3.1586,-3.1403,-3.0155,-2.865,-2.7034,-2.6704,-2.6025,-2.4575,-2.43,-2.419,-2.419,-2.419,-2.419,-2.419,-2.419,-2.419,-2.419,-2.4373,-2.4524,-2.4687,-2.4687,-2.4806,-2.4994,-2.4825,-2.476,-1.6284,-1.7449,-1.8449,-1.7596,-1.7645,-1.7677,-1.667,0.0,0.0,0.0,-1.6522,-1.6522,-1.6522,-1.6948,0.0,0.0,0.0,0.0,0.0,0.0,0.0,0.0,0.0,0.0,0.0,0.0,0.0,0.0,0.0,0.0,0.0,-2.7625,-2.7625,-2.7625,-2.8107,-2.8387,-2.8387,-2.8865,-2.9163,-2.9231,-2.9736,-2.9685,-2.911,-2.9719,-3.0006,-3.0006,0.0,0.0,0.0,-3.1157,-3.119,-3.119,-3.119,-3.123,-3.1291,-3.166,-3.1825,-3.1933,-3.235,-3.2809,-3.3214,-3.3214,-3.3465,-3.3807,-3.3807,-3.3807,-3.3807,-3.3807,-3.3807,-3.3807,-3.3807,-3.4357,-3.5082,-3.5881,-3.4908,-3.4211,-3.5734,-3.5459,-3.488,-3.488,-3.488,-3.4642,-3.3935,-3.3807,-3.3807,-3.3807,-3.3054,-3.2228,-3.1476,-3.0632,-2.9475,-2.786,-2.7034,-2.6245,-2.5366,-2.4612,-2.419,-2.419,-2.419,-2.419,-2.419,-2.419,-2.419,-2.419,-2.4925,-2.5293,-2.5312,-2.5312,-2.543,-2.5594,-2.4883,-2.4623,-1.5605,-1.6545,-1.7252,-1.6356,-1.6374,-1.6324,-1.5383,0.0,0.0,-1.5952,-1.6238,-1.6522,-1.6522,-1.671,-1.6785,0.0,0.0,0.0,0.0,0.0,0.0,0.0,0.0,0.0,0.0,0.0,0.0,0.0,0.0,0.0,0.0,-2.7625,-2.7625,-2.7625,-2.8137,-2.8381,-2.8307,-2.9272,-2.975,-2.9668,-3.0412,-3.0598,-3.0328,-3.0632,-3.0768,-3.0768,0.0,0.0,0.0,-3.1664,-3.1596,-3.1275,-3.2188,-3.2239,-3.1941,-3.2548,-3.2508,-3.2137,-3.2311,-3.2351,-3.2366,-3.2366,-3.2663,-3.3136,-3.3634,-3.3807,-3.3807,-3.3807,-3.3807,-3.3917,-3.4412,-3.5165,-3.5752,-3.5569,-3.5018,-3.4578,-3.4761,-3.4523,-3.4284,-3.4284,-3.4284,-3.4192,-3.3862,-3.3807,-3.3807,-3.3807,-3.3128,-3.232,-3.1494,-3.0705,-2.9769,-2.865,-2.7805,-2.6796,-2.5513,-2.5109,-2.4704,-2.4226,-2.419,-2.419,-2.419,-2.419,-2.419,-2.419,-2.4502,-2.4667,-2.4667,-2.4667,-2.4725,-2.4801,-2.4469,-2.4357,-1.4951,-1.5586,-1.5977,-1.5225,-1.5194,-1.5123,0.0,0.0,0.0,-1.5543,-1.5952,-1.6281,-1.6466,-1.666,-1.6773,0.0,0.0,0.0,0.0,0.0,0.0,0.0,0.0,0.0,0.0,0.0,0.0,0.0,0.0,0.0,0.0,-2.7625,-2.7625,-2.7625,-2.799,-2.8249,-2.836,-2.942,-3.0054,-3.018,-3.0858,-3.119,-3.119,-3.119,-3.119,-3.119,0.0,0.0,0.0,-3.1749,-3.1782,-3.1596,-3.2425,-3.2696,-3.2645,-3.2949,-3.273,-3.2313,-3.2313,-3.2085,-3.1789,-3.1789,-3.2127,-3.2616,-3.3225,-3.3504,-3.3652,-3.378,-3.3972,-3.4412,-3.5459,-3.6028,-3.6266,-3.6138,-3.5724,-3.5367,-3.5275,-3.4871,-3.4541,-3.4541,-3.4339,-3.4082,-3.3844,-3.3807,-3.3807,-3.3807,-3.333,-3.2669,-3.1861,-3.1054,-3.0246,-2.9457,-2.865,-2.7603,-2.6248,-2.5678,-2.5164,-2.4575,-2.4318,-2.43,-2.4538,-2.4318,-2.43,-2.4538,-2.4318,-2.419,-2.419,-2.419,-2.419,-2.419,-2.419,-2.419,-1.4087,-1.4473,-1.4697,-1.4204,-1.4265,-1.4296,0.0,0.0,-1.488,-1.5499,-1.5588,-1.5776,-1.638,-1.6986,-1.7375,0.0,0.0,0.0,0.0,0.0,0.0,0.0,0.0,0.0,0.0,0.0,0.0,0.0,0.0,0.0,0.0,-2.7625,-2.7625,-2.7625,-2.7483,-2.7767,-2.8496,-2.8963,-2.9568,-3.0293,-3.0918,-3.119,-3.119,-3.119,-3.119,0.0,0.0,0.0,0.0,-3.1207,-3.163,-3.2205,-3.1495,-3.2104,-3.3305,-3.256,-3.233,-3.2313,-3.2313,-3.2085,-3.1789,-3.1789,-3.2127,-3.2484,-3.2517,-3.284,-3.3302,-3.368,-3.4376,-3.5357,-3.7037,-3.689,-3.6688,-3.8303,-3.7441,-3.6725,-3.8303,-3.7404,-3.6266,-3.6266,-3.5587,-3.4715,-3.3935,-3.3807,-3.3807,-3.3807,-3.3788,-3.3495,-3.2706,-3.188,-3.1072,-3.0265,-2.9475,-2.8668,-2.7842,-2.6321,-2.5403,-2.5403,-2.463,-2.4557,-2.5348,-2.4612,-2.4557,-2.5384,-2.4612,-2.419,-2.419,-2.419,-2.419,-2.419,-2.419,-2.419,-1.3711,-1.4014,-1.4238,-1.3809,-1.3748,-1.3681,-1.33,0.0,-1.4283,-1.488,-1.532,-1.5776,-1.638,-1.6672,-1.6785,-1.6785,0.0,0.0,0.0,0.0,0.0,0.0,0.0,0.0,0.0,0.0,0.0,0.0,0.0,0.0,0.0,-2.7625,-2.7625,-2.7625,-2.7549,-2.7601,-2.7767,-2.8793,-2.942,-2.9552,-3.0683,-3.119,-3.119,-3.119,0.0,0.0,0.0,0.0,0.0,-3.1732,-3.207,-3.2357,-3.3136,-3.3728,-3.4117,-3.388,-3.3795,-3.3643,-3.2628,-3.2224,-3.2037,-3.1543,-3.1487,-3.1657,-3.1933,-3.2332,-3.2809,-3.3255,-3.474,-3.6222,-3.6593,-3.7312,-3.7711,-3.6807,-3.6437,-3.6062,-3.5139,-3.4757,-3.4578,-3.4578,-3.4376,-3.41,-3.3844,-3.3807,-3.3707,-3.3419,-3.2964,-3.2244,-3.1099,-3.0309,-2.952,-2.8703,-2.8398,-2.8131,-2.7838,-2.6833,-2.5988,-2.5439,-2.5164,-2.5146,-2.5403,-2.5676,-2.5695,-2.5421,-2.5164,-2.474,-2.419,-2.419,-2.419,-2.419,-2.419,-2.419,0.0,-1.3467,-1.3603,-1.334,-1.3271,0.0,0.0,0.0,0.0,-1.4525,-1.5017,-1.5511,-1.6337,-1.6522,-1.666,0.0,0.0,0.0,0.0,0.0,0.0,0.0,0.0,0.0,0.0,0.0,0.0,0.0,0.0,0.0,0.0,0.0,-2.737,-2.761,-2.7625,-2.7564,-2.7466,-2.8514,-2.9003,-2.8968,-3.0245,-3.0878,-3.0878,-3.1112,0.0,0.0,0.0,0.0,0.0,-3.1985,-3.2442,-3.2797,-3.3728,-3.4421,-3.4878,-3.459,-3.4489,-3.4353,-3.344,-3.2933,-3.2628,-3.2171,-3.2036,-3.2009,-3.2021,-3.2422,-3.31,-3.3952,-3.5252,-3.643,-3.6588,-3.7392,-3.7724,-3.6137,-3.5948,-3.5752,-3.4163,-3.3815,-3.3767,-3.3767,-3.3513,-3.3314,-3.3314,-3.3314,-3.3225,-3.2983,-3.254,-3.1839,-3.0792,-2.9999,-2.9219,-2.8439,-2.8074,-2.7897,-2.7827,-2.7227,-2.6603,-2.6111,-2.5926,-2.5988,-2.6303,-2.6502,-2.6502,-2.6321,-2.5715,-2.5164,-2.4649,-2.4337,-2.419,-2.419,-2.419,-2.419,0.0,0.0,0.0,0.0,0.0,0.0,0.0,0.0,0.0,0.0,0.0,0.0,0.0,0.0,0.0,0.0,0.0,0.0,0.0,0.0,0.0,0.0,0.0,0.0,0.0,0.0,0.0,0.0,0.0,0.0,0.0,0.0,-2.6797,-2.746,-2.752,-2.7565,-2.7625,-2.8189,-2.8511,-2.8511,-2.9673,-3.0251,-3.0251,-3.0838,0.0,0.0,0.0,0.0,0.0,-3.1985,-3.273,-3.3406,-3.3457,-3.437,-3.552,-3.4776,-3.4523,-3.4556,-3.4455,-3.4015,-3.3457,-3.3372,-3.3372,-3.3271,-3.2577,-3.2976,-3.397,-3.5382,-3.5858,-3.6143,-3.6907,-3.7137,-3.696,-3.6093,-3.588,-3.5687,-3.4854,-3.411,-3.3613,-3.3613,-3.2995,-3.2484,-3.2484,-3.2484,-3.2466,-3.2362,-3.2327,-3.2009,-3.1246,-3.0455,-2.9695,-2.9001,-2.8264,-2.7794,-2.7794,-2.7424,-2.7162,-2.7162,-2.6791,-2.6951,-2.7684,-2.7083,-2.7046,-2.7746,-2.6209,-2.5403,-2.5403,-2.4575,-2.4226,-2.4281,-2.4226,-2.419,0.0,0.0,0.0,0.0,0.0,0.0,0.0,0.0,0.0,0.0,0.0,0.0,0.0,0.0,0.0,0.0,0.0,0.0,0.0,0.0,0.0,0.0,0.0,0.0,0.0,0.0,0.0,0.0,0.0,0.0,0.0,0.0,-2.5914,-2.6063,-2.6557,-2.7066,-2.756,-2.8189,-2.8511,-2.8511,-2.9271,-2.9629,-2.9629,-2.9761,0.0,0.0,0.0,0.0,-3.1258,-3.1985,-3.273,-3.3457,-3.4015,-3.481,-3.552,-3.4776,-3.4861,-3.5199,-3.4049,-3.3914,-3.4049,-3.2916,-3.2933,-3.3372,-3.3186,-3.3675,-3.4339,-3.4497,-3.5397,-3.626,-3.6209,-3.6712,-3.6761,-3.5028,-3.4848,-3.4624,-3.2913,-3.2669,-3.2783,-3.2783,-3.2641,-3.2484,-3.2484,-3.2484,-3.2172,-3.1271,-3.0644,-2.9883,-2.8785,-2.7997,-2.7449,-2.7261,-2.7089,-2.7004,-2.7004,-2.6889,-2.681,-2.681,-2.673,-2.6756,-2.696,-2.7612,-2.7779,-2.7345,-2.6066,-2.5403,-2.5403,-2.4575,-2.452,-2.5109,-2.4483,-2.419,0.0,0.0,0.0,0.0,0.0,0.0,0.0,0.0,0.0,0.0,0.0,0.0,0.0,0.0,0.0,0.0,0.0,0.0,0.0,0.0,0.0,0.0,0.0,0.0,0.0,0.0,0.0,0.0,0.0,0.0,0.0,0.0,-2.53,-2.56,-2.5659,-2.6153,-2.7111,-2.7758,-2.8091,-2.8091,-2.8685,-2.9012,-2.9012,-2.9271,0.0,0.0,0.0,0.0,-3.0476,-3.1833,-3.262,-3.3098,-3.4098,-3.4742,-3.5013,-3.4269,-3.4455,-3.4979,-3.4184,-3.4387,-3.4759,-3.3271,-3.3525,-3.4286,-3.3609,-3.415,-3.4955,-3.4848,-3.5394,-3.5908,-3.5388,-3.563,-3.5625,-3.4163,-3.4012,-3.3783,-3.232,-3.2231,-3.2295,-3.1948,-3.1878,-3.1878,-3.1878,-3.1601,-3.1166,-3.0518,-2.9814,-2.8972,-2.7909,-2.7469,-2.708,-2.6725,-2.6691,-2.6691,-2.6691,-2.6691,-2.6787,-2.6965,-2.7137,-2.725,-2.725,-2.7843,-2.7681,-2.6682,-2.6036,-2.5445,-2.4832,-2.4777,-2.4777,-2.4832,-2.4392,-2.419,0.0,0.0,0.0,0.0,0.0,0.0,0.0,0.0,0.0,0.0,0.0,0.0,0.0,0.0,0.0,0.0,0.0,0.0,0.0,0.0,0.0,0.0,0.0,0.0,0.0,0.0,0.0,0.0,0.0,0.0,0.0,0.0,0.0,-2.5285,-2.4821,-2.5166,-2.6273,-2.7036,-2.752,-2.7625,-2.814,-2.8367,-2.8367,-2.8904,-2.918,0.0,0.0,0.0,-2.9547,-3.1414,-3.218,-3.2307,-3.3545,-3.4129,-3.4105,-3.3481,-3.371,-3.4336,-3.4455,-3.4979,-3.5402,-3.4015,-3.4506,-3.5334,-3.3863,-3.437,-3.5453,-3.5453,-3.552,-3.547,-3.4827,-3.4675,-3.4472,-3.3744,-3.3575,-3.3339,-3.2459,-3.2313,-3.207,-3.1326,-3.119,-3.1157,-3.1055,-3.0514,-3.0023,-2.9786,-2.9211,-2.8518,-2.774,-2.7638,-2.7402,-2.6759,-2.6691,-2.6691,-2.6691,-2.6691,-2.6841,-2.7178,-2.753,-2.7736,-2.7811,-2.7811,-2.7262,-2.6135,-2.6165,-2.5674,-2.4582,-2.5082,-2.5029,-2.4479,-2.4299,-2.419,-1.1823,0.0,0.0,0.0,0.0,0.0,0.0,0.0,0.0,0.0,0.0,0.0,0.0,0.0,0.0,0.0,0.0,0.0,0.0,0.0,0.0,0.0,0.0,0.0,0.0,0.0,0.0,0.0,0.0,0.0,0.0,0.0,0.0,-2.3909,-2.4373,-2.4686,-2.4881,-2.6138,-2.7021,-2.7625,-2.771,-2.771,-2.776,-2.7845,-2.8174,0.0,0.0,-2.8919,-2.947,-3.0408,-3.0822,-3.0886,-3.1706,-3.2371,-3.2796,-3.268,-3.3038,-3.366,-3.4269,-3.4979,-3.547,-3.4607,-3.4912,-3.5334,-3.3863,-3.3998,-3.4675,-3.4675,-3.5131,-3.5588,-3.547,-3.5453,-3.5267,-3.4506,-3.432,-3.3947,-3.2577,-3.2313,-3.207,-3.1326,-3.119,-3.1004,-3.0378,-3.0176,-2.9668,-2.833,-2.8078,-2.7723,-2.6962,-2.686,-2.6826,-2.6708,-2.6691,-2.6691,-2.6691,-2.6691,-2.6725,-2.6791,-2.6841,-2.7036,-2.7378,-2.7378,-2.7157,-2.6614,-2.6597,-2.6499,-2.6321,-2.5362,-2.5172,-2.5682,-2.4675,-2.419,-1.0813,-1.1484,0.0,0.0,0.0,0.0,0.0,0.0,0.0,0.0,0.0,0.0,0.0,0.0,0.0,0.0,0.0,0.0,0.0,0.0,0.0,0.0,0.0,0.0,0.0,0.0,0.0,0.0,0.0,0.0,0.0,0.0,0.0,0.0,-2.3909,-2.4253,-2.4582,-2.5226,-2.6033,-2.7036,-2.7036,-2.723,-2.7625,-2.7625,-2.776,-2.7993,0.0,-2.8174,-2.8494,-2.9595,-3.0006,-3.0085,-3.0751,-3.116,-3.1437,-3.1437,-3.1818,-3.2438,-3.2813,-3.3623,-3.4315,-3.3244,-3.3639,-3.4329,-3.32,-3.316,-3.3532,-3.3826,-3.4438,-3.5013,-3.5013,-3.4726,-3.4438,-3.4489,-3.388,-3.322,-3.2949,-3.256,-3.207,-3.1326,-3.119,-3.1089,-3.0751,-3.0362,-2.9736,-2.8619,-2.8095,-2.7554,-2.6793,-2.6691,-2.6691,-2.6691,-2.6691,-2.6691,-2.6691,-2.6691,-2.6691,-2.6691,-2.6691,-2.6774,-2.6971,-2.6578,-2.6389,-2.6371,-2.6411,-2.6304,-2.6047,-2.5887,-2.5554,-2.5062,-2.4707,-2.4314,-1.0115,-1.0914,0.0,0.0,0.0,0.0,0.0,0.0,0.0,0.0,0.0,0.0,0.0,0.0,0.0,0.0,0.0,0.0,0.0,0.0,0.0,0.0,0.0,0.0,0.0,0.0,0.0,0.0,0.0,0.0,0.0,0.0,0.0,0.0,-2.352,-2.3849,-2.4373,-2.4388,-2.5136,-2.6587,-2.6587,-2.6931,-2.7625,-2.7625,-2.7625,-2.7625,-2.7625,-2.7625,-2.7655,-2.8725,-2.9123,-2.9172,-2.9626,-2.9911,-3.0051,-3.019,-3.0685,-3.1278,-3.1325,-3.2111,-3.2992,-3.2079,-3.2399,-3.3026,-3.2575,-3.2287,-3.2208,-3.279,-3.3238,-3.3678,-3.4141,-3.3829,-3.3541,-3.4117,-3.3372,-3.2662,-3.3051,-3.2679,-3.207,-3.1326,-3.119,-3.114,-3.097,-3.0328,-2.9583,-2.8822,-2.8044,-2.7351,-2.6776,-2.6691,-2.6691,-2.6691,-2.6691,-2.6691,-2.6691,-2.6691,-2.6691,-2.6691,-2.6691,-2.6691,-2.6691,-2.6167,-2.5975,-2.6241,-2.6303,-2.616,-2.5782,-2.6286,-2.5938,-2.4725,-2.4699,-2.4382,-1.0559,-1.1266,0.0,0.0,0.0,0.0,0.0,0.0,0.0,0.0,0.0,0.0,0.0,0.0,0.0,0.0,0.0,0.0,0.0,0.0,0.0,0.0,0.0,0.0,0.0,0.0,0.0,0.0,0.0,0.0,0.0,0.0,0.0,0.0,0.0,-2.3625,-2.367,-2.367,-2.4657,-2.6587,-2.6587,-2.6931,-2.7625,-2.7625,-2.7625,-2.7625,-2.7625,-2.7625,-2.7625,-2.772,-2.7735,-2.7735,-2.7786,-2.8152,-2.8716,-2.9259,-2.9948,-3.0541,-3.0603,-3.1101,-3.1839,-3.2335,-3.2192,-3.1855,-3.2318,-3.1646,-3.0796,-3.1453,-3.1227,-3.1196,-3.3017,-3.344,-3.3423,-3.3474,-3.3406,-3.3152,-3.251,-3.2364,-3.207,-3.1326,-3.119,-3.097,-3.0311,-2.9567,-2.8805,-2.8027,-2.7249,-2.6759,-2.6708,-2.6691,-2.6691,-2.6691,-2.6691,-2.6691,-2.6691,-2.6691,-2.6691,-2.6691,-2.6691,-2.6691,-2.6691,-2.664,-2.664,-2.6657,-2.664,-2.6656,-2.6622,-2.6293,-2.6066,-2.5957,-2.4857,-2.4314,-0.9465,-1.0364,0.0,0.0,0.0,0.0,0.0,0.0,0.0,0.0,0.0,0.0,0.0,0.0,0.0,0.0,0.0,0.0,0.0,0.0,0.0,0.0,0.0,0.0,0.0,0.0,0.0,0.0,0.0,0.0,0.0,0.0,0.0,0.0,0.0,-2.3206,-2.3595,-2.3595,-2.4193,-2.5375,-2.5375,-2.5719,-2.6363,-2.6782,-2.6961,-2.6976,-2.7395,-2.7625,-2.7595,-2.7126,-2.6961,-2.6961,-2.6961,-2.7109,-2.7382,-2.8069,-2.8701,-2.9273,-2.8827,-2.9412,-3.032,-3.0166,-3.0212,-3.0371,-3.0592,-3.0037,-2.9438,-3.0005,-2.9721,-2.9737,-3.1759,-3.1925,-3.1696,-3.2154,-3.1581,-3.0975,-3.1122,-3.0828,-3.0391,-3.013,-3.0081,-2.9982,-2.9721,-2.9749,-2.9536,-2.8788,-2.8736,-2.8653,-2.818,-2.7689,-2.7402,-2.7402,-2.6962,-2.6691,-2.6691,-2.6691,-2.6691,-2.6691,-2.6691,-2.6691,-2.6691,-2.6691,-2.6691,-2.6691,-2.6691,-2.6691,-2.6691,-2.6536,-2.6226,-2.578,-2.5057,-2.4749,-0.9361,-1.0261,0.0,0.0,0.0,0.0,0.0,0.0,0.0,0.0,0.0,0.0,0.0,0.0,0.0,0.0,0.0,0.0,0.0,0.0,0.0,0.0,0.0,0.0,0.0,0.0,0.0,0.0,0.0,0.0,0.0,0.0,0.0,0.0,0.0,-2.2772,-2.3595,-2.34,-2.364,-2.4253,-2.4253,-2.4762,-2.563,-2.6078,-2.6273,-2.6303,-2.6752,-2.6946,-2.6916,-2.6467,-2.6273,-2.6273,-2.6273,-2.6408,-2.6647,-2.7096,-2.7694,-2.8203,-2.779,-2.8225,-2.8906,-2.8682,-2.8757,-2.9042,-2.9434,-2.894,-2.8408,-2.8995,-2.8729,-2.8535,-2.997,-3.0244,-3.0268,-3.0765,-3.014,-2.9534,-3.0044,-2.9742,-2.9406,-2.9406,-2.9406,-2.9406,-2.9406,-2.9523,-2.9515,-2.8967,-2.9065,-2.9004,-2.8505,-2.7935,-2.7574,-2.7523,-2.7028,-2.6691,-2.6691,-2.6691,-2.6691,-2.6691,-2.6691,-2.6691,-2.6691,-2.6691,-2.6691,-2.6691,-2.6691,-2.6691,-2.6691,-2.6691,-2.6437,-2.593,-2.5419,-2.521,-1.0618,0.0,0.0,0.0,0.0,0.0,0.0,0.0,0.0,0.0,0.0,0.0,0.0,0.0,0.0,0.0,0.0,0.0,0.0,0.0,0.0,0.0,0.0,0.0,0.0,0.0,0.0,0.0,0.0,0.0,0.0,0.0,0.0,0.0,0.0,0.0,-2.3565,-2.2981,-2.2981,-2.358,-2.358,-2.4283,-2.5585,-2.56,-2.56,-2.56,-2.5615,-2.5615,-2.5615,-2.56,-2.56,-2.5585,-2.56,-2.6004,-2.6572,-2.6587,-2.7006,-2.7625,-2.7625,-2.7625,-2.7679,-2.8368,-2.8128,-2.7865,-2.916,-2.8637,-2.776,-2.8397,-2.8098,-2.7625,-2.7625,-2.8496,-2.9361,-2.9361,-2.9361,-2.9361,-2.9361,-2.9361,-2.9361,-2.9361,-2.9361,-2.9361,-2.9361,-2.877,-2.8307,-2.8307,-2.7689,-2.7216,-2.7201,-2.7201,-2.7121,-2.6907,-2.6766,-2.6691,-2.6691,-2.6691,-2.6691,-2.6691,-2.6691,-2.6691,-2.6691,-2.6691,-2.6691,-2.6691,-2.6691,-2.6691,-2.6691,-2.6691,-2.6691,-2.6674,-2.5947,-2.5609,-0.9361,0.0,0.0,0.0,0.0,0.0,0.0,0.0,0.0,0.0,0.0,0.0,0.0,0.0,0.0,0.0,0.0,0.0,0.0,0.0,0.0,0.0,0.0,0.0,0.0,0.0,0.0,0.0,0.0,0.0,0.0,0.0,0.0,0.0,0.0,0.0,-2.2248,-2.2084,-2.2084,-2.2263,-2.2263,-2.2936,-2.4208,-2.4702,-2.4881,-2.4896,-2.542,-2.5615,-2.557,-2.5106,-2.4642,-2.4283,-2.5241,-2.5734,-2.6019,-2.6946,-2.7445,-2.7625,-2.7625,-2.7625,-2.7655,-2.7814,-2.7739,-2.7685,-2.809,-2.794,-2.767,-2.7814,-2.7724,-2.7625,-2.7625,-2.7845,-2.8125,-2.8125,-2.8125,-2.8125,-2.8125,-2.8125,-2.8125,-2.8125,-2.8125,-2.8125,-2.8125,-2.8278,-2.8436,-2.8436,-2.8614,-2.8562,-2.8051,-2.7556,-2.7038,-2.6455,-2.5962,-2.5635,-2.5635,-2.5635,-2.5635,-2.5635,-2.5997,-2.6367,-2.6691,-2.6691,-2.6691,-2.6691,-2.6691,-2.6691,-2.6691,-2.6691,-2.6691,-2.6674,-2.5947,-2.5879,0.0,0.0,0.0,0.0,0.0,0.0,0.0,0.0,0.0,0.0,0.0,0.0,0.0,0.0,0.0,0.0,0.0,0.0,0.0,0.0,0.0,0.0,0.0,0.0,0.0,0.0,0.0,0.0,0.0,0.0,0.0,0.0,0.0,0.0,0.0,0.0,-2.1385,-2.0903,-2.0903,-2.1385,-2.1385,-2.1916,-2.2964,-2.3568,-2.3984,-2.4238,-2.4642,-2.4807,-2.4777,-2.4388,-2.3969,-2.3684,-2.4492,-2.5136,-2.5674,-2.6213,-2.6737,-2.7186,-2.7186,-2.7186,-2.723,-2.7535,-2.7625,-2.7625,-2.7625,-2.738,-2.7245,-2.755,-2.738,-2.7245,-2.755,-2.7625,-2.7625,-2.7625,-2.7625,-2.7625,-2.7625,-2.7625,-2.7625,-2.7625,-2.7625,-2.7625,-2.7625,-2.791,-2.814,-2.814,-2.8448,-2.8514,-2.8062,-2.7381,-2.6756,-2.632,-2.5616,-2.5221,-2.5221,-2.5221,-2.5221,-2.5221,-2.5486,-2.5799,-2.6087,-2.6505,-2.6691,-2.6691,-2.6691,-2.6691,-2.6691,-2.6691,-2.6691,-2.6674,-2.6234,-2.6285,0.0,0.0,0.0,0.0,0.0,0.0,0.0,0.0,0.0,0.0,0.0,0.0,0.0,0.0,0.0,0.0,0.0,0.0,0.0,0.0,0.0,0.0,0.0,0.0,0.0,0.0,0.0,0.0,0.0,0.0,0.0,0.0,0.0,0.0,0.0,0.0,-2.0635,-1.9543,-1.9543,0.0,-2.0649,-2.1023,-2.1729,-2.2399,-2.3011,-2.3595,-2.3535,-2.352,-2.3505,-2.3445,-2.346,-2.352,-2.358,-2.4388,-2.545,-2.4911,-2.548,-2.6497,-2.6497,-2.6497,-2.6602,-2.72,-2.7445,-2.7445,-2.7445,-2.6976,-2.6632,-2.723,-2.6961,-2.6632,-2.7245,-2.7445,-2.741,-2.747,-2.758,-2.7625,-2.7625,-2.7625,-2.7625,-2.7625,-2.7625,-2.764,-2.77,-2.767,-2.7625,-2.7625,-2.7625,-2.7625,-2.7625,-2.6915,-2.6409,-2.6348,-2.5607,-2.513,-2.5067,-2.5051,-2.5051,-2.5051,-2.5105,-2.5144,-2.5144,-2.6052,-2.659,-2.6624,-2.6624,-2.6657,-2.6691,-2.6691,-2.6691,-2.6691,-2.6691,-2.6691,0.0,0.0,0.0,0.0,0.0,0.0,0.0,0.0,0.0,0.0,0.0,0.0,0.0,0.0,0.0,0.0,0.0,0.0,0.0,0.0,0.0,0.0,0.0,0.0,0.0,0.0,0.0,0.0,0.0,0.0,0.0,0.0,0.0,0.0,0.0,-1.7869,-1.8693,-1.8434,-1.8448,0.0,-1.8693,-1.927,-2.0399,-2.1984,-2.3011,-2.3565,-2.3086,-2.2877,-2.2832,-2.2323,-2.2413,-2.2921,-2.3415,-2.4103,-2.4836,-2.5255,-2.557,-2.5824,-2.5824,-2.5824,-2.5839,-2.5989,-2.6033,-2.6033,-2.6033,-2.5929,-2.5854,-2.5989,-2.5929,-2.5854,-2.5989,-2.6033,-2.6153,-2.6677,-2.72,-2.7625,-2.7625,-2.7625,-2.7625,-2.7625,-2.7625,-2.779,-2.8278,-2.7934,-2.7625,-2.7625,-2.7625,-2.7625,-2.7625,-2.7003,-2.6359,-2.5831,-2.5137,-2.4513,-2.4009,-2.3948,-2.3948,-2.3948,-2.4348,-2.4576,-2.4576,-2.5166,-2.5709,-2.6139,-2.6156,-2.6332,-2.6691,-2.6691,-2.6691,-2.6691,-2.6691,-2.6691,0.0,0.0,0.0,0.0,0.0,0.0,0.0,0.0,0.0,0.0,0.0,0.0,0.0,0.0,0.0,0.0,0.0,0.0,0.0,0.0,0.0,0.0,0.0,0.0,0.0,0.0,0.0,0.0,0.0,0.0,0.0,0.0,0.0,0.0,-1.6909,-1.7146,-1.7706,-1.7463,-1.7463,-1.7706,-1.7706,-1.8343,-1.9565,-2.1129,-2.2015,-2.2279,-2.1984,-2.1845,-2.1845,-2.1733,-2.1924,-2.2233,-2.2555,-2.31,-2.3692,-2.3706,-2.3956,-2.4231,-2.4231,-2.4436,-2.4684,-2.4689,-2.4888,-2.5143,-2.5143,-2.4923,-2.4808,-2.5416,-2.539,-2.5211,-2.5525,-2.5839,-2.6168,-2.6512,-2.6856,-2.7186,-2.755,-2.7625,-2.7625,-2.7625,-2.7625,-2.7679,-2.8038,-2.7814,-2.7625,-2.7625,-2.7625,-2.7455,-2.7141,-2.6797,-2.6213,-2.5241,-2.4791,-2.4358,-2.3655,-2.3595,-2.3595,-2.3595,-2.3879,-2.4032,-2.4032,-2.4282,-2.4831,-2.5615,-2.5615,-2.5726,-2.5964,-2.6245,-2.6367,-2.6367,-2.659,-2.6691,0.0,0.0,0.0,0.0,0.0,0.0,0.0,0.0,0.0,0.0,0.0,0.0,0.0,0.0,0.0,0.0,0.0,0.0,0.0,0.0,0.0,0.0,0.0,0.0,0.0,0.0,0.0,0.0,0.0,0.0,0.0,0.0,-1.6522,-1.6522,-1.6522,-1.671,-1.7146,-1.671,-1.671,-1.7146,-1.7271,-1.7811,-1.8864,-1.9823,-2.0458,-2.0751,-2.0614,-2.0608,-2.0595,-2.0955,-2.1155,-2.1269,-2.1356,-2.1779,-2.2339,-2.1862,-2.2042,-2.2533,-2.2533,-2.2873,-2.3355,-2.3364,-2.3731,-2.4187,-2.4187,-2.3779,-2.3573,-2.4658,-2.4515,-2.4235,-2.4766,-2.5346,-2.5819,-2.6202,-2.6262,-2.6519,-2.741,-2.7625,-2.7625,-2.7625,-2.7715,-2.776,-2.764,-2.773,-2.7709,-2.764,-2.7625,-2.7335,-2.6677,-2.6692,-2.6213,-2.4777,-2.4686,-2.4477,-2.367,-2.3595,-2.3595,-2.3595,-2.3595,-2.3595,-2.3595,-2.3595,-2.4032,-2.491,-2.5012,-2.5105,-2.5221,-2.5652,-2.5852,-2.5888,-2.6245,-2.6505,0.0,0.0,0.0,0.0,0.0,0.0,0.0,0.0,0.0,0.0,0.0,0.0,0.0,0.0,0.0,0.0,0.0,0.0,0.0,0.0,0.0,0.0,0.0,0.0,0.0,0.0,0.0,0.0,0.0,0.0,0.0,-1.6522,-1.6522,-1.6522,-1.6522,-1.6522,-1.6595,-1.6552,-1.6552,-1.6595,-1.7076,-1.7431,-1.7607,-1.7747,-1.8684,-2.017,-1.9573,-1.9335,-1.9293,-1.8766,-1.8932,-1.9475,-1.9945,-2.0536,-2.119,-2.1545,-2.1752,-2.1821,-2.1821,-2.1868,-2.1977,-2.1965,-2.2041,-2.2088,-2.2088,-2.2033,-2.1977,-2.2169,-2.2175,-2.2133,-2.2216,-2.23,-2.278,-2.4534,-2.4956,-2.5453,-2.7205,-2.7625,-2.7625,-2.7625,-2.8053,-2.8263,-2.773,-2.8068,-2.8263,-2.7715,-2.7625,-2.7335,-2.6677,-2.7096,-2.6722,-2.4837,-2.5136,-2.4971,-2.3714,-2.3595,-2.3595,-2.3595,-2.3595,-2.3595,-2.3595,-2.3595,-2.3681,-2.3794,-2.4266,-2.4752,-2.5221,-2.5259,-2.5297,-2.5297,-2.5373,-2.5635,0.0,0.0,0.0,0.0,0.0,0.0,0.0,0.0,0.0,0.0,0.0,0.0,0.0,0.0,0.0,0.0,0.0,0.0,0.0,0.0,0.0,0.0,0.0,0.0,0.0,0.0,0.0,0.0,0.0,0.0,-1.6466,-1.6522,-1.6522,-1.6522,-1.6522,-1.6522,-1.6522,-1.6522,-1.6522,-1.6522,-1.6752,-1.685,-1.6886,-1.688,-1.7501,-1.8565,-1.8242,-1.8098,-1.8098,-1.8151,-1.834,-1.8636,-1.8874,-1.9331,-1.9882,-2.0118,-2.0394,-2.0657,-2.0657,-2.0855,-2.1113,-2.0756,-2.0904,-2.121,-2.121,-2.121,-2.1245,-2.1615,-2.1697,-2.1697,-2.1697,-2.1959,-2.2471,-2.3371,-2.3865,-2.4461,-2.563,-2.6755,-2.7625,-2.7625,-2.7814,-2.7934,-2.7619,-2.7814,-2.7919,-2.767,-2.7625,-2.7335,-2.6677,-2.7171,-2.6811,-2.4791,-2.5211,-2.5061,-2.3714,-2.3595,-2.3595,-2.3595,-2.3595,-2.3595,-2.3595,-2.3595,-2.3595,-2.3595,-2.3837,-2.4074,-2.4307,-2.4592,-2.4752,-2.4752,-2.5067,-2.5335,0.0,0.0,0.0,0.0,0.0,0.0,0.0,0.0,0.0,0.0,0.0,0.0,0.0,0.0,0.0,0.0,0.0,0.0,0.0,0.0,0.0,0.0,0.0,0.0,0.0,0.0,0.0,0.0,0.0,0.0,-1.6238,-1.6423,-1.6522,-1.6522,-1.6522,-1.6522,-1.6522,-1.6522,-1.6522,-1.6522,-1.6522,-1.6522,-1.6522,-1.6522,-1.676,-1.7181,-1.7102,-1.7118,-1.7144,-1.76,-1.7783,-1.7804,-1.7949,-1.8329,-1.8783,-1.8933,-1.9271,-1.9623,-1.9761,-2.0067,-2.0265,-1.9902,-2.0156,-2.056,-2.056,-2.056,-2.0633,-2.1086,-2.1232,-2.1232,-2.1232,-2.1569,-2.2061,-2.241,-2.2953,-2.3609,-2.4321,-2.5969,-2.7306,-2.7306,-2.7458,-2.7625,-2.7625,-2.7625,-2.7625,-2.7625,-2.7475,-2.7141,-2.6647,-2.6871,-2.6437,-2.4761,-2.5076,-2.4881,-2.3699,-2.3595,-2.3595,-2.3595,-2.3595,-2.3595,-2.3595,-2.3595,-2.3595,-2.3595,-2.3595,-2.3595,-2.3595,-2.3991,-2.4199,-2.4199,-2.4592,-2.4871,0.0,0.0,0.0,0.0,0.0,0.0,0.0,0.0,0.0,0.0,0.0,0.0,0.0,0.0,0.0,0.0,0.0,0.0,0.0,0.0,0.0,0.0,0.0,0.0,0.0,0.0,0.0,0.0,0.0,0.0,-1.5632,-1.6194,-1.6522,-1.6522,-1.6522,-1.6522,-1.6522,-1.6522,-1.6522,-1.6522,-1.6522,-1.6522,-1.6522,-1.6522,-1.6534,-1.6559,-1.6534,-1.6552,-1.6552,-1.659,-1.6602,-1.6665,-1.72,-1.7765,-1.8304,-1.8783,-1.8995,-1.9083,-1.9623,-1.9472,-1.9145,-1.9635,-1.9798,-1.985,-1.985,-1.985,-1.985,-1.9901,-1.9901,-1.9901,-1.9901,-1.9914,-2.0271,-2.1521,-2.2246,-2.2991,-2.4214,-2.5601,-2.6563,-2.6563,-2.7137,-2.7625,-2.7625,-2.7625,-2.7625,-2.7625,-2.7036,-2.6632,-2.6587,-2.6078,-2.5435,-2.4657,-2.4612,-2.4388,-2.3655,-2.3595,-2.3595,-2.3595,-2.3595,-2.3595,-2.3595,-2.3595,-2.3595,-2.3595,-2.3595,-2.3595,-2.3595,-2.3638,-2.3638,-2.3638,-2.3681,-2.3964,0.0,0.0,0.0,0.0,0.0,0.0,0.0,0.0,0.0,0.0,0.0,0.0,0.0,0.0,0.0,0.0,0.0,0.0,0.0,0.0,0.0,0.0,0.0,0.0,0.0,0.0,0.0,0.0,0.0,0.0,-1.5005,-1.5599,-1.5908,-1.5908,-1.6281,-1.6522,-1.6522,-1.6522,-1.6522,-1.6522,-1.6522,-1.6522,-1.6522,-1.6522,-1.6522,-1.6522,-1.6522,-1.6522,-1.6522,-1.6522,-1.6522,-1.6534,-1.6748,-1.7388,-1.8229,-1.843,-1.8719,-1.9058,-1.9623,-1.9459,-1.912,-1.9635,-1.9798,-1.9798,-1.9798,-1.9798,-1.9798,-1.9798,-1.9798,-1.9798,-1.9798,-1.9798,-1.99,-2.0399,-2.1219,-2.2005,-2.2473,-2.4245,-2.5783,-2.5783,-2.5714,-2.564,-2.564,-2.6017,-2.6337,-2.6337,-2.6817,-2.7215,-2.7215,-2.6647,-2.5989,-2.533,-2.4836,-2.4477,-2.4283,-2.3849,-2.3789,-2.4223,-2.3849,-2.3595,-2.3595,-2.3595,-2.3595,-2.3595,-2.3595,-2.3595,-2.3595,-2.3595,-2.3595,-2.3595,-2.3595,-2.3921,0.0,0.0,0.0,0.0,0.0,0.0,0.0,0.0,0.0,0.0,0.0,0.0,0.0,0.0,0.0,0.0,0.0,0.0,0.0,0.0,0.0,0.0,0.0,0.0,0.0,0.0,0.0,0.0,0.0,0.0,-1.4376,-1.496,-1.541,-1.5576,-1.6194,-1.6522,-1.6522,-1.6522,-1.6522,-1.6522,-1.6522,-1.6522,-1.6522,-1.6522,-1.6522,-1.6522,-1.6522,-1.6522,-1.6522,-1.6522,-1.6522,-1.6522,-1.6522,-1.7099,-1.7953,-1.8141,-1.8442,-1.8844,-1.956,-1.9459,-1.912,-1.9635,-1.9798,-1.9798,-1.9798,-1.9798,-1.9798,-1.9798,-1.9798,-1.9798,-1.9798,-1.9949,-2.0087,-2.0087,-2.0815,-2.1493,-2.1493,-2.3349,-2.4953,-2.4791,-2.4572,-2.4443,-2.4288,-2.4624,-2.5003,-2.5217,-2.5806,-2.641,-2.6834,-2.6096,-2.5497,-2.5284,-2.4672,-2.4283,-2.4283,-2.3864,-2.3789,-2.4253,-2.3849,-2.3595,-2.3595,-2.3595,-2.3595,-2.3595,-2.3595,-2.3595,-2.3595,-2.3595,-2.3714,-2.3939,-2.3939,-2.4298,0.0,0.0,0.0,0.0,0.0,0.0,0.0,0.0,0.0,0.0,0.0,0.0,0.0,0.0,0.0,0.0,0.0,0.0,0.0,0.0,0.0,0.0,0.0,0.0,0.0,0.0,0.0,0.0,0.0,-1.3768,-1.3768,-1.4376,-1.4971,-1.5588,-1.6194,-1.6466,-1.6522,-1.6479,-1.6479,-1.6466,-1.6479,-1.6479,-1.6466,-1.6466,-1.6466,-1.6522,-1.6466,-1.6466,-1.6466,-1.6466,-1.6522,-1.6522,-1.6522,-1.6873,-1.7451,-1.8003,-1.8204,-1.8355,-1.9434,-1.9459,-1.912,-1.9635,-1.9798,-1.9798,-1.9798,-1.9798,-1.9798,-1.9798,-1.9798,-1.9798,-1.9798,-2.0213,-2.0693,-2.0693,-2.1054,-2.1468,-2.1493,-2.2941,-2.4068,-2.3474,-2.3933,-2.421,-2.3682,-2.3622,-2.383,-2.436,-2.3934,-2.4054,-2.5314,-2.431,-2.3739,-2.4476,-2.3955,-2.3551,-2.3581,-2.3566,-2.3551,-2.3581,-2.3566,-2.3551,-2.3551,-2.3551,-2.3551,-2.3551,-2.3595,-2.3595,-2.3595,-2.3625,-2.3969,-2.4582,-2.4627,-2.5031,-0.4787,0.0,0.0,0.0,0.0,0.0,0.0,0.0,0.0,0.0,0.0,0.0,0.0,0.0,0.0,0.0,0.0,0.0,0.0,0.0,0.0,0.0,0.0,0.0,0.0,0.0,0.0,0.0,-1.3065,-1.3152,-1.3152,-1.4154,-1.4971,-1.5588,-1.5764,-1.6051,-1.6522,-1.5611,-1.5421,-1.582,-1.5421,-1.5421,-1.5864,-1.5864,-1.6095,-1.6479,-1.6051,-1.5864,-1.5864,-1.6337,-1.6522,-1.6522,-1.6522,-1.6873,-1.7451,-1.8003,-1.8204,-1.8355,-1.9434,-1.9459,-1.912,-1.9635,-1.9798,-1.9798,-1.9798,-1.9798,-1.9798,-1.9798,-1.9798,-1.9798,-1.9798,-1.9924,-2.0037,-2.0037,-2.0476,-2.1004,-2.1405,-2.1888,-2.2222,-2.2069,-2.1863,-2.1677,-2.1575,-2.1956,-2.2358,-2.2519,-2.3176,-2.377,-2.4142,-2.3434,-2.2993,-2.3201,-2.2607,-2.2409,-2.289,-2.2494,-2.2423,-2.2904,-2.248,-2.2225,-2.2225,-2.268,-2.2965,-2.2965,-2.3377,-2.3595,-2.3595,-2.4103,-2.4403,-2.4612,-2.56,-2.6153,0.0,0.0,0.0,0.0,0.0,0.0,0.0,-0.745,0.0,0.0,0.0,0.0,0.0,0.0,0.0,0.0,0.0,0.0,0.0,0.0,0.0,0.0,0.0,0.0,0.0,0.0,0.0,0.0,-1.2881,-1.2881,-1.2881,-1.3789,-1.4503,-1.4858,-1.5096,-1.5377,-1.5744,-1.5062,-1.488,-1.5231,-1.488,-1.488,-1.5231,-1.5231,-1.5421,-1.5744,-1.5377,-1.5231,-1.5231,-1.5599,-1.5744,-1.5744,-1.5744,-1.5936,-1.6365,-1.7111,-1.7388,-1.7508,-1.8326,-1.8721,-1.889,-1.9066,-1.9405,-1.9798,-1.9798,-1.9798,-1.9798,-1.9798,-1.9798,-1.9798,-1.9798,-1.9987,-2.01,-1.9861,-2.0238,-2.0743,-2.0765,-2.079,-2.0928,-2.1393,-2.1041,-2.0643,-2.0351,-2.0694,-2.103,-2.1277,-2.1943,-2.2521,-2.2766,-2.2468,-2.2256,-2.2277,-2.1917,-2.1848,-2.227,-2.1904,-2.1973,-2.2608,-2.2304,-2.2159,-2.2407,-2.3079,-2.3439,-2.3439,-2.3836,-2.4163,-2.4433,-2.4567,-2.4911,-2.548,-2.6512,-2.7006,0.0,0.0,0.0,0.0,0.0,0.0,-0.6312,-0.6961,-0.7664,0.0,0.0,0.0,0.0,0.0,0.0,0.0,0.0,0.0,0.0,0.0,0.0,0.0,0.0,0.0,0.0,0.0,-1.2881,-1.2881,-1.2881,-1.2881,-1.2881,-1.3457,-1.3815,-1.3815,-1.4329,-1.4606,-1.4698,-1.4571,-1.4525,-1.4606,-1.4525,-1.4525,-1.4606,-1.4606,-1.4652,-1.4698,-1.4606,-1.4606,-1.4606,-1.4525,-1.4571,-1.4698,-1.4698,-1.4698,-1.4821,-1.5751,-1.6098,-1.6227,-1.6778,-1.7675,-1.8454,-1.8096,-1.8673,-1.9567,-1.9443,-1.9443,-1.9492,-1.9492,-1.9594,-1.9695,-1.9695,-2.0135,-2.0439,-1.9924,-2.02,-2.0451,-1.9987,-1.9849,-2.0112,-2.1192,-2.0953,-2.0401,-1.9886,-1.9798,-1.9974,-2.0542,-2.0618,-2.0765,-2.1316,-2.1419,-2.14,-2.1479,-2.1506,-2.1506,-2.1506,-2.1527,-2.1814,-2.2374,-2.2456,-2.2692,-2.3171,-2.3853,-2.4269,-2.4269,-2.4491,-2.4908,-2.561,-2.5075,-2.548,-2.6722,-2.7305,-2.7625,0.0,0.0,0.0,0.0,0.0,0.0,-0.5542,-0.5814,-0.614,0.0,0.0,0.0,0.0,0.0,0.0,0.0,0.0,0.0,0.0,0.0,0.0,0.0,0.0,0.0,0.0,0.0,-1.2881,-1.2881,-1.2881,-1.2881,-1.2881,-1.3457,-1.3815,-1.3815,-1.3909,-1.419,-1.4698,-1.3752,-1.3467,-1.3956,-1.3467,-1.3515,-1.3956,-1.3956,-1.4236,-1.4652,-1.419,-1.3956,-1.3956,-1.3467,-1.3836,-1.4698,-1.4698,-1.4698,-1.4776,-1.5407,-1.5631,-1.5766,-1.6654,-1.7142,-1.7304,-1.7265,-1.7562,-1.7921,-1.7282,-1.7266,-1.7525,-1.7525,-1.8184,-1.8927,-1.8927,-1.9445,-1.9936,-1.9823,-1.9886,-2.0075,-2.0426,-2.0125,-2.0012,-2.069,-2.0363,-1.9936,-1.9823,-1.9798,-1.9836,-1.9962,-1.9974,-2.0013,-2.0168,-2.0168,-2.0169,-2.0144,-2.0181,-2.0181,-2.0181,-2.0617,-2.095,-2.1053,-2.1488,-2.1728,-2.1843,-2.247,-2.283,-2.283,-2.3942,-2.4858,-2.5495,-2.6001,-2.6617,-2.738,-2.7565,-2.7625,0.0,0.0,0.0,-0.4519,0.0,0.0,0.0,-0.5487,-0.5706,0.0,0.0,0.0,0.0,0.0,0.0,0.0,0.0,0.0,0.0,0.0,0.0,0.0,0.0,0.0,0.0,0.0,-1.2881,-1.2881,-1.2881,-1.2881,-1.2881,-1.32,-1.3324,-1.3324,-1.3324,-1.3515,-1.38,-1.32,-1.3065,-1.3324,-1.3065,-1.3065,-1.3324,-1.3324,-1.3515,-1.38,-1.3467,-1.3324,-1.3334,-1.3017,-1.3248,-1.38,-1.38,-1.38,-1.3852,-1.4303,-1.4521,-1.4584,-1.5058,-1.5624,-1.6077,-1.5899,-1.6358,-1.6931,-1.6497,-1.6689,-1.7021,-1.7021,-1.7585,-1.8167,-1.8167,-1.8447,-1.8821,-1.915,-1.9254,-1.9445,-2.0122,-2.0012,-1.9886,-2.0175,-1.9999,-1.9798,-1.9798,-1.9798,-1.9798,-1.9798,-1.9798,-1.9798,-1.9798,-1.9798,-1.9798,-1.9798,-1.9798,-1.9798,-1.9798,-2.0326,-2.0832,-2.1054,-2.1594,-2.202,-2.2297,-2.2959,-2.336,-2.338,-2.4413,-2.4948,-2.4934,-2.564,-2.6542,-2.7625,-2.7625,-2.7625,0.0,0.0,0.0,0.0,0.0,-0.4625,0.0,0.0,0.0,-0.6095,0.0,0.0,0.0,0.0,0.0,0.0,0.0,0.0,0.0,0.0,0.0,0.0,0.0,0.0,0.0,0.0,-1.2881,-1.2881,-1.2881,-1.2881,-1.2881,-1.2881,-1.2881,-1.2881,-1.2881,-1.2881,-1.2881,-1.2881,-1.2881,-1.2881,-1.2881,-1.2881,-1.2881,-1.2881,-1.2881,-1.2881,-1.2881,-1.2881,-1.2881,-1.2881,-1.2881,-1.2881,-1.2881,-1.2881,-1.292,-1.3262,-1.3389,-1.3398,-1.3477,-1.4123,-1.4841,-1.4487,-1.501,-1.5731,-1.5831,-1.6067,-1.6324,-1.6324,-1.6773,-1.7269,-1.7269,-1.7445,-1.7743,-1.834,-1.8501,-1.8661,-1.9254,-1.9371,-1.9371,-1.9371,-1.9475,-1.9631,-1.9798,-1.9798,-1.9798,-1.9798,-1.9798,-1.9798,-1.9798,-1.9798,-1.9798,-1.9798,-1.9798,-1.9798,-1.9798,-2.0326,-2.0903,-2.1455,-2.2008,-2.256,-2.3053,-2.3708,-2.4099,-2.415,-2.4804,-2.4929,-2.4368,-2.5094,-2.6,-2.7188,-2.7188,-2.724,0.0,0.0,0.0,0.0,-0.4519,0.0,0.0,0.0,-0.4625,-0.4736,0.0,0.0,0.0,0.0,0.0,0.0,0.0,0.0,0.0,0.0,0.0,0.0,0.0,0.0,0.0,0.0,0.0,-1.2881,-1.2881,-1.2881,-1.2881,-1.2881,-1.2881,-1.2881,-1.2881,-1.2881,-1.2881,-1.2881,-1.2881,-1.2881,-1.2881,-1.2881,-1.2881,-1.2881,-1.2881,-1.2881,-1.2881,-1.2881,-1.2881,-1.2881,-1.2881,-1.2881,-1.2881,-1.2881,-1.2891,-1.293,-1.2949,-1.3008,-1.3379,-1.3586,-1.3667,-1.3618,-1.3481,-1.3381,-1.371,-1.386,-1.3899,-1.3899,-1.4944,-1.6072,-1.6072,-1.6863,-1.7633,-1.7688,-1.7743,-1.7743,-1.7841,-1.7852,-1.7852,-1.7852,-1.8382,-1.9044,-1.9695,-1.9798,-1.9798,-1.9798,-1.9798,-1.9798,-1.9798,-1.9798,-1.9798,-1.9798,-1.9798,-1.9798,-1.9798,-2.0326,-2.0903,-2.1455,-2.2008,-2.256,-2.3053,-2.3198,-2.322,-2.3263,-2.4021,-2.4368,-2.4302,-2.5036,-2.5508,-2.5673,-2.5673,-2.6,0.0,0.0,0.0,0.0,0.0,0.0,0.0,0.0,-0.4519,0.0,0.0,0.0,0.0,0.0,0.0,0.0,0.0,0.0,0.0,0.0,0.0,0.0,0.0,0.0,0.0,0.0,0.0,0.0,0.0,-1.2236,-1.2236,-1.2666,-1.2881,-1.2881,-1.2881,-1.2881,-1.2881,-1.2881,-1.2881,-1.2881,-1.2881,-1.2881,-1.2881,-1.2881,-1.2881,-1.2881,-1.2881,-1.2881,-1.2881,-1.2881,-1.2881,-1.2881,-1.2881,-1.2881,-1.2881,-1.2881,-1.2881,-1.29,-1.3076,-1.3145,-1.3145,-1.3145,-1.3027,-1.291,-1.3096,-1.3486,-1.3877,-1.3877,-1.4691,-1.5628,-1.5628,-1.594,-1.6415,-1.6866,-1.6978,-1.709,-1.7523,-1.7578,-1.7578,-1.7578,-1.7852,-1.8167,-1.8447,-1.9254,-1.9798,-1.9798,-1.9798,-1.9798,-1.9798,-1.9798,-1.9798,-1.9798,-1.9798,-1.9798,-1.9798,-2.0326,-2.0903,-2.1455,-2.2309,-2.2899,-2.3065,-2.3078,-2.3078,-2.3078,-2.3424,-2.359,-2.359,-2.393,-2.4047,-2.4105,-2.5007,-2.5563,-0.4125,0.0,0.0,0.0,0.0,0.0,0.0,0.0,0.0,0.0,0.0,0.0,0.0,0.0,0.0,0.0,0.0,0.0,0.0,0.0,0.0,0.0,0.0,0.0,0.0,0.0,0.0,0.0,-1.1516,-1.1616,-1.1814,-1.2295,-1.2666,-1.2881,-1.2881,-1.2881,-1.2881,-1.2881,-1.2881,-1.2881,-1.2881,-1.2881,-1.2881,-1.2881,-1.2881,-1.2881,-1.2881,-1.2881,-1.2881,-1.2666,-1.2725,-1.2881,-1.2666,-1.2715,-1.2881,-1.2881,-1.2881,-1.2881,-1.2881,-1.2881,-1.2881,-1.2881,-1.2881,-1.2881,-1.2881,-1.3389,-1.3965,-1.3965,-1.458,-1.5244,-1.5244,-1.5322,-1.5517,-1.6093,-1.6208,-1.6368,-1.6856,-1.7024,-1.7024,-1.7024,-1.7135,-1.7302,-1.7302,-1.8328,-1.9202,-1.9202,-1.9202,-1.9202,-1.9202,-1.9202,-1.9254,-1.9475,-1.9475,-1.9579,-1.9798,-2.0188,-2.0727,-2.1443,-2.2385,-2.2975,-2.3065,-2.3078,-2.3078,-2.3078,-2.3078,-2.3078,-2.3078,-2.3078,-2.3078,-2.3138,-2.4266,-2.4894,0.0,0.0,0.0,-0.4294,0.0,0.0,0.0,0.0,-0.4519,0.0,0.0,0.0,0.0,0.0,0.0,0.0,0.0,0.0,0.0,0.0,0.0,0.0,0.0,0.0,0.0,0.0,0.0,-1.0813,-1.0813,-1.1116,-1.1765,-1.1814,-1.2187,-1.2881,-1.2881,-1.2881,-1.2881,-1.2881,-1.2881,-1.2881,-1.2881,-1.2881,-1.2881,-1.2881,-1.2881,-1.2881,-1.2881,-1.2881,-1.2822,-1.2129,-1.2236,-1.2832,-1.2129,-1.2295,-1.2881,-1.2881,-1.2881,-1.2881,-1.2881,-1.2881,-1.2881,-1.2881,-1.2881,-1.2881,-1.2881,-1.3184,-1.3525,-1.3525,-1.415,-1.4805,-1.4805,-1.5107,-1.541,-1.541,-1.541,-1.5468,-1.5468,-1.5468,-1.5468,-1.5468,-1.6036,-1.6539,-1.6539,-1.7146,-1.7688,-1.7688,-1.7688,-1.7688,-1.7688,-1.7688,-1.795,-1.8661,-1.8715,-1.9032,-1.9747,-1.9823,-2.0313,-2.1418,-2.202,-2.2573,-2.3053,-2.3078,-2.3078,-2.3078,-2.3078,-2.3078,-2.3078,-2.3078,-2.3078,-2.3078,-2.3125,-2.3603,0.0,0.0,-0.2065,-0.2788,0.0,0.0,0.0,0.0,0.0,0.0,0.0,0.0,0.0,0.0,0.0,0.0,0.0,0.0,0.0,0.0,0.0,0.0,0.0,0.0,0.0,0.0,0.0,-1.0115,-1.0167,-1.0269,0.0,-1.1316,-1.1724,-1.1534,-1.1931,-1.2178,-1.2178,-1.2178,-1.2178,-1.2178,-1.2178,-1.1931,-1.1534,-1.199,-1.2178,-1.2187,-1.2666,-1.2608,-1.2129,-1.1913,-1.1674,-1.1484,-1.1225,-1.1275,-1.1642,-1.2569,-1.2881,-1.2881,-1.2881,-1.2881,-1.2881,-1.2881,-1.2881,-1.293,-1.3213,-1.3584,-1.3984,-1.4268,-1.4766,-1.5205,-1.5205,-1.5303,-1.541,-1.541,-1.541,-1.541,-1.541,-1.541,-1.541,-1.541,-1.5584,-1.5748,-1.5748,-1.5968,-1.6472,-1.7468,-1.7578,-1.7578,-1.7578,-1.7578,-1.7688,-1.7961,-1.795,-1.807,-1.8328,-1.9156,-2.0001,-2.073,-2.1708,-2.256,-2.3053,-2.3078,-2.3078,-2.3078,-2.3078,-2.3078,-2.3078,-2.3078,-2.3078,-2.3078,-2.3078,-2.3258,-0.173,-0.1452,0.0,-0.2009,-0.2174,0.0,-0.2843,0.0,0.0,0.0,0.0,0.0,0.0,0.0,0.0,0.0,0.0,0.0,0.0,0.0,0.0,0.0,0.0,0.0,0.0,0.0,-0.8956,-0.9413,-0.9465,-0.9562,0.0,0.0,-1.1015,-1.0813,-1.1216,-1.1466,-1.1466,-1.1466,-1.1466,-1.1466,-1.1466,-1.1216,-1.0813,-1.1266,-1.1466,-1.1466,-1.194,-1.1891,-1.1416,-1.1166,-1.0965,-1.0762,-1.0517,-1.061,-1.0922,-1.2098,-1.2666,-1.2881,-1.2881,-1.2881,-1.2881,-1.2881,-1.2881,-1.293,-1.3203,-1.3574,-1.4004,-1.4434,-1.4863,-1.5225,-1.5371,-1.541,-1.5371,-1.5225,-1.5186,-1.5186,-1.5186,-1.5186,-1.5234,-1.5381,-1.541,-1.541,-1.541,-1.541,-1.5748,-1.6687,-1.68,-1.68,-1.68,-1.68,-1.6912,-1.7191,-1.7191,-1.7302,-1.7578,-1.854,-1.9342,-1.9913,-2.0842,-2.162,-2.2224,-2.2175,-2.2469,-2.2923,-2.2788,-2.2922,-2.3439,-2.3178,-2.3078,-2.3078,-2.3078,-2.3078]}]]